<?xml version="1.0" encoding="UTF-8" standalone="no" ?>
<gpx xmlns="http://www.topografix.com/GPX/1/1" xmlns:xsi="http://www.w3.org/2001/XMLSchema-instance" xsi:schemaLocation="http://www.topografix.com/GPX/1/1 http://www.topografix.com/GPX/1/1/gpx.xsd" version="1.1" creator="VisuGPX - https://www.visugpx.com">
  <metadata>
    <name>R.A.F. 2021 / 1100 km</name>
  </metadata>
  <trk>
    <name><![CDATA[R.A.F. 2021 / 1100 km]]></name>
    <extensions>
      <line xmlns="http://www.topografix.com/GPX/gpx_style/0/2">
        <color>0000FF</color>
        <width>4</width>
      </line>
    </extensions>
    <trkseg>
      <trkpt lat="45.69138" lon="6.69095">
        <ele>1973</ele>
        <time>2021-03-30T04:23:24.472Z</time>
      </trkpt>
      <trkpt lat="45.69119" lon="6.68974">
        <ele>1971</ele>
        <time>2021-03-30T04:23:40.126Z</time>
      </trkpt>
      <trkpt lat="45.6912" lon="6.68952">
        <ele>1969</ele>
        <time>2021-03-30T04:23:42.160Z</time>
      </trkpt>
      <trkpt lat="45.69134" lon="6.68891">
        <ele>1968</ele>
        <time>2021-03-30T04:23:50.338Z</time>
      </trkpt>
      <trkpt lat="45.69129" lon="6.68847">
        <ele>1966</ele>
        <time>2021-03-30T04:23:54.177Z</time>
      </trkpt>
      <trkpt lat="45.6913" lon="6.68836">
        <ele>1966</ele>
        <time>2021-03-30T04:23:57.092Z</time>
      </trkpt>
      <trkpt lat="45.69132" lon="6.68822">
        <ele>1966</ele>
        <time>2021-03-30T04:24:00.847Z</time>
      </trkpt>
      <trkpt lat="45.69143" lon="6.68791">
        <ele>1966</ele>
        <time>2021-03-30T04:24:09.983Z</time>
      </trkpt>
      <trkpt lat="45.69145" lon="6.68771">
        <ele>1965</ele>
        <time>2021-03-30T04:24:11.847Z</time>
      </trkpt>
      <trkpt lat="45.69142" lon="6.68752">
        <ele>1964</ele>
        <time>2021-03-30T04:24:13.645Z</time>
      </trkpt>
      <trkpt lat="45.69134" lon="6.68733">
        <ele>1962</ele>
        <time>2021-03-30T04:24:15.692Z</time>
      </trkpt>
      <trkpt lat="45.69115" lon="6.68715">
        <ele>1960</ele>
        <time>2021-03-30T04:24:18.701Z</time>
      </trkpt>
      <trkpt lat="45.69109" lon="6.68706">
        <ele>1959</ele>
        <time>2021-03-30T04:24:19.849Z</time>
      </trkpt>
      <trkpt lat="45.69104" lon="6.68684">
        <ele>1958</ele>
        <time>2021-03-30T04:24:21.878Z</time>
      </trkpt>
      <trkpt lat="45.69115" lon="6.68529">
        <ele>1954</ele>
        <time>2021-03-30T04:24:38.909Z</time>
      </trkpt>
      <trkpt lat="45.69119" lon="6.68507">
        <ele>1953</ele>
        <time>2021-03-30T04:24:40.886Z</time>
      </trkpt>
      <trkpt lat="45.69126" lon="6.6848">
        <ele>1953</ele>
        <time>2021-03-30T04:24:48.453Z</time>
      </trkpt>
      <trkpt lat="45.69153" lon="6.68433">
        <ele>1953</ele>
        <time>2021-03-30T04:25:04.443Z</time>
      </trkpt>
      <trkpt lat="45.69157" lon="6.68416">
        <ele>1952</ele>
        <time>2021-03-30T04:25:06.098Z</time>
      </trkpt>
      <trkpt lat="45.69156" lon="6.68404">
        <ele>1951</ele>
        <time>2021-03-30T04:25:07.213Z</time>
      </trkpt>
      <trkpt lat="45.69149" lon="6.68382">
        <ele>1950</ele>
        <time>2021-03-30T04:25:09.379Z</time>
      </trkpt>
      <trkpt lat="45.69121" lon="6.68345">
        <ele>1947</ele>
        <time>2021-03-30T04:25:14.412Z</time>
      </trkpt>
      <trkpt lat="45.69113" lon="6.68326">
        <ele>1946</ele>
        <time>2021-03-30T04:25:16.318Z</time>
      </trkpt>
      <trkpt lat="45.69097" lon="6.68273">
        <ele>1943</ele>
        <time>2021-03-30T04:25:21.646Z</time>
      </trkpt>
      <trkpt lat="45.69087" lon="6.68251">
        <ele>1942</ele>
        <time>2021-03-30T04:25:24.089Z</time>
      </trkpt>
      <trkpt lat="45.69073" lon="6.68235">
        <ele>1942</ele>
        <time>2021-03-30T04:25:30.828Z</time>
      </trkpt>
      <trkpt lat="45.69026" lon="6.68198">
        <ele>1941</ele>
        <time>2021-03-30T04:25:41.033Z</time>
      </trkpt>
      <trkpt lat="45.69013" lon="6.68181">
        <ele>1940</ele>
        <time>2021-03-30T04:25:43.336Z</time>
      </trkpt>
      <trkpt lat="45.69006" lon="6.68161">
        <ele>1940</ele>
        <time>2021-03-30T04:25:49.214Z</time>
      </trkpt>
      <trkpt lat="45.69002" lon="6.68131">
        <ele>1939</ele>
        <time>2021-03-30T04:25:52.251Z</time>
      </trkpt>
      <trkpt lat="45.69003" lon="6.68101">
        <ele>1938</ele>
        <time>2021-03-30T04:25:55.217Z</time>
      </trkpt>
      <trkpt lat="45.6901" lon="6.68064">
        <ele>1935</ele>
        <time>2021-03-30T04:25:58.754Z</time>
      </trkpt>
      <trkpt lat="45.69017" lon="6.68047">
        <ele>1934</ele>
        <time>2021-03-30T04:26:00.575Z</time>
      </trkpt>
      <trkpt lat="45.69032" lon="6.68022">
        <ele>1930</ele>
        <time>2021-03-30T04:26:03.616Z</time>
      </trkpt>
      <trkpt lat="45.69047" lon="6.68009">
        <ele>1928</ele>
        <time>2021-03-30T04:26:05.932Z</time>
      </trkpt>
      <trkpt lat="45.69068" lon="6.67998">
        <ele>1925</ele>
        <time>2021-03-30T04:26:08.886Z</time>
      </trkpt>
      <trkpt lat="45.69086" lon="6.67996">
        <ele>1923</ele>
        <time>2021-03-30T04:26:11.271Z</time>
      </trkpt>
      <trkpt lat="45.69095" lon="6.67998">
        <ele>1921</ele>
        <time>2021-03-30T04:26:12.474Z</time>
      </trkpt>
      <trkpt lat="45.6912" lon="6.68017">
        <ele>1920</ele>
        <time>2021-03-30T04:26:16.966Z</time>
      </trkpt>
      <trkpt lat="45.6917" lon="6.68065">
        <ele>1919</ele>
        <time>2021-03-30T04:26:28.705Z</time>
      </trkpt>
      <trkpt lat="45.69255" lon="6.68176">
        <ele>1917</ele>
        <time>2021-03-30T04:26:50.928Z</time>
      </trkpt>
      <trkpt lat="45.69272" lon="6.68189">
        <ele>1916</ele>
        <time>2021-03-30T04:26:53.555Z</time>
      </trkpt>
      <trkpt lat="45.69366" lon="6.68246">
        <ele>1910</ele>
        <time>2021-03-30T04:27:06.694Z</time>
      </trkpt>
      <trkpt lat="45.69402" lon="6.68275">
        <ele>1909</ele>
        <time>2021-03-30T04:27:14.064Z</time>
      </trkpt>
      <trkpt lat="45.69408" lon="6.68277">
        <ele>1909</ele>
        <time>2021-03-30T04:27:16.382Z</time>
      </trkpt>
      <trkpt lat="45.69418" lon="6.68274">
        <ele>1906</ele>
        <time>2021-03-30T04:27:17.731Z</time>
      </trkpt>
      <trkpt lat="45.69423" lon="6.68266">
        <ele>1903</ele>
        <time>2021-03-30T04:27:18.722Z</time>
      </trkpt>
      <trkpt lat="45.69421" lon="6.68245">
        <ele>1899</ele>
        <time>2021-03-30T04:27:20.677Z</time>
      </trkpt>
      <trkpt lat="45.69354" lon="6.68175">
        <ele>1898</ele>
        <time>2021-03-30T04:27:37.803Z</time>
      </trkpt>
      <trkpt lat="45.69339" lon="6.68157">
        <ele>1898</ele>
        <time>2021-03-30T04:27:45.166Z</time>
      </trkpt>
      <trkpt lat="45.69332" lon="6.68141">
        <ele>1898</ele>
        <time>2021-03-30T04:27:50.126Z</time>
      </trkpt>
      <trkpt lat="45.69325" lon="6.68078">
        <ele>1890</ele>
        <time>2021-03-30T04:27:56.012Z</time>
      </trkpt>
      <trkpt lat="45.69301" lon="6.67979">
        <ele>1878</ele>
        <time>2021-03-30T04:28:05.681Z</time>
      </trkpt>
      <trkpt lat="45.69288" lon="6.67958">
        <ele>1877</ele>
        <time>2021-03-30T04:28:08.372Z</time>
      </trkpt>
      <trkpt lat="45.69275" lon="6.67946">
        <ele>1877</ele>
        <time>2021-03-30T04:28:14.190Z</time>
      </trkpt>
      <trkpt lat="45.69233" lon="6.67925">
        <ele>1881</ele>
        <time>2021-03-30T04:28:53.815Z</time>
      </trkpt>
      <trkpt lat="45.69225" lon="6.67917">
        <ele>1881</ele>
        <time>2021-03-30T04:28:57.485Z</time>
      </trkpt>
      <trkpt lat="45.69214" lon="6.67897">
        <ele>1879</ele>
        <time>2021-03-30T04:28:59.834Z</time>
      </trkpt>
      <trkpt lat="45.69197" lon="6.67854">
        <ele>1875</ele>
        <time>2021-03-30T04:29:04.393Z</time>
      </trkpt>
      <trkpt lat="45.69121" lon="6.67731">
        <ele>1869</ele>
        <time>2021-03-30T04:29:19.969Z</time>
      </trkpt>
      <trkpt lat="45.69114" lon="6.6771">
        <ele>1868</ele>
        <time>2021-03-30T04:29:22.016Z</time>
      </trkpt>
      <trkpt lat="45.69108" lon="6.67665">
        <ele>1865</ele>
        <time>2021-03-30T04:29:26.243Z</time>
      </trkpt>
      <trkpt lat="45.69095" lon="6.676">
        <ele>1862</ele>
        <time>2021-03-30T04:29:32.097Z</time>
      </trkpt>
      <trkpt lat="45.69088" lon="6.6755">
        <ele>1859</ele>
        <time>2021-03-30T04:29:36.803Z</time>
      </trkpt>
      <trkpt lat="45.69086" lon="6.67505">
        <ele>1855</ele>
        <time>2021-03-30T04:29:40.963Z</time>
      </trkpt>
      <trkpt lat="45.69095" lon="6.67438">
        <ele>1851</ele>
        <time>2021-03-30T04:29:47.259Z</time>
      </trkpt>
      <trkpt lat="45.69112" lon="6.67394">
        <ele>1847</ele>
        <time>2021-03-30T04:29:51.898Z</time>
      </trkpt>
      <trkpt lat="45.69116" lon="6.67337">
        <ele>1847</ele>
        <time>2021-03-30T04:30:06.951Z</time>
      </trkpt>
      <trkpt lat="45.69121" lon="6.67324">
        <ele>1846</ele>
        <time>2021-03-30T04:30:08.320Z</time>
      </trkpt>
      <trkpt lat="45.69127" lon="6.67311">
        <ele>1845</ele>
        <time>2021-03-30T04:30:09.758Z</time>
      </trkpt>
      <trkpt lat="45.69137" lon="6.673">
        <ele>1843</ele>
        <time>2021-03-30T04:30:11.424Z</time>
      </trkpt>
      <trkpt lat="45.69173" lon="6.67273">
        <ele>1837</ele>
        <time>2021-03-30T04:30:16.792Z</time>
      </trkpt>
      <trkpt lat="45.69182" lon="6.67262">
        <ele>1836</ele>
        <time>2021-03-30T04:30:18.355Z</time>
      </trkpt>
      <trkpt lat="45.69214" lon="6.67193">
        <ele>1833</ele>
        <time>2021-03-30T04:30:26.241Z</time>
      </trkpt>
      <trkpt lat="45.69246" lon="6.67147">
        <ele>1828</ele>
        <time>2021-03-30T04:30:32.231Z</time>
      </trkpt>
      <trkpt lat="45.69262" lon="6.67078">
        <ele>1826</ele>
        <time>2021-03-30T04:30:39.979Z</time>
      </trkpt>
      <trkpt lat="45.69297" lon="6.67014">
        <ele>1821</ele>
        <time>2021-03-30T04:30:47.478Z</time>
      </trkpt>
      <trkpt lat="45.69325" lon="6.66881">
        <ele>1817</ele>
        <time>2021-03-30T04:31:02.025Z</time>
      </trkpt>
      <trkpt lat="45.69352" lon="6.66768">
        <ele>1813</ele>
        <time>2021-03-30T04:31:13.788Z</time>
      </trkpt>
      <trkpt lat="45.69357" lon="6.66638">
        <ele>1813</ele>
        <time>2021-03-30T04:31:47.998Z</time>
      </trkpt>
      <trkpt lat="45.69372" lon="6.66602">
        <ele>1809</ele>
        <time>2021-03-30T04:31:51.866Z</time>
      </trkpt>
      <trkpt lat="45.69383" lon="6.66559">
        <ele>1811</ele>
        <time>2021-03-30T04:32:14.786Z</time>
      </trkpt>
      <trkpt lat="45.69388" lon="6.66549">
        <ele>1810</ele>
        <time>2021-03-30T04:32:15.921Z</time>
      </trkpt>
      <trkpt lat="45.69399" lon="6.66537">
        <ele>1808</ele>
        <time>2021-03-30T04:32:17.747Z</time>
      </trkpt>
      <trkpt lat="45.69426" lon="6.66514">
        <ele>1803</ele>
        <time>2021-03-30T04:32:21.897Z</time>
      </trkpt>
      <trkpt lat="45.69449" lon="6.66501">
        <ele>1803</ele>
        <time>2021-03-30T04:32:31.199Z</time>
      </trkpt>
      <trkpt lat="45.69493" lon="6.66494">
        <ele>1801</ele>
        <time>2021-03-30T04:32:37.599Z</time>
      </trkpt>
      <trkpt lat="45.69504" lon="6.66497">
        <ele>1798</ele>
        <time>2021-03-30T04:32:39.078Z</time>
      </trkpt>
      <trkpt lat="45.69534" lon="6.66515">
        <ele>1794</ele>
        <time>2021-03-30T04:32:43.374Z</time>
      </trkpt>
      <trkpt lat="45.69551" lon="6.66515">
        <ele>1793</ele>
        <time>2021-03-30T04:32:45.562Z</time>
      </trkpt>
      <trkpt lat="45.6956" lon="6.66509">
        <ele>1792</ele>
        <time>2021-03-30T04:32:46.873Z</time>
      </trkpt>
      <trkpt lat="45.69581" lon="6.66474">
        <ele>1793</ele>
        <time>2021-03-30T04:33:03.810Z</time>
      </trkpt>
      <trkpt lat="45.69627" lon="6.66383">
        <ele>1776</ele>
        <time>2021-03-30T04:33:14.174Z</time>
      </trkpt>
      <trkpt lat="45.6963" lon="6.66365">
        <ele>1773</ele>
        <time>2021-03-30T04:33:15.881Z</time>
      </trkpt>
      <trkpt lat="45.69627" lon="6.66315">
        <ele>1775</ele>
        <time>2021-03-30T04:33:40.054Z</time>
      </trkpt>
      <trkpt lat="45.69628" lon="6.66291">
        <ele>1772</ele>
        <time>2021-03-30T04:33:42.273Z</time>
      </trkpt>
      <trkpt lat="45.69627" lon="6.66282">
        <ele>1772</ele>
        <time>2021-03-30T04:33:44.667Z</time>
      </trkpt>
      <trkpt lat="45.69619" lon="6.66262">
        <ele>1778</ele>
        <time>2021-03-30T04:34:08.024Z</time>
      </trkpt>
      <trkpt lat="45.69612" lon="6.6622">
        <ele>1774</ele>
        <time>2021-03-30T04:34:12.008Z</time>
      </trkpt>
      <trkpt lat="45.69602" lon="6.66182">
        <ele>1769</ele>
        <time>2021-03-30T04:34:15.754Z</time>
      </trkpt>
      <trkpt lat="45.69592" lon="6.66156">
        <ele>1767</ele>
        <time>2021-03-30T04:34:18.493Z</time>
      </trkpt>
      <trkpt lat="45.69544" lon="6.66058">
        <ele>1755</ele>
        <time>2021-03-30T04:34:29.536Z</time>
      </trkpt>
      <trkpt lat="45.69528" lon="6.66033">
        <ele>1752</ele>
        <time>2021-03-30T04:34:32.664Z</time>
      </trkpt>
      <trkpt lat="45.69477" lon="6.65986">
        <ele>1752</ele>
        <time>2021-03-30T04:34:55.480Z</time>
      </trkpt>
      <trkpt lat="45.69427" lon="6.65932">
        <ele>1746</ele>
        <time>2021-03-30T04:35:03.753Z</time>
      </trkpt>
      <trkpt lat="45.69386" lon="6.65874">
        <ele>1740</ele>
        <time>2021-03-30T04:35:11.367Z</time>
      </trkpt>
      <trkpt lat="45.69349" lon="6.65813">
        <ele>1732</ele>
        <time>2021-03-30T04:35:18.821Z</time>
      </trkpt>
      <trkpt lat="45.69324" lon="6.65786">
        <ele>1735</ele>
        <time>2021-03-30T04:35:48.250Z</time>
      </trkpt>
      <trkpt lat="45.693" lon="6.65729">
        <ele>1724</ele>
        <time>2021-03-30T04:35:54.390Z</time>
      </trkpt>
      <trkpt lat="45.69285" lon="6.65711">
        <ele>1725</ele>
        <time>2021-03-30T04:36:07.357Z</time>
      </trkpt>
      <trkpt lat="45.69266" lon="6.65671">
        <ele>1718</ele>
        <time>2021-03-30T04:36:11.820Z</time>
      </trkpt>
      <trkpt lat="45.69232" lon="6.65617">
        <ele>1716</ele>
        <time>2021-03-30T04:36:19.567Z</time>
      </trkpt>
      <trkpt lat="45.6921" lon="6.65569">
        <ele>1712</ele>
        <time>2021-03-30T04:36:24.864Z</time>
      </trkpt>
      <trkpt lat="45.69176" lon="6.65474">
        <ele>1700</ele>
        <time>2021-03-30T04:36:34.713Z</time>
      </trkpt>
      <trkpt lat="45.69137" lon="6.6541">
        <ele>1694</ele>
        <time>2021-03-30T04:36:42.550Z</time>
      </trkpt>
      <trkpt lat="45.6912" lon="6.65387">
        <ele>1692</ele>
        <time>2021-03-30T04:36:45.640Z</time>
      </trkpt>
      <trkpt lat="45.69107" lon="6.65376">
        <ele>1692</ele>
        <time>2021-03-30T04:36:51.320Z</time>
      </trkpt>
      <trkpt lat="45.69107" lon="6.65365">
        <ele>1688</ele>
        <time>2021-03-30T04:36:52.335Z</time>
      </trkpt>
      <trkpt lat="45.69112" lon="6.6536">
        <ele>1685</ele>
        <time>2021-03-30T04:36:53.141Z</time>
      </trkpt>
      <trkpt lat="45.69121" lon="6.65363">
        <ele>1683</ele>
        <time>2021-03-30T04:36:54.361Z</time>
      </trkpt>
      <trkpt lat="45.69145" lon="6.65398">
        <ele>1687</ele>
        <time>2021-03-30T04:37:34.415Z</time>
      </trkpt>
      <trkpt lat="45.69208" lon="6.65468">
        <ele>1684</ele>
        <time>2021-03-30T04:37:46.790Z</time>
      </trkpt>
      <trkpt lat="45.69256" lon="6.65547">
        <ele>1683</ele>
        <time>2021-03-30T04:38:01.581Z</time>
      </trkpt>
      <trkpt lat="45.69286" lon="6.65578">
        <ele>1679</ele>
        <time>2021-03-30T04:38:06.469Z</time>
      </trkpt>
      <trkpt lat="45.69327" lon="6.65614">
        <ele>1674</ele>
        <time>2021-03-30T04:38:12.822Z</time>
      </trkpt>
      <trkpt lat="45.69358" lon="6.65657">
        <ele>1672</ele>
        <time>2021-03-30T04:38:18.997Z</time>
      </trkpt>
      <trkpt lat="45.69383" lon="6.65682">
        <ele>1668</ele>
        <time>2021-03-30T04:38:23.025Z</time>
      </trkpt>
      <trkpt lat="45.69392" lon="6.65694">
        <ele>1668</ele>
        <time>2021-03-30T04:38:27.651Z</time>
      </trkpt>
      <trkpt lat="45.69398" lon="6.65707">
        <ele>1671</ele>
        <time>2021-03-30T04:38:43.442Z</time>
      </trkpt>
      <trkpt lat="45.69405" lon="6.65726">
        <ele>1676</ele>
        <time>2021-03-30T04:39:05.213Z</time>
      </trkpt>
      <trkpt lat="45.69412" lon="6.65756">
        <ele>1686</ele>
        <time>2021-03-30T04:39:37.268Z</time>
      </trkpt>
      <trkpt lat="45.69423" lon="6.6577">
        <ele>1686</ele>
        <time>2021-03-30T04:39:42.805Z</time>
      </trkpt>
      <trkpt lat="45.69459" lon="6.65782">
        <ele>1678</ele>
        <time>2021-03-30T04:39:47.687Z</time>
      </trkpt>
      <trkpt lat="45.69481" lon="6.65781">
        <ele>1670</ele>
        <time>2021-03-30T04:39:50.595Z</time>
      </trkpt>
      <trkpt lat="45.69499" lon="6.65784">
        <ele>1664</ele>
        <time>2021-03-30T04:39:52.988Z</time>
      </trkpt>
      <trkpt lat="45.69553" lon="6.65798">
        <ele>1659</ele>
        <time>2021-03-30T04:40:00.237Z</time>
      </trkpt>
      <trkpt lat="45.69567" lon="6.65796">
        <ele>1655</ele>
        <time>2021-03-30T04:40:02.096Z</time>
      </trkpt>
      <trkpt lat="45.6958" lon="6.65785">
        <ele>1651</ele>
        <time>2021-03-30T04:40:04.091Z</time>
      </trkpt>
      <trkpt lat="45.69587" lon="6.65775">
        <ele>1648</ele>
        <time>2021-03-30T04:40:05.397Z</time>
      </trkpt>
      <trkpt lat="45.69597" lon="6.65741">
        <ele>1642</ele>
        <time>2021-03-30T04:40:08.800Z</time>
      </trkpt>
      <trkpt lat="45.69598" lon="6.65723">
        <ele>1640</ele>
        <time>2021-03-30T04:40:10.466Z</time>
      </trkpt>
      <trkpt lat="45.69589" lon="6.65697">
        <ele>1639</ele>
        <time>2021-03-30T04:40:13.290Z</time>
      </trkpt>
      <trkpt lat="45.69581" lon="6.65685">
        <ele>1638</ele>
        <time>2021-03-30T04:40:14.820Z</time>
      </trkpt>
      <trkpt lat="45.69563" lon="6.65674">
        <ele>1637</ele>
        <time>2021-03-30T04:40:17.506Z</time>
      </trkpt>
      <trkpt lat="45.69549" lon="6.65673">
        <ele>1636</ele>
        <time>2021-03-30T04:40:19.357Z</time>
      </trkpt>
      <trkpt lat="45.69492" lon="6.65682">
        <ele>1638</ele>
        <time>2021-03-30T04:40:51.055Z</time>
      </trkpt>
      <trkpt lat="45.69474" lon="6.65677">
        <ele>1640</ele>
        <time>2021-03-30T04:41:10.732Z</time>
      </trkpt>
      <trkpt lat="45.69462" lon="6.65669">
        <ele>1639</ele>
        <time>2021-03-30T04:41:12.480Z</time>
      </trkpt>
      <trkpt lat="45.69454" lon="6.65658">
        <ele>1639</ele>
        <time>2021-03-30T04:41:16.653Z</time>
      </trkpt>
      <trkpt lat="45.69445" lon="6.65639">
        <ele>1638</ele>
        <time>2021-03-30T04:41:18.659Z</time>
      </trkpt>
      <trkpt lat="45.69442" lon="6.65619">
        <ele>1636</ele>
        <time>2021-03-30T04:41:20.546Z</time>
      </trkpt>
      <trkpt lat="45.69442" lon="6.65588">
        <ele>1632</ele>
        <time>2021-03-30T04:41:23.406Z</time>
      </trkpt>
      <trkpt lat="45.69446" lon="6.65574">
        <ele>1630</ele>
        <time>2021-03-30T04:41:24.802Z</time>
      </trkpt>
      <trkpt lat="45.69455" lon="6.65558">
        <ele>1626</ele>
        <time>2021-03-30T04:41:26.697Z</time>
      </trkpt>
      <trkpt lat="45.69469" lon="6.65545">
        <ele>1622</ele>
        <time>2021-03-30T04:41:28.901Z</time>
      </trkpt>
      <trkpt lat="45.69476" lon="6.65542">
        <ele>1621</ele>
        <time>2021-03-30T04:41:29.866Z</time>
      </trkpt>
      <trkpt lat="45.69493" lon="6.65541">
        <ele>1618</ele>
        <time>2021-03-30T04:41:32.114Z</time>
      </trkpt>
      <trkpt lat="45.69542" lon="6.65559">
        <ele>1616</ele>
        <time>2021-03-30T04:41:39.820Z</time>
      </trkpt>
      <trkpt lat="45.69735" lon="6.65638">
        <ele>1603</ele>
        <time>2021-03-30T04:42:04.466Z</time>
      </trkpt>
      <trkpt lat="45.69748" lon="6.65639">
        <ele>1601</ele>
        <time>2021-03-30T04:42:06.186Z</time>
      </trkpt>
      <trkpt lat="45.69775" lon="6.65636">
        <ele>1598</ele>
        <time>2021-03-30T04:42:09.763Z</time>
      </trkpt>
      <trkpt lat="45.69797" lon="6.65627">
        <ele>1595</ele>
        <time>2021-03-30T04:42:12.785Z</time>
      </trkpt>
      <trkpt lat="45.69818" lon="6.65612">
        <ele>1591</ele>
        <time>2021-03-30T04:42:15.885Z</time>
      </trkpt>
      <trkpt lat="45.69879" lon="6.65538">
        <ele>1587</ele>
        <time>2021-03-30T04:42:26.956Z</time>
      </trkpt>
      <trkpt lat="45.69888" lon="6.65533">
        <ele>1587</ele>
        <time>2021-03-30T04:42:30.588Z</time>
      </trkpt>
      <trkpt lat="45.69932" lon="6.65522">
        <ele>1593</ele>
        <time>2021-03-30T04:43:35.395Z</time>
      </trkpt>
      <trkpt lat="45.69944" lon="6.65517">
        <ele>1596</ele>
        <time>2021-03-30T04:43:53.528Z</time>
      </trkpt>
      <trkpt lat="45.69954" lon="6.65508">
        <ele>1596</ele>
        <time>2021-03-30T04:43:57.972Z</time>
      </trkpt>
      <trkpt lat="45.69965" lon="6.65483">
        <ele>1595</ele>
        <time>2021-03-30T04:44:00.869Z</time>
      </trkpt>
      <trkpt lat="45.6998" lon="6.65419">
        <ele>1590</ele>
        <time>2021-03-30T04:44:07.097Z</time>
      </trkpt>
      <trkpt lat="45.69994" lon="6.65388">
        <ele>1591</ele>
        <time>2021-03-30T04:44:22.140Z</time>
      </trkpt>
      <trkpt lat="45.70018" lon="6.6535">
        <ele>1597</ele>
        <time>2021-03-30T04:45:14.057Z</time>
      </trkpt>
      <trkpt lat="45.70029" lon="6.65328">
        <ele>1600</ele>
        <time>2021-03-30T04:45:41.475Z</time>
      </trkpt>
      <trkpt lat="45.70035" lon="6.65304">
        <ele>1602</ele>
        <time>2021-03-30T04:46:01.271Z</time>
      </trkpt>
      <trkpt lat="45.70037" lon="6.65277">
        <ele>1602</ele>
        <time>2021-03-30T04:46:08.404Z</time>
      </trkpt>
      <trkpt lat="45.70026" lon="6.65195">
        <ele>1598</ele>
        <time>2021-03-30T04:46:16.107Z</time>
      </trkpt>
      <trkpt lat="45.70029" lon="6.65134">
        <ele>1602</ele>
        <time>2021-03-30T04:46:55.454Z</time>
      </trkpt>
      <trkpt lat="45.70028" lon="6.65112">
        <ele>1603</ele>
        <time>2021-03-30T04:47:06.682Z</time>
      </trkpt>
      <trkpt lat="45.70021" lon="6.65075">
        <ele>1602</ele>
        <time>2021-03-30T04:47:10.847Z</time>
      </trkpt>
      <trkpt lat="45.70021" lon="6.65042">
        <ele>1602</ele>
        <time>2021-03-30T04:47:19.517Z</time>
      </trkpt>
      <trkpt lat="45.70023" lon="6.65031">
        <ele>1602</ele>
        <time>2021-03-30T04:47:22.503Z</time>
      </trkpt>
      <trkpt lat="45.70033" lon="6.65012">
        <ele>1604</ele>
        <time>2021-03-30T04:47:42.782Z</time>
      </trkpt>
      <trkpt lat="45.70083" lon="6.6497">
        <ele>1610</ele>
        <time>2021-03-30T04:48:41.493Z</time>
      </trkpt>
      <trkpt lat="45.70096" lon="6.64949">
        <ele>1612</ele>
        <time>2021-03-30T04:49:01.055Z</time>
      </trkpt>
      <trkpt lat="45.70105" lon="6.6492">
        <ele>1612</ele>
        <time>2021-03-30T04:49:09.392Z</time>
      </trkpt>
      <trkpt lat="45.70107" lon="6.64898">
        <ele>1615</ele>
        <time>2021-03-30T04:49:31.874Z</time>
      </trkpt>
      <trkpt lat="45.70105" lon="6.64869">
        <ele>1618</ele>
        <time>2021-03-30T04:50:01.404Z</time>
      </trkpt>
      <trkpt lat="45.70102" lon="6.64853">
        <ele>1619</ele>
        <time>2021-03-30T04:50:11.400Z</time>
      </trkpt>
      <trkpt lat="45.70091" lon="6.64828">
        <ele>1618</ele>
        <time>2021-03-30T04:50:14.297Z</time>
      </trkpt>
      <trkpt lat="45.70051" lon="6.64775">
        <ele>1611</ele>
        <time>2021-03-30T04:50:21.496Z</time>
      </trkpt>
      <trkpt lat="45.70036" lon="6.64749">
        <ele>1610</ele>
        <time>2021-03-30T04:50:24.986Z</time>
      </trkpt>
      <trkpt lat="45.69982" lon="6.64613">
        <ele>1600</ele>
        <time>2021-03-30T04:50:39.419Z</time>
      </trkpt>
      <trkpt lat="45.69976" lon="6.64581">
        <ele>1598</ele>
        <time>2021-03-30T04:50:42.476Z</time>
      </trkpt>
      <trkpt lat="45.69979" lon="6.64561">
        <ele>1597</ele>
        <time>2021-03-30T04:50:44.363Z</time>
      </trkpt>
      <trkpt lat="45.69986" lon="6.64547">
        <ele>1598</ele>
        <time>2021-03-30T04:50:54.468Z</time>
      </trkpt>
      <trkpt lat="45.69996" lon="6.64535">
        <ele>1601</ele>
        <time>2021-03-30T04:51:13.399Z</time>
      </trkpt>
      <trkpt lat="45.70043" lon="6.64502">
        <ele>1608</ele>
        <time>2021-03-30T04:52:29.351Z</time>
      </trkpt>
      <trkpt lat="45.70059" lon="6.64482">
        <ele>1609</ele>
        <time>2021-03-30T04:52:43.059Z</time>
      </trkpt>
      <trkpt lat="45.70068" lon="6.64462">
        <ele>1610</ele>
        <time>2021-03-30T04:52:54.770Z</time>
      </trkpt>
      <trkpt lat="45.70075" lon="6.64432">
        <ele>1611</ele>
        <time>2021-03-30T04:53:08.863Z</time>
      </trkpt>
      <trkpt lat="45.70076" lon="6.64419">
        <ele>1611</ele>
        <time>2021-03-30T04:53:12.299Z</time>
      </trkpt>
      <trkpt lat="45.70072" lon="6.64394">
        <ele>1611</ele>
        <time>2021-03-30T04:53:19.038Z</time>
      </trkpt>
      <trkpt lat="45.70065" lon="6.64369">
        <ele>1611</ele>
        <time>2021-03-30T04:53:26.114Z</time>
      </trkpt>
      <trkpt lat="45.70045" lon="6.64328">
        <ele>1606</ele>
        <time>2021-03-30T04:53:30.727Z</time>
      </trkpt>
      <trkpt lat="45.70032" lon="6.6425">
        <ele>1609</ele>
        <time>2021-03-30T04:54:08.447Z</time>
      </trkpt>
      <trkpt lat="45.70018" lon="6.64207">
        <ele>1613</ele>
        <time>2021-03-30T04:54:49.060Z</time>
      </trkpt>
      <trkpt lat="45.69983" lon="6.64119">
        <ele>1619</ele>
        <time>2021-03-30T04:55:49.338Z</time>
      </trkpt>
      <trkpt lat="45.69938" lon="6.64033">
        <ele>1622</ele>
        <time>2021-03-30T04:56:33.878Z</time>
      </trkpt>
      <trkpt lat="45.698" lon="6.63848">
        <ele>1625</ele>
        <time>2021-03-30T04:57:57.087Z</time>
      </trkpt>
      <trkpt lat="45.69789" lon="6.63838">
        <ele>1624</ele>
        <time>2021-03-30T04:57:58.808Z</time>
      </trkpt>
      <trkpt lat="45.69717" lon="6.63792">
        <ele>1611</ele>
        <time>2021-03-30T04:58:09.223Z</time>
      </trkpt>
      <trkpt lat="45.69691" lon="6.63765">
        <ele>1611</ele>
        <time>2021-03-30T04:58:21.305Z</time>
      </trkpt>
      <trkpt lat="45.6967" lon="6.63733">
        <ele>1613</ele>
        <time>2021-03-30T04:58:43.711Z</time>
      </trkpt>
      <trkpt lat="45.6964" lon="6.63671">
        <ele>1622</ele>
        <time>2021-03-30T05:00:00.147Z</time>
      </trkpt>
      <trkpt lat="45.69624" lon="6.63653">
        <ele>1619</ele>
        <time>2021-03-30T05:00:02.835Z</time>
      </trkpt>
      <trkpt lat="45.69589" lon="6.63624">
        <ele>1611</ele>
        <time>2021-03-30T05:00:08.177Z</time>
      </trkpt>
      <trkpt lat="45.69581" lon="6.63614">
        <ele>1611</ele>
        <time>2021-03-30T05:00:12.172Z</time>
      </trkpt>
      <trkpt lat="45.69524" lon="6.63518">
        <ele>1617</ele>
        <time>2021-03-30T05:01:17.884Z</time>
      </trkpt>
      <trkpt lat="45.6951" lon="6.63487">
        <ele>1616</ele>
        <time>2021-03-30T05:01:21.841Z</time>
      </trkpt>
      <trkpt lat="45.69498" lon="6.63444">
        <ele>1615</ele>
        <time>2021-03-30T05:01:27.209Z</time>
      </trkpt>
      <trkpt lat="45.69491" lon="6.63402">
        <ele>1614</ele>
        <time>2021-03-30T05:01:32.101Z</time>
      </trkpt>
      <trkpt lat="45.6949" lon="6.63363">
        <ele>1614</ele>
        <time>2021-03-30T05:01:42.355Z</time>
      </trkpt>
      <trkpt lat="45.69493" lon="6.63346">
        <ele>1614</ele>
        <time>2021-03-30T05:01:46.962Z</time>
      </trkpt>
      <trkpt lat="45.69501" lon="6.63322">
        <ele>1615</ele>
        <time>2021-03-30T05:01:59.495Z</time>
      </trkpt>
      <trkpt lat="45.69507" lon="6.63313">
        <ele>1615</ele>
        <time>2021-03-30T05:02:02.764Z</time>
      </trkpt>
      <trkpt lat="45.69521" lon="6.63302">
        <ele>1616</ele>
        <time>2021-03-30T05:02:14.215Z</time>
      </trkpt>
      <trkpt lat="45.69539" lon="6.633">
        <ele>1616</ele>
        <time>2021-03-30T05:02:21.006Z</time>
      </trkpt>
      <trkpt lat="45.69547" lon="6.63302">
        <ele>1616</ele>
        <time>2021-03-30T05:02:24.061Z</time>
      </trkpt>
      <trkpt lat="45.69565" lon="6.63311">
        <ele>1616</ele>
        <time>2021-03-30T05:02:31.233Z</time>
      </trkpt>
      <trkpt lat="45.69597" lon="6.63338">
        <ele>1614</ele>
        <time>2021-03-30T05:02:36.212Z</time>
      </trkpt>
      <trkpt lat="45.69646" lon="6.63354">
        <ele>1610</ele>
        <time>2021-03-30T05:02:42.850Z</time>
      </trkpt>
      <trkpt lat="45.69684" lon="6.63376">
        <ele>1609</ele>
        <time>2021-03-30T05:02:50.149Z</time>
      </trkpt>
      <trkpt lat="45.69732" lon="6.6339">
        <ele>1605</ele>
        <time>2021-03-30T05:02:56.619Z</time>
      </trkpt>
      <trkpt lat="45.69789" lon="6.63382">
        <ele>1592</ele>
        <time>2021-03-30T05:03:04.185Z</time>
      </trkpt>
      <trkpt lat="45.69797" lon="6.63387">
        <ele>1592</ele>
        <time>2021-03-30T05:03:07.468Z</time>
      </trkpt>
      <trkpt lat="45.69822" lon="6.63412">
        <ele>1595</ele>
        <time>2021-03-30T05:03:36.835Z</time>
      </trkpt>
      <trkpt lat="45.69831" lon="6.63417">
        <ele>1595</ele>
        <time>2021-03-30T05:03:40.466Z</time>
      </trkpt>
      <trkpt lat="45.6988" lon="6.63421">
        <ele>1592</ele>
        <time>2021-03-30T05:03:46.666Z</time>
      </trkpt>
      <trkpt lat="45.69908" lon="6.63416">
        <ele>1588</ele>
        <time>2021-03-30T05:03:50.393Z</time>
      </trkpt>
      <trkpt lat="45.69947" lon="6.63389">
        <ele>1580</ele>
        <time>2021-03-30T05:03:56.115Z</time>
      </trkpt>
      <trkpt lat="45.69962" lon="6.63384">
        <ele>1578</ele>
        <time>2021-03-30T05:03:58.149Z</time>
      </trkpt>
      <trkpt lat="45.7001" lon="6.6339">
        <ele>1577</ele>
        <time>2021-03-30T05:04:07.092Z</time>
      </trkpt>
      <trkpt lat="45.70072" lon="6.63387">
        <ele>1570</ele>
        <time>2021-03-30T05:04:15.286Z</time>
      </trkpt>
      <trkpt lat="45.70175" lon="6.63378">
        <ele>1558</ele>
        <time>2021-03-30T05:04:28.917Z</time>
      </trkpt>
      <trkpt lat="45.70256" lon="6.63362">
        <ele>1545</ele>
        <time>2021-03-30T05:04:39.718Z</time>
      </trkpt>
      <trkpt lat="45.70308" lon="6.63345">
        <ele>1538</ele>
        <time>2021-03-30T05:04:46.763Z</time>
      </trkpt>
      <trkpt lat="45.70322" lon="6.63345">
        <ele>1538</ele>
        <time>2021-03-30T05:04:52.030Z</time>
      </trkpt>
      <trkpt lat="45.70369" lon="6.6336">
        <ele>1541</ele>
        <time>2021-03-30T05:05:26.479Z</time>
      </trkpt>
      <trkpt lat="45.70381" lon="6.63359">
        <ele>1539</ele>
        <time>2021-03-30T05:05:28.067Z</time>
      </trkpt>
      <trkpt lat="45.70405" lon="6.63348">
        <ele>1533</ele>
        <time>2021-03-30T05:05:31.396Z</time>
      </trkpt>
      <trkpt lat="45.70417" lon="6.63347">
        <ele>1532</ele>
        <time>2021-03-30T05:05:32.983Z</time>
      </trkpt>
      <trkpt lat="45.70448" lon="6.63358">
        <ele>1533</ele>
        <time>2021-03-30T05:05:49.828Z</time>
      </trkpt>
      <trkpt lat="45.70524" lon="6.63358">
        <ele>1526</ele>
        <time>2021-03-30T05:05:59.867Z</time>
      </trkpt>
      <trkpt lat="45.70589" lon="6.63341">
        <ele>1513</ele>
        <time>2021-03-30T05:06:08.595Z</time>
      </trkpt>
      <trkpt lat="45.70619" lon="6.63339">
        <ele>1514</ele>
        <time>2021-03-30T05:06:24.850Z</time>
      </trkpt>
      <trkpt lat="45.70653" lon="6.63321">
        <ele>1508</ele>
        <time>2021-03-30T05:06:29.639Z</time>
      </trkpt>
      <trkpt lat="45.7069" lon="6.63316">
        <ele>1500</ele>
        <time>2021-03-30T05:06:34.548Z</time>
      </trkpt>
      <trkpt lat="45.70697" lon="6.63312">
        <ele>1497</ele>
        <time>2021-03-30T05:06:35.543Z</time>
      </trkpt>
      <trkpt lat="45.70698" lon="6.63297">
        <ele>1489</ele>
        <time>2021-03-30T05:06:36.933Z</time>
      </trkpt>
      <trkpt lat="45.70695" lon="6.63291">
        <ele>1486</ele>
        <time>2021-03-30T05:06:37.614Z</time>
      </trkpt>
      <trkpt lat="45.70689" lon="6.63288">
        <ele>1487</ele>
        <time>2021-03-30T05:06:46.835Z</time>
      </trkpt>
      <trkpt lat="45.70621" lon="6.63313">
        <ele>1502</ele>
        <time>2021-03-30T05:08:28.699Z</time>
      </trkpt>
      <trkpt lat="45.70536" lon="6.63302">
        <ele>1499</ele>
        <time>2021-03-30T05:08:42.268Z</time>
      </trkpt>
      <trkpt lat="45.70515" lon="6.63295">
        <ele>1498</ele>
        <time>2021-03-30T05:08:45.351Z</time>
      </trkpt>
      <trkpt lat="45.70494" lon="6.63283">
        <ele>1495</ele>
        <time>2021-03-30T05:08:48.338Z</time>
      </trkpt>
      <trkpt lat="45.7047" lon="6.6326">
        <ele>1487</ele>
        <time>2021-03-30T05:08:52.152Z</time>
      </trkpt>
      <trkpt lat="45.70455" lon="6.63249">
        <ele>1484</ele>
        <time>2021-03-30T05:08:54.378Z</time>
      </trkpt>
      <trkpt lat="45.70443" lon="6.63245">
        <ele>1484</ele>
        <time>2021-03-30T05:08:59.013Z</time>
      </trkpt>
      <trkpt lat="45.7041" lon="6.63241">
        <ele>1485</ele>
        <time>2021-03-30T05:09:16.234Z</time>
      </trkpt>
      <trkpt lat="45.70381" lon="6.63217">
        <ele>1475</ele>
        <time>2021-03-30T05:09:20.658Z</time>
      </trkpt>
      <trkpt lat="45.70369" lon="6.63212">
        <ele>1472</ele>
        <time>2021-03-30T05:09:22.309Z</time>
      </trkpt>
      <trkpt lat="45.70348" lon="6.63213">
        <ele>1474</ele>
        <time>2021-03-30T05:09:41.942Z</time>
      </trkpt>
      <trkpt lat="45.70318" lon="6.63221">
        <ele>1478</ele>
        <time>2021-03-30T05:10:24.762Z</time>
      </trkpt>
      <trkpt lat="45.70287" lon="6.63225">
        <ele>1479</ele>
        <time>2021-03-30T05:10:41.353Z</time>
      </trkpt>
      <trkpt lat="45.70227" lon="6.6321">
        <ele>1471</ele>
        <time>2021-03-30T05:10:49.398Z</time>
      </trkpt>
      <trkpt lat="45.70163" lon="6.63201">
        <ele>1472</ele>
        <time>2021-03-30T05:11:17.607Z</time>
      </trkpt>
      <trkpt lat="45.70092" lon="6.63163">
        <ele>1466</ele>
        <time>2021-03-30T05:11:27.619Z</time>
      </trkpt>
      <trkpt lat="45.70057" lon="6.63125">
        <ele>1461</ele>
        <time>2021-03-30T05:11:33.421Z</time>
      </trkpt>
      <trkpt lat="45.70025" lon="6.63099">
        <ele>1461</ele>
        <time>2021-03-30T05:11:47.261Z</time>
      </trkpt>
      <trkpt lat="45.70018" lon="6.6309">
        <ele>1460</ele>
        <time>2021-03-30T05:11:48.504Z</time>
      </trkpt>
      <trkpt lat="45.70015" lon="6.63078">
        <ele>1456</ele>
        <time>2021-03-30T05:11:49.680Z</time>
      </trkpt>
      <trkpt lat="45.70017" lon="6.63069">
        <ele>1453</ele>
        <time>2021-03-30T05:11:50.551Z</time>
      </trkpt>
      <trkpt lat="45.70023" lon="6.63067">
        <ele>1450</ele>
        <time>2021-03-30T05:11:51.365Z</time>
      </trkpt>
      <trkpt lat="45.70047" lon="6.63086">
        <ele>1449</ele>
        <time>2021-03-30T05:11:55.669Z</time>
      </trkpt>
      <trkpt lat="45.70063" lon="6.63095">
        <ele>1448</ele>
        <time>2021-03-30T05:11:57.892Z</time>
      </trkpt>
      <trkpt lat="45.70107" lon="6.63108">
        <ele>1441</ele>
        <time>2021-03-30T05:12:03.827Z</time>
      </trkpt>
      <trkpt lat="45.70179" lon="6.63143">
        <ele>1441</ele>
        <time>2021-03-30T05:12:32.429Z</time>
      </trkpt>
      <trkpt lat="45.70191" lon="6.63144">
        <ele>1440</ele>
        <time>2021-03-30T05:12:34.017Z</time>
      </trkpt>
      <trkpt lat="45.70234" lon="6.63128">
        <ele>1429</ele>
        <time>2021-03-30T05:12:39.886Z</time>
      </trkpt>
      <trkpt lat="45.70288" lon="6.63128">
        <ele>1428</ele>
        <time>2021-03-30T05:12:50.175Z</time>
      </trkpt>
      <trkpt lat="45.70336" lon="6.63109">
        <ele>1417</ele>
        <time>2021-03-30T05:12:56.753Z</time>
      </trkpt>
      <trkpt lat="45.70388" lon="6.63095">
        <ele>1411</ele>
        <time>2021-03-30T05:13:03.743Z</time>
      </trkpt>
      <trkpt lat="45.70411" lon="6.63091">
        <ele>1410</ele>
        <time>2021-03-30T05:13:07.154Z</time>
      </trkpt>
      <trkpt lat="45.70455" lon="6.63089">
        <ele>1405</ele>
        <time>2021-03-30T05:13:12.969Z</time>
      </trkpt>
      <trkpt lat="45.70471" lon="6.63083">
        <ele>1400</ele>
        <time>2021-03-30T05:13:15.154Z</time>
      </trkpt>
      <trkpt lat="45.70484" lon="6.63073">
        <ele>1394</ele>
        <time>2021-03-30T05:13:17.103Z</time>
      </trkpt>
      <trkpt lat="45.705" lon="6.63067">
        <ele>1391</ele>
        <time>2021-03-30T05:13:19.288Z</time>
      </trkpt>
      <trkpt lat="45.70516" lon="6.63072">
        <ele>1392</ele>
        <time>2021-03-30T05:13:30.901Z</time>
      </trkpt>
      <trkpt lat="45.70535" lon="6.6309">
        <ele>1398</ele>
        <time>2021-03-30T05:14:03.956Z</time>
      </trkpt>
      <trkpt lat="45.70544" lon="6.63094">
        <ele>1400</ele>
        <time>2021-03-30T05:14:17.629Z</time>
      </trkpt>
      <trkpt lat="45.70565" lon="6.63096">
        <ele>1399</ele>
        <time>2021-03-30T05:14:20.609Z</time>
      </trkpt>
      <trkpt lat="45.70592" lon="6.63086">
        <ele>1392</ele>
        <time>2021-03-30T05:14:24.292Z</time>
      </trkpt>
      <trkpt lat="45.70601" lon="6.63086">
        <ele>1391</ele>
        <time>2021-03-30T05:14:25.481Z</time>
      </trkpt>
      <trkpt lat="45.70738" lon="6.63117">
        <ele>1384</ele>
        <time>2021-03-30T05:14:44.614Z</time>
      </trkpt>
      <trkpt lat="45.70743" lon="6.63116">
        <ele>1383</ele>
        <time>2021-03-30T05:14:45.281Z</time>
      </trkpt>
      <trkpt lat="45.70748" lon="6.6311">
        <ele>1379</ele>
        <time>2021-03-30T05:14:46.143Z</time>
      </trkpt>
      <trkpt lat="45.70751" lon="6.63098">
        <ele>1375</ele>
        <time>2021-03-30T05:14:47.318Z</time>
      </trkpt>
      <trkpt lat="45.70748" lon="6.63089">
        <ele>1372</ele>
        <time>2021-03-30T05:14:48.238Z</time>
      </trkpt>
      <trkpt lat="45.70743" lon="6.63083">
        <ele>1371</ele>
        <time>2021-03-30T05:14:49.100Z</time>
      </trkpt>
      <trkpt lat="45.70736" lon="6.6308">
        <ele>1371</ele>
        <time>2021-03-30T05:14:51.849Z</time>
      </trkpt>
      <trkpt lat="45.7071" lon="6.6308">
        <ele>1375</ele>
        <time>2021-03-30T05:15:29.573Z</time>
      </trkpt>
      <trkpt lat="45.70692" lon="6.63075">
        <ele>1376</ele>
        <time>2021-03-30T05:15:42.003Z</time>
      </trkpt>
      <trkpt lat="45.70558" lon="6.63001">
        <ele>1360</ele>
        <time>2021-03-30T05:16:00.974Z</time>
      </trkpt>
      <trkpt lat="45.70538" lon="6.62985">
        <ele>1356</ele>
        <time>2021-03-30T05:16:04.000Z</time>
      </trkpt>
      <trkpt lat="45.70519" lon="6.62961">
        <ele>1350</ele>
        <time>2021-03-30T05:16:07.347Z</time>
      </trkpt>
      <trkpt lat="45.70509" lon="6.62952">
        <ele>1348</ele>
        <time>2021-03-30T05:16:08.907Z</time>
      </trkpt>
      <trkpt lat="45.70497" lon="6.62947">
        <ele>1348</ele>
        <time>2021-03-30T05:16:13.608Z</time>
      </trkpt>
      <trkpt lat="45.70425" lon="6.62939">
        <ele>1346</ele>
        <time>2021-03-30T05:16:26.011Z</time>
      </trkpt>
      <trkpt lat="45.70365" lon="6.62949">
        <ele>1345</ele>
        <time>2021-03-30T05:16:37.797Z</time>
      </trkpt>
      <trkpt lat="45.7031" lon="6.62951">
        <ele>1346</ele>
        <time>2021-03-30T05:17:02.627Z</time>
      </trkpt>
      <trkpt lat="45.70285" lon="6.62945">
        <ele>1349</ele>
        <time>2021-03-30T05:17:32.823Z</time>
      </trkpt>
      <trkpt lat="45.70269" lon="6.62936">
        <ele>1348</ele>
        <time>2021-03-30T05:17:35.046Z</time>
      </trkpt>
      <trkpt lat="45.7019" lon="6.62874">
        <ele>1335</ele>
        <time>2021-03-30T05:17:46.946Z</time>
      </trkpt>
      <trkpt lat="45.70159" lon="6.62846">
        <ele>1328</ele>
        <time>2021-03-30T05:17:51.787Z</time>
      </trkpt>
      <trkpt lat="45.70111" lon="6.62827">
        <ele>1333</ele>
        <time>2021-03-30T05:18:40.694Z</time>
      </trkpt>
      <trkpt lat="45.70101" lon="6.62815">
        <ele>1332</ele>
        <time>2021-03-30T05:18:42.418Z</time>
      </trkpt>
      <trkpt lat="45.70064" lon="6.62751">
        <ele>1322</ele>
        <time>2021-03-30T05:18:50.083Z</time>
      </trkpt>
      <trkpt lat="45.69982" lon="6.62659">
        <ele>1317</ele>
        <time>2021-03-30T05:19:04.767Z</time>
      </trkpt>
      <trkpt lat="45.69953" lon="6.62617">
        <ele>1323</ele>
        <time>2021-03-30T05:20:04.616Z</time>
      </trkpt>
      <trkpt lat="45.69938" lon="6.6258">
        <ele>1325</ele>
        <time>2021-03-30T05:20:26.723Z</time>
      </trkpt>
      <trkpt lat="45.69907" lon="6.62422">
        <ele>1306</ele>
        <time>2021-03-30T05:20:41.863Z</time>
      </trkpt>
      <trkpt lat="45.69898" lon="6.62352">
        <ele>1289</ele>
        <time>2021-03-30T05:20:48.430Z</time>
      </trkpt>
      <trkpt lat="45.69845" lon="6.62199">
        <ele>1293</ele>
        <time>2021-03-30T05:21:53.193Z</time>
      </trkpt>
      <trkpt lat="45.69841" lon="6.6217">
        <ele>1285</ele>
        <time>2021-03-30T05:21:55.920Z</time>
      </trkpt>
      <trkpt lat="45.69846" lon="6.62117">
        <ele>1266</ele>
        <time>2021-03-30T05:22:00.854Z</time>
      </trkpt>
      <trkpt lat="45.69844" lon="6.62103">
        <ele>1263</ele>
        <time>2021-03-30T05:22:02.172Z</time>
      </trkpt>
      <trkpt lat="45.69836" lon="6.62089">
        <ele>1264</ele>
        <time>2021-03-30T05:22:12.444Z</time>
      </trkpt>
      <trkpt lat="45.69808" lon="6.62063">
        <ele>1273</ele>
        <time>2021-03-30T05:23:00.866Z</time>
      </trkpt>
      <trkpt lat="45.69794" lon="6.62039">
        <ele>1273</ele>
        <time>2021-03-30T05:23:09.082Z</time>
      </trkpt>
      <trkpt lat="45.69758" lon="6.61953">
        <ele>1265</ele>
        <time>2021-03-30T05:23:18.332Z</time>
      </trkpt>
      <trkpt lat="45.69728" lon="6.61899">
        <ele>1269</ele>
        <time>2021-03-30T05:23:58.776Z</time>
      </trkpt>
      <trkpt lat="45.69723" lon="6.61884">
        <ele>1270</ele>
        <time>2021-03-30T05:24:08.781Z</time>
      </trkpt>
      <trkpt lat="45.69683" lon="6.61689">
        <ele>1270</ele>
        <time>2021-03-30T05:25:02.178Z</time>
      </trkpt>
      <trkpt lat="45.69686" lon="6.61671">
        <ele>1266</ele>
        <time>2021-03-30T05:25:03.885Z</time>
      </trkpt>
      <trkpt lat="45.69692" lon="6.61668">
        <ele>1263</ele>
        <time>2021-03-30T05:25:04.725Z</time>
      </trkpt>
      <trkpt lat="45.69699" lon="6.61672">
        <ele>1260</ele>
        <time>2021-03-30T05:25:05.720Z</time>
      </trkpt>
      <trkpt lat="45.69747" lon="6.61791">
        <ele>1241</ele>
        <time>2021-03-30T05:25:18.399Z</time>
      </trkpt>
      <trkpt lat="45.69762" lon="6.61851">
        <ele>1240</ele>
        <time>2021-03-30T05:25:26.498Z</time>
      </trkpt>
      <trkpt lat="45.69772" lon="6.61879">
        <ele>1240</ele>
        <time>2021-03-30T05:25:34.761Z</time>
      </trkpt>
      <trkpt lat="45.69823" lon="6.61959">
        <ele>1231</ele>
        <time>2021-03-30T05:25:44.754Z</time>
      </trkpt>
      <trkpt lat="45.69845" lon="6.62003">
        <ele>1230</ele>
        <time>2021-03-30T05:25:51.332Z</time>
      </trkpt>
      <trkpt lat="45.69855" lon="6.62011">
        <ele>1228</ele>
        <time>2021-03-30T05:25:52.845Z</time>
      </trkpt>
      <trkpt lat="45.69863" lon="6.62003">
        <ele>1221</ele>
        <time>2021-03-30T05:25:54.134Z</time>
      </trkpt>
      <trkpt lat="45.69863" lon="6.61997">
        <ele>1219</ele>
        <time>2021-03-30T05:25:54.687Z</time>
      </trkpt>
      <trkpt lat="45.69859" lon="6.61987">
        <ele>1219</ele>
        <time>2021-03-30T05:25:57.715Z</time>
      </trkpt>
      <trkpt lat="45.69836" lon="6.61954">
        <ele>1222</ele>
        <time>2021-03-30T05:26:27.300Z</time>
      </trkpt>
      <trkpt lat="45.69824" lon="6.61932">
        <ele>1223</ele>
        <time>2021-03-30T05:26:40.233Z</time>
      </trkpt>
      <trkpt lat="45.69808" lon="6.6188">
        <ele>1222</ele>
        <time>2021-03-30T05:26:47.237Z</time>
      </trkpt>
      <trkpt lat="45.69794" lon="6.61734">
        <ele>1214</ele>
        <time>2021-03-30T05:27:00.833Z</time>
      </trkpt>
      <trkpt lat="45.69808" lon="6.61644">
        <ele>1201</ele>
        <time>2021-03-30T05:27:09.340Z</time>
      </trkpt>
      <trkpt lat="45.69809" lon="6.61623">
        <ele>1197</ele>
        <time>2021-03-30T05:27:11.282Z</time>
      </trkpt>
      <trkpt lat="45.69806" lon="6.61608">
        <ele>1197</ele>
        <time>2021-03-30T05:27:15.381Z</time>
      </trkpt>
      <trkpt lat="45.69764" lon="6.61525">
        <ele>1194</ele>
        <time>2021-03-30T05:27:26.045Z</time>
      </trkpt>
      <trkpt lat="45.69741" lon="6.61496">
        <ele>1191</ele>
        <time>2021-03-30T05:27:30.093Z</time>
      </trkpt>
      <trkpt lat="45.69692" lon="6.61443">
        <ele>1193</ele>
        <time>2021-03-30T05:28:03.015Z</time>
      </trkpt>
      <trkpt lat="45.69689" lon="6.61435">
        <ele>1192</ele>
        <time>2021-03-30T05:28:03.853Z</time>
      </trkpt>
      <trkpt lat="45.6969" lon="6.61426">
        <ele>1189</ele>
        <time>2021-03-30T05:28:04.693Z</time>
      </trkpt>
      <trkpt lat="45.69698" lon="6.61417">
        <ele>1184</ele>
        <time>2021-03-30T05:28:06.037Z</time>
      </trkpt>
      <trkpt lat="45.69705" lon="6.61417">
        <ele>1183</ele>
        <time>2021-03-30T05:28:06.962Z</time>
      </trkpt>
      <trkpt lat="45.69722" lon="6.61436">
        <ele>1184</ele>
        <time>2021-03-30T05:28:20.818Z</time>
      </trkpt>
      <trkpt lat="45.6974" lon="6.6145">
        <ele>1182</ele>
        <time>2021-03-30T05:28:23.523Z</time>
      </trkpt>
      <trkpt lat="45.69763" lon="6.61457">
        <ele>1179</ele>
        <time>2021-03-30T05:28:26.629Z</time>
      </trkpt>
      <trkpt lat="45.69821" lon="6.61469">
        <ele>1170</ele>
        <time>2021-03-30T05:28:34.370Z</time>
      </trkpt>
      <trkpt lat="45.69838" lon="6.61486">
        <ele>1167</ele>
        <time>2021-03-30T05:28:37.109Z</time>
      </trkpt>
      <trkpt lat="45.69849" lon="6.61507">
        <ele>1167</ele>
        <time>2021-03-30T05:28:44.006Z</time>
      </trkpt>
      <trkpt lat="45.69895" lon="6.61679">
        <ele>1165</ele>
        <time>2021-03-30T05:29:09.418Z</time>
      </trkpt>
      <trkpt lat="45.69922" lon="6.61766">
        <ele>1160</ele>
        <time>2021-03-30T05:29:18.201Z</time>
      </trkpt>
      <trkpt lat="45.69935" lon="6.6179">
        <ele>1159</ele>
        <time>2021-03-30T05:29:21.214Z</time>
      </trkpt>
      <trkpt lat="45.69972" lon="6.61841">
        <ele>1154</ele>
        <time>2021-03-30T05:29:27.998Z</time>
      </trkpt>
      <trkpt lat="45.6999" lon="6.61854">
        <ele>1152</ele>
        <time>2021-03-30T05:29:30.661Z</time>
      </trkpt>
      <trkpt lat="45.70068" lon="6.619">
        <ele>1135</ele>
        <time>2021-03-30T05:29:41.804Z</time>
      </trkpt>
      <trkpt lat="45.70078" lon="6.61911">
        <ele>1135</ele>
        <time>2021-03-30T05:29:46.548Z</time>
      </trkpt>
      <trkpt lat="45.70091" lon="6.61956">
        <ele>1135</ele>
        <time>2021-03-30T05:29:59.342Z</time>
      </trkpt>
      <trkpt lat="45.70089" lon="6.62">
        <ele>1140</ele>
        <time>2021-03-30T05:30:44.023Z</time>
      </trkpt>
      <trkpt lat="45.70092" lon="6.62025">
        <ele>1138</ele>
        <time>2021-03-30T05:30:46.363Z</time>
      </trkpt>
      <trkpt lat="45.70104" lon="6.62048">
        <ele>1134</ele>
        <time>2021-03-30T05:30:49.012Z</time>
      </trkpt>
      <trkpt lat="45.7011" lon="6.62067">
        <ele>1132</ele>
        <time>2021-03-30T05:30:50.935Z</time>
      </trkpt>
      <trkpt lat="45.70117" lon="6.62122">
        <ele>1132</ele>
        <time>2021-03-30T05:31:05.623Z</time>
      </trkpt>
      <trkpt lat="45.70122" lon="6.62144">
        <ele>1131</ele>
        <time>2021-03-30T05:31:07.651Z</time>
      </trkpt>
      <trkpt lat="45.70143" lon="6.62188">
        <ele>1124</ele>
        <time>2021-03-30T05:31:12.568Z</time>
      </trkpt>
      <trkpt lat="45.70218" lon="6.62322">
        <ele>1109</ele>
        <time>2021-03-30T05:31:28.409Z</time>
      </trkpt>
      <trkpt lat="45.70229" lon="6.62334">
        <ele>1107</ele>
        <time>2021-03-30T05:31:30.236Z</time>
      </trkpt>
      <trkpt lat="45.70263" lon="6.6236">
        <ele>1103</ele>
        <time>2021-03-30T05:31:35.328Z</time>
      </trkpt>
      <trkpt lat="45.70367" lon="6.62426">
        <ele>1093</ele>
        <time>2021-03-30T05:31:50.354Z</time>
      </trkpt>
      <trkpt lat="45.70388" lon="6.62435">
        <ele>1091</ele>
        <time>2021-03-30T05:31:53.249Z</time>
      </trkpt>
      <trkpt lat="45.70424" lon="6.62446">
        <ele>1087</ele>
        <time>2021-03-30T05:31:58.112Z</time>
      </trkpt>
      <trkpt lat="45.70503" lon="6.62465">
        <ele>1084</ele>
        <time>2021-03-30T05:32:10.563Z</time>
      </trkpt>
      <trkpt lat="45.70517" lon="6.62466">
        <ele>1085</ele>
        <time>2021-03-30T05:32:21.281Z</time>
      </trkpt>
      <trkpt lat="45.70521" lon="6.62464">
        <ele>1084</ele>
        <time>2021-03-30T05:32:21.841Z</time>
      </trkpt>
      <trkpt lat="45.70526" lon="6.62455">
        <ele>1081</ele>
        <time>2021-03-30T05:32:22.902Z</time>
      </trkpt>
      <trkpt lat="45.70525" lon="6.62443">
        <ele>1076</ele>
        <time>2021-03-30T05:32:24.017Z</time>
      </trkpt>
      <trkpt lat="45.70522" lon="6.62438">
        <ele>1073</ele>
        <time>2021-03-30T05:32:24.625Z</time>
      </trkpt>
      <trkpt lat="45.70514" lon="6.62435">
        <ele>1072</ele>
        <time>2021-03-30T05:32:25.717Z</time>
      </trkpt>
      <trkpt lat="45.70488" lon="6.62435">
        <ele>1073</ele>
        <time>2021-03-30T05:32:40.817Z</time>
      </trkpt>
      <trkpt lat="45.70475" lon="6.62431">
        <ele>1073</ele>
        <time>2021-03-30T05:32:45.819Z</time>
      </trkpt>
      <trkpt lat="45.70424" lon="6.62399">
        <ele>1071</ele>
        <time>2021-03-30T05:32:54.604Z</time>
      </trkpt>
      <trkpt lat="45.70392" lon="6.62363">
        <ele>1069</ele>
        <time>2021-03-30T05:33:00.283Z</time>
      </trkpt>
      <trkpt lat="45.70377" lon="6.62333">
        <ele>1065</ele>
        <time>2021-03-30T05:33:03.687Z</time>
      </trkpt>
      <trkpt lat="45.70363" lon="6.62285">
        <ele>1063</ele>
        <time>2021-03-30T05:33:08.507Z</time>
      </trkpt>
      <trkpt lat="45.70363" lon="6.6226">
        <ele>1060</ele>
        <time>2021-03-30T05:33:10.813Z</time>
      </trkpt>
      <trkpt lat="45.70374" lon="6.62189">
        <ele>1051</ele>
        <time>2021-03-30T05:33:17.522Z</time>
      </trkpt>
      <trkpt lat="45.70375" lon="6.62161">
        <ele>1048</ele>
        <time>2021-03-30T05:33:20.108Z</time>
      </trkpt>
      <trkpt lat="45.70371" lon="6.62147">
        <ele>1048</ele>
        <time>2021-03-30T05:33:24.082Z</time>
      </trkpt>
      <trkpt lat="45.70348" lon="6.62109">
        <ele>1048</ele>
        <time>2021-03-30T05:33:37.292Z</time>
      </trkpt>
      <trkpt lat="45.70346" lon="6.62095">
        <ele>1047</ele>
        <time>2021-03-30T05:33:38.611Z</time>
      </trkpt>
      <trkpt lat="45.70354" lon="6.62065">
        <ele>1049</ele>
        <time>2021-03-30T05:33:58.456Z</time>
      </trkpt>
      <trkpt lat="45.70361" lon="6.62057">
        <ele>1051</ele>
        <time>2021-03-30T05:34:11.451Z</time>
      </trkpt>
      <trkpt lat="45.70498" lon="6.61998">
        <ele>1057</ele>
        <time>2021-03-30T05:35:38.837Z</time>
      </trkpt>
      <trkpt lat="45.70548" lon="6.61969">
        <ele>1054</ele>
        <time>2021-03-30T05:35:45.962Z</time>
      </trkpt>
      <trkpt lat="45.70589" lon="6.61932">
        <ele>1046</ele>
        <time>2021-03-30T05:35:52.363Z</time>
      </trkpt>
      <trkpt lat="45.70601" lon="6.6191">
        <ele>1047</ele>
        <time>2021-03-30T05:36:05.296Z</time>
      </trkpt>
      <trkpt lat="45.70612" lon="6.61877">
        <ele>1051</ele>
        <time>2021-03-30T05:36:42.347Z</time>
      </trkpt>
      <trkpt lat="45.70625" lon="6.6182">
        <ele>1055</ele>
        <time>2021-03-30T05:37:21.597Z</time>
      </trkpt>
      <trkpt lat="45.70641" lon="6.61646">
        <ele>1046</ele>
        <time>2021-03-30T05:37:37.786Z</time>
      </trkpt>
      <trkpt lat="45.70639" lon="6.61504">
        <ele>1046</ele>
        <time>2021-03-30T05:38:15.096Z</time>
      </trkpt>
      <trkpt lat="45.70643" lon="6.61469">
        <ele>1042</ele>
        <time>2021-03-30T05:38:18.368Z</time>
      </trkpt>
      <trkpt lat="45.70682" lon="6.61354">
        <ele>1030</ele>
        <time>2021-03-30T05:38:30.161Z</time>
      </trkpt>
      <trkpt lat="45.70689" lon="6.61339">
        <ele>1031</ele>
        <time>2021-03-30T05:38:40.422Z</time>
      </trkpt>
      <trkpt lat="45.70709" lon="6.61311">
        <ele>1030</ele>
        <time>2021-03-30T05:38:44.843Z</time>
      </trkpt>
      <trkpt lat="45.70711" lon="6.61303">
        <ele>1029</ele>
        <time>2021-03-30T05:38:45.627Z</time>
      </trkpt>
      <trkpt lat="45.70712" lon="6.61294">
        <ele>1029</ele>
        <time>2021-03-30T05:38:48.020Z</time>
      </trkpt>
      <trkpt lat="45.70704" lon="6.61271">
        <ele>1028</ele>
        <time>2021-03-30T05:38:50.388Z</time>
      </trkpt>
      <trkpt lat="45.70701" lon="6.61253">
        <ele>1028</ele>
        <time>2021-03-30T05:38:55.249Z</time>
      </trkpt>
      <trkpt lat="45.70713" lon="6.61223">
        <ele>1026</ele>
        <time>2021-03-30T05:38:58.438Z</time>
      </trkpt>
      <trkpt lat="45.70712" lon="6.61192">
        <ele>1025</ele>
        <time>2021-03-30T05:39:01.544Z</time>
      </trkpt>
      <trkpt lat="45.70705" lon="6.6117">
        <ele>1025</ele>
        <time>2021-03-30T05:39:07.895Z</time>
      </trkpt>
      <trkpt lat="45.70699" lon="6.61159">
        <ele>1026</ele>
        <time>2021-03-30T05:39:17.677Z</time>
      </trkpt>
      <trkpt lat="45.70679" lon="6.61133">
        <ele>1028</ele>
        <time>2021-03-30T05:39:38.766Z</time>
      </trkpt>
      <trkpt lat="45.70676" lon="6.61121">
        <ele>1028</ele>
        <time>2021-03-30T05:39:42.114Z</time>
      </trkpt>
      <trkpt lat="45.70675" lon="6.61099">
        <ele>1027</ele>
        <time>2021-03-30T05:39:44.002Z</time>
      </trkpt>
      <trkpt lat="45.70703" lon="6.60946">
        <ele>1019</ele>
        <time>2021-03-30T05:39:58.592Z</time>
      </trkpt>
      <trkpt lat="45.7073" lon="6.60898">
        <ele>1013</ele>
        <time>2021-03-30T05:40:04.277Z</time>
      </trkpt>
      <trkpt lat="45.70735" lon="6.60874">
        <ele>1011</ele>
        <time>2021-03-30T05:40:06.587Z</time>
      </trkpt>
      <trkpt lat="45.70729" lon="6.60833">
        <ele>1013</ele>
        <time>2021-03-30T05:40:28.461Z</time>
      </trkpt>
      <trkpt lat="45.7071" lon="6.60778">
        <ele>1027</ele>
        <time>2021-03-30T05:41:30.635Z</time>
      </trkpt>
      <trkpt lat="45.70699" lon="6.6073">
        <ele>1039</ele>
        <time>2021-03-30T05:42:21.822Z</time>
      </trkpt>
      <trkpt lat="45.707" lon="6.60685">
        <ele>1041</ele>
        <time>2021-03-30T05:42:44.527Z</time>
      </trkpt>
      <trkpt lat="45.70727" lon="6.60605">
        <ele>1002</ele>
        <time>2021-03-30T05:42:52.723Z</time>
      </trkpt>
      <trkpt lat="45.70735" lon="6.60531">
        <ele>989</ele>
        <time>2021-03-30T05:42:59.630Z</time>
      </trkpt>
      <trkpt lat="45.70751" lon="6.60497">
        <ele>968</ele>
        <time>2021-03-30T05:43:03.412Z</time>
      </trkpt>
      <trkpt lat="45.70743" lon="6.60448">
        <ele>971</ele>
        <time>2021-03-30T05:43:33.499Z</time>
      </trkpt>
      <trkpt lat="45.70708" lon="6.60291">
        <ele>965</ele>
        <time>2021-03-30T05:43:49.150Z</time>
      </trkpt>
      <trkpt lat="45.70657" lon="6.60095">
        <ele>948</ele>
        <time>2021-03-30T05:44:08.444Z</time>
      </trkpt>
      <trkpt lat="45.70662" lon="6.59992">
        <ele>938</ele>
        <time>2021-03-30T05:44:17.968Z</time>
      </trkpt>
      <trkpt lat="45.70707" lon="6.5973">
        <ele>910</ele>
        <time>2021-03-30T05:44:42.856Z</time>
      </trkpt>
      <trkpt lat="45.70698" lon="6.5961">
        <ele>910</ele>
        <time>2021-03-30T05:45:14.560Z</time>
      </trkpt>
      <trkpt lat="45.70712" lon="6.59369">
        <ele>894</ele>
        <time>2021-03-30T05:45:36.867Z</time>
      </trkpt>
      <trkpt lat="45.70762" lon="6.59293">
        <ele>879</ele>
        <time>2021-03-30T05:45:46.499Z</time>
      </trkpt>
      <trkpt lat="45.70792" lon="6.59191">
        <ele>879</ele>
        <time>2021-03-30T05:46:15.572Z</time>
      </trkpt>
      <trkpt lat="45.7086" lon="6.59158">
        <ele>866</ele>
        <time>2021-03-30T05:46:25.056Z</time>
      </trkpt>
      <trkpt lat="45.71013" lon="6.58932">
        <ele>869</ele>
        <time>2021-03-30T05:47:59.554Z</time>
      </trkpt>
      <trkpt lat="45.71028" lon="6.5894">
        <ele>865</ele>
        <time>2021-03-30T05:48:01.668Z</time>
      </trkpt>
      <trkpt lat="45.71022" lon="6.58969">
        <ele>862</ele>
        <time>2021-03-30T05:48:04.458Z</time>
      </trkpt>
      <trkpt lat="45.70989" lon="6.59011">
        <ele>863</ele>
        <time>2021-03-30T05:48:25.413Z</time>
      </trkpt>
      <trkpt lat="45.70998" lon="6.59024">
        <ele>857</ele>
        <time>2021-03-30T05:48:27.102Z</time>
      </trkpt>
      <trkpt lat="45.71111" lon="6.58937">
        <ele>868</ele>
        <time>2021-03-30T05:50:17.292Z</time>
      </trkpt>
      <trkpt lat="45.71139" lon="6.58753">
        <ele>864</ele>
        <time>2021-03-30T05:50:39.232Z</time>
      </trkpt>
      <trkpt lat="45.71182" lon="6.58642">
        <ele>910</ele>
        <time>2021-03-30T05:52:47.839Z</time>
      </trkpt>
      <trkpt lat="45.71199" lon="6.58414">
        <ele>955</ele>
        <time>2021-03-30T05:56:40.149Z</time>
      </trkpt>
      <trkpt lat="45.71296" lon="6.58208">
        <ele>834</ele>
        <time>2021-03-30T05:57:03.066Z</time>
      </trkpt>
      <trkpt lat="45.71322" lon="6.58049">
        <ele>817</ele>
        <time>2021-03-30T05:57:18.127Z</time>
      </trkpt>
      <trkpt lat="45.71323" lon="6.57972">
        <ele>810</ele>
        <time>2021-03-30T05:57:25.231Z</time>
      </trkpt>
      <trkpt lat="45.71359" lon="6.57911">
        <ele>800</ele>
        <time>2021-03-30T05:57:32.597Z</time>
      </trkpt>
      <trkpt lat="45.71411" lon="6.57847">
        <ele>788</ele>
        <time>2021-03-30T05:57:41.654Z</time>
      </trkpt>
      <trkpt lat="45.71461" lon="6.57697">
        <ele>773</ele>
        <time>2021-03-30T05:57:56.984Z</time>
      </trkpt>
      <trkpt lat="45.71537" lon="6.57724">
        <ele>782</ele>
        <time>2021-03-30T05:59:26.632Z</time>
      </trkpt>
      <trkpt lat="45.71572" lon="6.57703">
        <ele>777</ele>
        <time>2021-03-30T05:59:31.644Z</time>
      </trkpt>
      <trkpt lat="45.71588" lon="6.57698">
        <ele>775</ele>
        <time>2021-03-30T05:59:33.807Z</time>
      </trkpt>
      <trkpt lat="45.71606" lon="6.57696">
        <ele>774</ele>
        <time>2021-03-30T05:59:36.196Z</time>
      </trkpt>
      <trkpt lat="45.71622" lon="6.57698">
        <ele>774</ele>
        <time>2021-03-30T05:59:42.238Z</time>
      </trkpt>
      <trkpt lat="45.71638" lon="6.57705">
        <ele>776</ele>
        <time>2021-03-30T06:00:02.454Z</time>
      </trkpt>
      <trkpt lat="45.71649" lon="6.57715">
        <ele>779</ele>
        <time>2021-03-30T06:00:21.358Z</time>
      </trkpt>
      <trkpt lat="45.71673" lon="6.57747">
        <ele>789</ele>
        <time>2021-03-30T06:01:08.935Z</time>
      </trkpt>
      <trkpt lat="45.71696" lon="6.57769">
        <ele>798</ele>
        <time>2021-03-30T06:01:49.064Z</time>
      </trkpt>
      <trkpt lat="45.71698" lon="6.57783">
        <ele>803</ele>
        <time>2021-03-30T06:02:03.541Z</time>
      </trkpt>
      <trkpt lat="45.71694" lon="6.57792">
        <ele>806</ele>
        <time>2021-03-30T06:02:14.349Z</time>
      </trkpt>
      <trkpt lat="45.71681" lon="6.57791">
        <ele>806</ele>
        <time>2021-03-30T06:02:19.246Z</time>
      </trkpt>
      <trkpt lat="45.71651" lon="6.57771">
        <ele>798</ele>
        <time>2021-03-30T06:02:23.617Z</time>
      </trkpt>
      <trkpt lat="45.71639" lon="6.5777">
        <ele>797</ele>
        <time>2021-03-30T06:02:25.205Z</time>
      </trkpt>
      <trkpt lat="45.71628" lon="6.57774">
        <ele>798</ele>
        <time>2021-03-30T06:02:35.154Z</time>
      </trkpt>
      <trkpt lat="45.71609" lon="6.5779">
        <ele>803</ele>
        <time>2021-03-30T06:03:07.134Z</time>
      </trkpt>
      <trkpt lat="45.716" lon="6.57803">
        <ele>807</ele>
        <time>2021-03-30T06:03:25.681Z</time>
      </trkpt>
      <trkpt lat="45.71584" lon="6.57837">
        <ele>816</ele>
        <time>2021-03-30T06:04:07.218Z</time>
      </trkpt>
      <trkpt lat="45.71575" lon="6.57848">
        <ele>817</ele>
        <time>2021-03-30T06:04:17.275Z</time>
      </trkpt>
      <trkpt lat="45.71553" lon="6.5786">
        <ele>818</ele>
        <time>2021-03-30T06:04:31.771Z</time>
      </trkpt>
      <trkpt lat="45.71494" lon="6.57867">
        <ele>815</ele>
        <time>2021-03-30T06:04:39.923Z</time>
      </trkpt>
      <trkpt lat="45.7149" lon="6.57874">
        <ele>815</ele>
        <time>2021-03-30T06:04:42.299Z</time>
      </trkpt>
      <trkpt lat="45.71489" lon="6.57883">
        <ele>816</ele>
        <time>2021-03-30T06:04:51.531Z</time>
      </trkpt>
      <trkpt lat="45.71498" lon="6.57895">
        <ele>821</ele>
        <time>2021-03-30T06:05:09.372Z</time>
      </trkpt>
      <trkpt lat="45.71525" lon="6.57902">
        <ele>824</ele>
        <time>2021-03-30T06:05:38.900Z</time>
      </trkpt>
      <trkpt lat="45.71549" lon="6.57915">
        <ele>827</ele>
        <time>2021-03-30T06:06:08.955Z</time>
      </trkpt>
      <trkpt lat="45.71565" lon="6.57917">
        <ele>828</ele>
        <time>2021-03-30T06:06:20.442Z</time>
      </trkpt>
      <trkpt lat="45.71583" lon="6.5791">
        <ele>827</ele>
        <time>2021-03-30T06:06:22.947Z</time>
      </trkpt>
      <trkpt lat="45.71597" lon="6.57901">
        <ele>827</ele>
        <time>2021-03-30T06:06:28.719Z</time>
      </trkpt>
      <trkpt lat="45.71608" lon="6.5789">
        <ele>827</ele>
        <time>2021-03-30T06:06:33.766Z</time>
      </trkpt>
      <trkpt lat="45.71634" lon="6.57849">
        <ele>823</ele>
        <time>2021-03-30T06:06:38.874Z</time>
      </trkpt>
      <trkpt lat="45.71649" lon="6.57847">
        <ele>824</ele>
        <time>2021-03-30T06:06:49.974Z</time>
      </trkpt>
      <trkpt lat="45.71692" lon="6.5789">
        <ele>832</ele>
        <time>2021-03-30T06:08:06.067Z</time>
      </trkpt>
      <trkpt lat="45.71705" lon="6.57908">
        <ele>835</ele>
        <time>2021-03-30T06:08:32.303Z</time>
      </trkpt>
      <trkpt lat="45.71759" lon="6.58015">
        <ele>847</ele>
        <time>2021-03-30T06:10:40.043Z</time>
      </trkpt>
      <trkpt lat="45.71765" lon="6.58019">
        <ele>849</ele>
        <time>2021-03-30T06:10:49.645Z</time>
      </trkpt>
      <trkpt lat="45.71784" lon="6.58022">
        <ele>850</ele>
        <time>2021-03-30T06:11:02.412Z</time>
      </trkpt>
      <trkpt lat="45.71825" lon="6.58011">
        <ele>852</ele>
        <time>2021-03-30T06:11:29.484Z</time>
      </trkpt>
      <trkpt lat="45.71859" lon="6.58006">
        <ele>853</ele>
        <time>2021-03-30T06:11:47.049Z</time>
      </trkpt>
      <trkpt lat="45.71998" lon="6.58024">
        <ele>865</ele>
        <time>2021-03-30T06:13:47.167Z</time>
      </trkpt>
      <trkpt lat="45.7201" lon="6.58022">
        <ele>867</ele>
        <time>2021-03-30T06:14:04.695Z</time>
      </trkpt>
      <trkpt lat="45.72019" lon="6.58017">
        <ele>868</ele>
        <time>2021-03-30T06:14:14.481Z</time>
      </trkpt>
      <trkpt lat="45.72044" lon="6.57997">
        <ele>869</ele>
        <time>2021-03-30T06:14:30.319Z</time>
      </trkpt>
      <trkpt lat="45.72061" lon="6.57993">
        <ele>872</ele>
        <time>2021-03-30T06:14:55.315Z</time>
      </trkpt>
      <trkpt lat="45.721" lon="6.57986">
        <ele>877</ele>
        <time>2021-03-30T06:15:47.638Z</time>
      </trkpt>
      <trkpt lat="45.72111" lon="6.57987">
        <ele>879</ele>
        <time>2021-03-30T06:16:03.630Z</time>
      </trkpt>
      <trkpt lat="45.72128" lon="6.57994">
        <ele>883</ele>
        <time>2021-03-30T06:16:29.295Z</time>
      </trkpt>
      <trkpt lat="45.72136" lon="6.57994">
        <ele>884</ele>
        <time>2021-03-30T06:16:39.642Z</time>
      </trkpt>
      <trkpt lat="45.72142" lon="6.57988">
        <ele>884</ele>
        <time>2021-03-30T06:16:42.394Z</time>
      </trkpt>
      <trkpt lat="45.72156" lon="6.57957">
        <ele>882</ele>
        <time>2021-03-30T06:16:45.799Z</time>
      </trkpt>
      <trkpt lat="45.72166" lon="6.57946">
        <ele>883</ele>
        <time>2021-03-30T06:16:56.064Z</time>
      </trkpt>
      <trkpt lat="45.72219" lon="6.57912">
        <ele>888</ele>
        <time>2021-03-30T06:17:46.095Z</time>
      </trkpt>
      <trkpt lat="45.72242" lon="6.57902">
        <ele>890</ele>
        <time>2021-03-30T06:18:06.301Z</time>
      </trkpt>
      <trkpt lat="45.72274" lon="6.57902">
        <ele>896</ele>
        <time>2021-03-30T06:18:52.731Z</time>
      </trkpt>
      <trkpt lat="45.72326" lon="6.57882">
        <ele>899</ele>
        <time>2021-03-30T06:19:29.525Z</time>
      </trkpt>
      <trkpt lat="45.72362" lon="6.57871">
        <ele>901</ele>
        <time>2021-03-30T06:19:54.444Z</time>
      </trkpt>
      <trkpt lat="45.7238" lon="6.57858">
        <ele>900</ele>
        <time>2021-03-30T06:19:57.246Z</time>
      </trkpt>
      <trkpt lat="45.7239" lon="6.57854">
        <ele>900</ele>
        <time>2021-03-30T06:20:01.151Z</time>
      </trkpt>
      <trkpt lat="45.72409" lon="6.57858">
        <ele>903</ele>
        <time>2021-03-30T06:20:29.015Z</time>
      </trkpt>
      <trkpt lat="45.72451" lon="6.57878">
        <ele>912</ele>
        <time>2021-03-30T06:21:33.234Z</time>
      </trkpt>
      <trkpt lat="45.72463" lon="6.57891">
        <ele>915</ele>
        <time>2021-03-30T06:21:55.064Z</time>
      </trkpt>
      <trkpt lat="45.72481" lon="6.57935">
        <ele>924</ele>
        <time>2021-03-30T06:22:46.720Z</time>
      </trkpt>
      <trkpt lat="45.72487" lon="6.57942">
        <ele>926</ele>
        <time>2021-03-30T06:22:57.948Z</time>
      </trkpt>
      <trkpt lat="45.72495" lon="6.57946">
        <ele>928</ele>
        <time>2021-03-30T06:23:10.242Z</time>
      </trkpt>
      <trkpt lat="45.72505" lon="6.57945">
        <ele>929</ele>
        <time>2021-03-30T06:23:20.025Z</time>
      </trkpt>
      <trkpt lat="45.72514" lon="6.57942">
        <ele>930</ele>
        <time>2021-03-30T06:23:29.852Z</time>
      </trkpt>
      <trkpt lat="45.72533" lon="6.5793">
        <ele>932</ele>
        <time>2021-03-30T06:23:49.461Z</time>
      </trkpt>
      <trkpt lat="45.72552" lon="6.57923">
        <ele>934</ele>
        <time>2021-03-30T06:24:09.023Z</time>
      </trkpt>
      <trkpt lat="45.72576" lon="6.57898">
        <ele>935</ele>
        <time>2021-03-30T06:24:25.169Z</time>
      </trkpt>
      <trkpt lat="45.7258" lon="6.57883">
        <ele>935</ele>
        <time>2021-03-30T06:24:29.386Z</time>
      </trkpt>
      <trkpt lat="45.72576" lon="6.57824">
        <ele>931</ele>
        <time>2021-03-30T06:24:34.852Z</time>
      </trkpt>
      <trkpt lat="45.7261" lon="6.57696">
        <ele>942</ele>
        <time>2021-03-30T06:26:24.457Z</time>
      </trkpt>
      <trkpt lat="45.7262" lon="6.57643">
        <ele>945</ele>
        <time>2021-03-30T06:26:55.398Z</time>
      </trkpt>
      <trkpt lat="45.72621" lon="6.57627">
        <ele>945</ele>
        <time>2021-03-30T06:26:59.616Z</time>
      </trkpt>
      <trkpt lat="45.72616" lon="6.57555">
        <ele>945</ele>
        <time>2021-03-30T06:27:18.617Z</time>
      </trkpt>
      <trkpt lat="45.72608" lon="6.57515">
        <ele>944</ele>
        <time>2021-03-30T06:27:23.269Z</time>
      </trkpt>
      <trkpt lat="45.72607" lon="6.57498">
        <ele>944</ele>
        <time>2021-03-30T06:27:27.749Z</time>
      </trkpt>
      <trkpt lat="45.72615" lon="6.57431">
        <ele>941</ele>
        <time>2021-03-30T06:27:33.645Z</time>
      </trkpt>
      <trkpt lat="45.72618" lon="6.57423">
        <ele>941</ele>
        <time>2021-03-30T06:27:36.029Z</time>
      </trkpt>
      <trkpt lat="45.72626" lon="6.57416">
        <ele>941</ele>
        <time>2021-03-30T06:27:39.556Z</time>
      </trkpt>
      <trkpt lat="45.72702" lon="6.57383">
        <ele>940</ele>
        <time>2021-03-30T06:27:55.840Z</time>
      </trkpt>
      <trkpt lat="45.72784" lon="6.5739">
        <ele>949</ele>
        <time>2021-03-30T06:29:24.453Z</time>
      </trkpt>
      <trkpt lat="45.7279" lon="6.57389">
        <ele>949</ele>
        <time>2021-03-30T06:29:26.725Z</time>
      </trkpt>
      <trkpt lat="45.72827" lon="6.57368">
        <ele>946</ele>
        <time>2021-03-30T06:29:31.982Z</time>
      </trkpt>
      <trkpt lat="45.72842" lon="6.57363">
        <ele>945</ele>
        <time>2021-03-30T06:29:33.871Z</time>
      </trkpt>
      <trkpt lat="45.72857" lon="6.57363">
        <ele>944</ele>
        <time>2021-03-30T06:29:35.686Z</time>
      </trkpt>
      <trkpt lat="45.72897" lon="6.57373">
        <ele>947</ele>
        <time>2021-03-30T06:30:07.349Z</time>
      </trkpt>
      <trkpt lat="45.72917" lon="6.57383">
        <ele>951</ele>
        <time>2021-03-30T06:30:38.084Z</time>
      </trkpt>
      <trkpt lat="45.72938" lon="6.57387">
        <ele>956</ele>
        <time>2021-03-30T06:31:08.822Z</time>
      </trkpt>
      <trkpt lat="45.72962" lon="6.57384">
        <ele>959</ele>
        <time>2021-03-30T06:31:39.790Z</time>
      </trkpt>
      <trkpt lat="45.73028" lon="6.57356">
        <ele>963</ele>
        <time>2021-03-30T06:32:27.607Z</time>
      </trkpt>
      <trkpt lat="45.73067" lon="6.57331">
        <ele>962</ele>
        <time>2021-03-30T06:32:35.299Z</time>
      </trkpt>
      <trkpt lat="45.7317" lon="6.57295">
        <ele>966</ele>
        <time>2021-03-30T06:33:36.242Z</time>
      </trkpt>
      <trkpt lat="45.73197" lon="6.57295">
        <ele>967</ele>
        <time>2021-03-30T06:33:51.613Z</time>
      </trkpt>
      <trkpt lat="45.73248" lon="6.57301">
        <ele>971</ele>
        <time>2021-03-30T06:34:32.890Z</time>
      </trkpt>
      <trkpt lat="45.73305" lon="6.57338">
        <ele>971</ele>
        <time>2021-03-30T06:34:56.430Z</time>
      </trkpt>
      <trkpt lat="45.73332" lon="6.57362">
        <ele>973</ele>
        <time>2021-03-30T06:35:19.266Z</time>
      </trkpt>
      <trkpt lat="45.73394" lon="6.57454">
        <ele>976</ele>
        <time>2021-03-30T06:36:07.778Z</time>
      </trkpt>
      <trkpt lat="45.73444" lon="6.57511">
        <ele>969</ele>
        <time>2021-03-30T06:36:16.218Z</time>
      </trkpt>
      <trkpt lat="45.73465" lon="6.57543">
        <ele>971</ele>
        <time>2021-03-30T06:36:38.620Z</time>
      </trkpt>
      <trkpt lat="45.73492" lon="6.57595">
        <ele>976</ele>
        <time>2021-03-30T06:37:27.931Z</time>
      </trkpt>
      <trkpt lat="45.73546" lon="6.57661">
        <ele>982</ele>
        <time>2021-03-30T06:38:28.270Z</time>
      </trkpt>
      <trkpt lat="45.73575" lon="6.57701">
        <ele>990</ele>
        <time>2021-03-30T06:39:26.678Z</time>
      </trkpt>
      <trkpt lat="45.73601" lon="6.57713">
        <ele>990</ele>
        <time>2021-03-30T06:39:36.953Z</time>
      </trkpt>
      <trkpt lat="45.73636" lon="6.57716">
        <ele>989</ele>
        <time>2021-03-30T06:39:42.922Z</time>
      </trkpt>
      <trkpt lat="45.73727" lon="6.57755">
        <ele>994</ele>
        <time>2021-03-30T06:40:46.498Z</time>
      </trkpt>
      <trkpt lat="45.73769" lon="6.57781">
        <ele>994</ele>
        <time>2021-03-30T06:41:03.708Z</time>
      </trkpt>
      <trkpt lat="45.73824" lon="6.57844">
        <ele>998</ele>
        <time>2021-03-30T06:41:52.186Z</time>
      </trkpt>
      <trkpt lat="45.73844" lon="6.57878">
        <ele>1000</ele>
        <time>2021-03-30T06:42:14.733Z</time>
      </trkpt>
      <trkpt lat="45.7387" lon="6.57905">
        <ele>998</ele>
        <time>2021-03-30T06:42:18.752Z</time>
      </trkpt>
      <trkpt lat="45.73897" lon="6.57963">
        <ele>1004</ele>
        <time>2021-03-30T06:43:20.340Z</time>
      </trkpt>
      <trkpt lat="45.739" lon="6.58016">
        <ele>1016</ele>
        <time>2021-03-30T06:44:14.186Z</time>
      </trkpt>
      <trkpt lat="45.73908" lon="6.58034">
        <ele>1016</ele>
        <time>2021-03-30T06:44:19.789Z</time>
      </trkpt>
      <trkpt lat="45.73919" lon="6.58046">
        <ele>1015</ele>
        <time>2021-03-30T06:44:21.615Z</time>
      </trkpt>
      <trkpt lat="45.73963" lon="6.58072">
        <ele>1006</ele>
        <time>2021-03-30T06:44:27.902Z</time>
      </trkpt>
      <trkpt lat="45.73974" lon="6.58088">
        <ele>1007</ele>
        <time>2021-03-30T06:44:39.237Z</time>
      </trkpt>
      <trkpt lat="45.73978" lon="6.58108">
        <ele>1009</ele>
        <time>2021-03-30T06:45:00.305Z</time>
      </trkpt>
      <trkpt lat="45.73982" lon="6.58177">
        <ele>1022</ele>
        <time>2021-03-30T06:46:10.417Z</time>
      </trkpt>
      <trkpt lat="45.73992" lon="6.58201">
        <ele>1024</ele>
        <time>2021-03-30T06:46:29.981Z</time>
      </trkpt>
      <trkpt lat="45.74042" lon="6.58282">
        <ele>1030</ele>
        <time>2021-03-30T06:47:31.517Z</time>
      </trkpt>
      <trkpt lat="45.74056" lon="6.58288">
        <ele>1028</ele>
        <time>2021-03-30T06:47:33.447Z</time>
      </trkpt>
      <trkpt lat="45.74079" lon="6.58284">
        <ele>1021</ele>
        <time>2021-03-30T06:47:36.507Z</time>
      </trkpt>
      <trkpt lat="45.74135" lon="6.58305">
        <ele>1017</ele>
        <time>2021-03-30T06:47:44.154Z</time>
      </trkpt>
      <trkpt lat="45.74176" lon="6.58303">
        <ele>1009</ele>
        <time>2021-03-30T06:47:49.573Z</time>
      </trkpt>
      <trkpt lat="45.74216" lon="6.58333">
        <ele>1017</ele>
        <time>2021-03-30T06:48:55.080Z</time>
      </trkpt>
      <trkpt lat="45.74259" lon="6.58352">
        <ele>1015</ele>
        <time>2021-03-30T06:49:01.628Z</time>
      </trkpt>
      <trkpt lat="45.74268" lon="6.58367">
        <ele>1017</ele>
        <time>2021-03-30T06:49:21.658Z</time>
      </trkpt>
      <trkpt lat="45.74272" lon="6.58421">
        <ele>1030</ele>
        <time>2021-03-30T06:50:16.645Z</time>
      </trkpt>
      <trkpt lat="45.74259" lon="6.58517">
        <ele>1056</ele>
        <time>2021-03-30T06:51:55.666Z</time>
      </trkpt>
      <trkpt lat="45.74262" lon="6.58527">
        <ele>1058</ele>
        <time>2021-03-30T06:52:06.688Z</time>
      </trkpt>
      <trkpt lat="45.74267" lon="6.58533">
        <ele>1059</ele>
        <time>2021-03-30T06:52:16.151Z</time>
      </trkpt>
      <trkpt lat="45.74273" lon="6.58534">
        <ele>1058</ele>
        <time>2021-03-30T06:52:16.948Z</time>
      </trkpt>
      <trkpt lat="45.74286" lon="6.58521">
        <ele>1052</ele>
        <time>2021-03-30T06:52:19.042Z</time>
      </trkpt>
      <trkpt lat="45.74297" lon="6.585">
        <ele>1043</ele>
        <time>2021-03-30T06:52:21.463Z</time>
      </trkpt>
      <trkpt lat="45.74315" lon="6.58486">
        <ele>1036</ele>
        <time>2021-03-30T06:52:24.168Z</time>
      </trkpt>
      <trkpt lat="45.74333" lon="6.58484">
        <ele>1031</ele>
        <time>2021-03-30T06:52:26.553Z</time>
      </trkpt>
      <trkpt lat="45.74395" lon="6.58494">
        <ele>1025</ele>
        <time>2021-03-30T06:52:34.794Z</time>
      </trkpt>
      <trkpt lat="45.74409" lon="6.58503">
        <ele>1026</ele>
        <time>2021-03-30T06:52:46.001Z</time>
      </trkpt>
      <trkpt lat="45.74417" lon="6.58523">
        <ele>1028</ele>
        <time>2021-03-30T06:53:06.626Z</time>
      </trkpt>
      <trkpt lat="45.74423" lon="6.58571">
        <ele>1036</ele>
        <time>2021-03-30T06:53:56.003Z</time>
      </trkpt>
      <trkpt lat="45.74431" lon="6.58587">
        <ele>1037</ele>
        <time>2021-03-30T06:54:06.624Z</time>
      </trkpt>
      <trkpt lat="45.74444" lon="6.58592">
        <ele>1035</ele>
        <time>2021-03-30T06:54:08.402Z</time>
      </trkpt>
      <trkpt lat="45.74467" lon="6.58588">
        <ele>1028</ele>
        <time>2021-03-30T06:54:11.463Z</time>
      </trkpt>
      <trkpt lat="45.7448" lon="6.58599">
        <ele>1027</ele>
        <time>2021-03-30T06:54:13.296Z</time>
      </trkpt>
      <trkpt lat="45.74484" lon="6.58612">
        <ele>1027</ele>
        <time>2021-03-30T06:54:17.025Z</time>
      </trkpt>
      <trkpt lat="45.74488" lon="6.58652">
        <ele>1032</ele>
        <time>2021-03-30T06:54:57.941Z</time>
      </trkpt>
      <trkpt lat="45.74488" lon="6.58694">
        <ele>1038</ele>
        <time>2021-03-30T06:55:40.468Z</time>
      </trkpt>
      <trkpt lat="45.74472" lon="6.58797">
        <ele>1061</ele>
        <time>2021-03-30T06:57:27.312Z</time>
      </trkpt>
      <trkpt lat="45.74473" lon="6.5883">
        <ele>1066</ele>
        <time>2021-03-30T06:58:00.758Z</time>
      </trkpt>
      <trkpt lat="45.74479" lon="6.58842">
        <ele>1066</ele>
        <time>2021-03-30T06:58:04.633Z</time>
      </trkpt>
      <trkpt lat="45.74494" lon="6.58846">
        <ele>1063</ele>
        <time>2021-03-30T06:58:06.648Z</time>
      </trkpt>
      <trkpt lat="45.74511" lon="6.58845">
        <ele>1058</ele>
        <time>2021-03-30T06:58:08.896Z</time>
      </trkpt>
      <trkpt lat="45.74538" lon="6.58793">
        <ele>1040</ele>
        <time>2021-03-30T06:58:14.871Z</time>
      </trkpt>
      <trkpt lat="45.74553" lon="6.58789">
        <ele>1036</ele>
        <time>2021-03-30T06:58:16.886Z</time>
      </trkpt>
      <trkpt lat="45.74564" lon="6.58795">
        <ele>1035</ele>
        <time>2021-03-30T06:58:18.441Z</time>
      </trkpt>
      <trkpt lat="45.74578" lon="6.58811">
        <ele>1034</ele>
        <time>2021-03-30T06:58:20.801Z</time>
      </trkpt>
      <trkpt lat="45.7467" lon="6.58877">
        <ele>1037</ele>
        <time>2021-03-30T06:59:13.607Z</time>
      </trkpt>
      <trkpt lat="45.74682" lon="6.58896">
        <ele>1037</ele>
        <time>2021-03-30T06:59:20.334Z</time>
      </trkpt>
      <trkpt lat="45.74687" lon="6.58912">
        <ele>1038</ele>
        <time>2021-03-30T06:59:30.494Z</time>
      </trkpt>
      <trkpt lat="45.74683" lon="6.58966">
        <ele>1049</ele>
        <time>2021-03-30T07:00:25.476Z</time>
      </trkpt>
      <trkpt lat="45.74686" lon="6.58996">
        <ele>1054</ele>
        <time>2021-03-30T07:00:56.162Z</time>
      </trkpt>
      <trkpt lat="45.74696" lon="6.59005">
        <ele>1052</ele>
        <time>2021-03-30T07:00:57.722Z</time>
      </trkpt>
      <trkpt lat="45.74713" lon="6.59006">
        <ele>1046</ele>
        <time>2021-03-30T07:00:59.969Z</time>
      </trkpt>
      <trkpt lat="45.7472" lon="6.59016">
        <ele>1045</ele>
        <time>2021-03-30T07:01:01.275Z</time>
      </trkpt>
      <trkpt lat="45.7475" lon="6.59091">
        <ele>1049</ele>
        <time>2021-03-30T07:01:45.701Z</time>
      </trkpt>
      <trkpt lat="45.74772" lon="6.5911">
        <ele>1049</ele>
        <time>2021-03-30T07:01:55.363Z</time>
      </trkpt>
      <trkpt lat="45.74782" lon="6.59125">
        <ele>1050</ele>
        <time>2021-03-30T07:02:06.245Z</time>
      </trkpt>
      <trkpt lat="45.74788" lon="6.59144">
        <ele>1052</ele>
        <time>2021-03-30T07:02:27.361Z</time>
      </trkpt>
      <trkpt lat="45.74793" lon="6.59193">
        <ele>1060</ele>
        <time>2021-03-30T07:03:17.500Z</time>
      </trkpt>
      <trkpt lat="45.74798" lon="6.59206">
        <ele>1062</ele>
        <time>2021-03-30T07:03:32.530Z</time>
      </trkpt>
      <trkpt lat="45.74807" lon="6.5921">
        <ele>1062</ele>
        <time>2021-03-30T07:03:36.074Z</time>
      </trkpt>
      <trkpt lat="45.74817" lon="6.59207">
        <ele>1060</ele>
        <time>2021-03-30T07:03:37.424Z</time>
      </trkpt>
      <trkpt lat="45.74828" lon="6.59195">
        <ele>1056</ele>
        <time>2021-03-30T07:03:39.250Z</time>
      </trkpt>
      <trkpt lat="45.74838" lon="6.59175">
        <ele>1051</ele>
        <time>2021-03-30T07:03:41.518Z</time>
      </trkpt>
      <trkpt lat="45.74848" lon="6.59145">
        <ele>1046</ele>
        <time>2021-03-30T07:03:44.582Z</time>
      </trkpt>
      <trkpt lat="45.7486" lon="6.59134">
        <ele>1044</ele>
        <time>2021-03-30T07:03:46.464Z</time>
      </trkpt>
      <trkpt lat="45.74873" lon="6.59129">
        <ele>1044</ele>
        <time>2021-03-30T07:03:51.527Z</time>
      </trkpt>
      <trkpt lat="45.74959" lon="6.59113">
        <ele>1041</ele>
        <time>2021-03-30T07:04:05.392Z</time>
      </trkpt>
      <trkpt lat="45.74979" lon="6.59116">
        <ele>1040</ele>
        <time>2021-03-30T07:04:08.184Z</time>
      </trkpt>
      <trkpt lat="45.74991" lon="6.59125">
        <ele>1040</ele>
        <time>2021-03-30T07:04:13.279Z</time>
      </trkpt>
      <trkpt lat="45.75007" lon="6.59142">
        <ele>1040</ele>
        <time>2021-03-30T07:04:20.771Z</time>
      </trkpt>
      <trkpt lat="45.75014" lon="6.59146">
        <ele>1040</ele>
        <time>2021-03-30T07:04:23.606Z</time>
      </trkpt>
      <trkpt lat="45.75021" lon="6.59147">
        <ele>1040</ele>
        <time>2021-03-30T07:04:26.252Z</time>
      </trkpt>
      <trkpt lat="45.75058" lon="6.59136">
        <ele>1038</ele>
        <time>2021-03-30T07:04:31.356Z</time>
      </trkpt>
      <trkpt lat="45.75074" lon="6.59136">
        <ele>1037</ele>
        <time>2021-03-30T07:04:33.356Z</time>
      </trkpt>
      <trkpt lat="45.75123" lon="6.59157">
        <ele>1042</ele>
        <time>2021-03-30T07:05:22.319Z</time>
      </trkpt>
      <trkpt lat="45.75166" lon="6.59203">
        <ele>1047</ele>
        <time>2021-03-30T07:06:11.539Z</time>
      </trkpt>
      <trkpt lat="45.75175" lon="6.59218">
        <ele>1048</ele>
        <time>2021-03-30T07:06:22.184Z</time>
      </trkpt>
      <trkpt lat="45.75184" lon="6.59244">
        <ele>1048</ele>
        <time>2021-03-30T07:06:29.802Z</time>
      </trkpt>
      <trkpt lat="45.75194" lon="6.59251">
        <ele>1049</ele>
        <time>2021-03-30T07:06:39.709Z</time>
      </trkpt>
      <trkpt lat="45.75201" lon="6.59249">
        <ele>1050</ele>
        <time>2021-03-30T07:06:50.066Z</time>
      </trkpt>
      <trkpt lat="45.75206" lon="6.59234">
        <ele>1053</ele>
        <time>2021-03-30T07:07:06.896Z</time>
      </trkpt>
      <trkpt lat="45.75205" lon="6.59226">
        <ele>1053</ele>
        <time>2021-03-30T07:07:09.029Z</time>
      </trkpt>
      <trkpt lat="45.75193" lon="6.59205">
        <ele>1052</ele>
        <time>2021-03-30T07:07:11.590Z</time>
      </trkpt>
      <trkpt lat="45.75185" lon="6.59179">
        <ele>1053</ele>
        <time>2021-03-30T07:07:24.669Z</time>
      </trkpt>
      <trkpt lat="45.7518" lon="6.59151">
        <ele>1054</ele>
        <time>2021-03-30T07:07:37.898Z</time>
      </trkpt>
      <trkpt lat="45.75176" lon="6.59104">
        <ele>1059</ele>
        <time>2021-03-30T07:08:25.834Z</time>
      </trkpt>
      <trkpt lat="45.7517" lon="6.59083">
        <ele>1060</ele>
        <time>2021-03-30T07:08:37.232Z</time>
      </trkpt>
      <trkpt lat="45.75147" lon="6.59025">
        <ele>1070</ele>
        <time>2021-03-30T07:09:44.772Z</time>
      </trkpt>
      <trkpt lat="45.75139" lon="6.59013">
        <ele>1071</ele>
        <time>2021-03-30T07:09:54.771Z</time>
      </trkpt>
      <trkpt lat="45.75123" lon="6.58997">
        <ele>1070</ele>
        <time>2021-03-30T07:09:57.444Z</time>
      </trkpt>
      <trkpt lat="45.7512" lon="6.5899">
        <ele>1070</ele>
        <time>2021-03-30T07:09:59.600Z</time>
      </trkpt>
      <trkpt lat="45.7512" lon="6.58984">
        <ele>1072</ele>
        <time>2021-03-30T07:10:05.675Z</time>
      </trkpt>
      <trkpt lat="45.75128" lon="6.58979">
        <ele>1075</ele>
        <time>2021-03-30T07:10:18.338Z</time>
      </trkpt>
      <trkpt lat="45.75134" lon="6.58982">
        <ele>1077</ele>
        <time>2021-03-30T07:10:27.559Z</time>
      </trkpt>
      <trkpt lat="45.75155" lon="6.59006">
        <ele>1077</ele>
        <time>2021-03-30T07:10:37.662Z</time>
      </trkpt>
      <trkpt lat="45.75194" lon="6.59037">
        <ele>1081</ele>
        <time>2021-03-30T07:11:17.306Z</time>
      </trkpt>
      <trkpt lat="45.75248" lon="6.59093">
        <ele>1083</ele>
        <time>2021-03-30T07:11:51.883Z</time>
      </trkpt>
      <trkpt lat="45.75282" lon="6.59121">
        <ele>1086</ele>
        <time>2021-03-30T07:12:23.096Z</time>
      </trkpt>
      <trkpt lat="45.75307" lon="6.59136">
        <ele>1090</ele>
        <time>2021-03-30T07:13:02.420Z</time>
      </trkpt>
      <trkpt lat="45.75365" lon="6.59164">
        <ele>1098</ele>
        <time>2021-03-30T07:14:27.862Z</time>
      </trkpt>
      <trkpt lat="45.75384" lon="6.59178">
        <ele>1100</ele>
        <time>2021-03-30T07:14:47.537Z</time>
      </trkpt>
      <trkpt lat="45.75431" lon="6.59238">
        <ele>1101</ele>
        <time>2021-03-30T07:15:15.246Z</time>
      </trkpt>
      <trkpt lat="45.75441" lon="6.59239">
        <ele>1104</ele>
        <time>2021-03-30T07:15:29.791Z</time>
      </trkpt>
      <trkpt lat="45.7545" lon="6.59234">
        <ele>1106</ele>
        <time>2021-03-30T07:15:43.796Z</time>
      </trkpt>
      <trkpt lat="45.75425" lon="6.592">
        <ele>1106</ele>
        <time>2021-03-30T07:15:56.761Z</time>
      </trkpt>
      <trkpt lat="45.754" lon="6.5915">
        <ele>1108</ele>
        <time>2021-03-30T07:16:24.376Z</time>
      </trkpt>
      <trkpt lat="45.75387" lon="6.59101">
        <ele>1115</ele>
        <time>2021-03-30T07:17:17.447Z</time>
      </trkpt>
      <trkpt lat="45.75379" lon="6.59089">
        <ele>1115</ele>
        <time>2021-03-30T07:17:21.804Z</time>
      </trkpt>
      <trkpt lat="45.75345" lon="6.59056">
        <ele>1117</ele>
        <time>2021-03-30T07:17:48.586Z</time>
      </trkpt>
      <trkpt lat="45.75333" lon="6.5904">
        <ele>1118</ele>
        <time>2021-03-30T07:18:00.205Z</time>
      </trkpt>
      <trkpt lat="45.75275" lon="6.58927">
        <ele>1133</ele>
        <time>2021-03-30T07:20:22.224Z</time>
      </trkpt>
      <trkpt lat="45.75217" lon="6.58836">
        <ele>1132.4</ele>
        <time>2021-03-30T07:20:51.450Z</time>
      </trkpt>
      <trkpt lat="45.75179" lon="6.58806">
        <ele>1129.6</ele>
        <time>2021-03-30T07:20:56.786Z</time>
      </trkpt>
      <trkpt lat="45.75077" lon="6.587">
        <ele>1122.1</ele>
        <time>2021-03-30T07:21:12.905Z</time>
      </trkpt>
      <trkpt lat="45.75044" lon="6.58656">
        <ele>1120.3</ele>
        <time>2021-03-30T07:21:19.745Z</time>
      </trkpt>
      <trkpt lat="45.75016" lon="6.58611">
        <ele>1121.4</ele>
        <time>2021-03-30T07:21:40.555Z</time>
      </trkpt>
      <trkpt lat="45.74959" lon="6.58518">
        <ele>1120</ele>
        <time>2021-03-30T07:21:57.480Z</time>
      </trkpt>
      <trkpt lat="45.74911" lon="6.58407">
        <ele>1125.8</ele>
        <time>2021-03-30T07:23:03.303Z</time>
      </trkpt>
      <trkpt lat="45.74845" lon="6.58305">
        <ele>1120.7</ele>
        <time>2021-03-30T07:23:16.458Z</time>
      </trkpt>
      <trkpt lat="45.74843" lon="6.58291">
        <ele>1123.2</ele>
        <time>2021-03-30T07:23:30.926Z</time>
      </trkpt>
      <trkpt lat="45.74856" lon="6.58277">
        <ele>1129.7</ele>
        <time>2021-03-30T07:23:54.521Z</time>
      </trkpt>
      <trkpt lat="45.74912" lon="6.58352">
        <ele>1133.9</ele>
        <time>2021-03-30T07:24:46.572Z</time>
      </trkpt>
      <trkpt lat="45.74941" lon="6.58389">
        <ele>1136.1</ele>
        <time>2021-03-30T07:25:13.277Z</time>
      </trkpt>
      <trkpt lat="45.74963" lon="6.58407">
        <ele>1138.4</ele>
        <time>2021-03-30T07:25:36.017Z</time>
      </trkpt>
      <trkpt lat="45.74975" lon="6.58409">
        <ele>1141</ele>
        <time>2021-03-30T07:25:53.546Z</time>
      </trkpt>
      <trkpt lat="45.74975" lon="6.58398">
        <ele>1143</ele>
        <time>2021-03-30T07:26:04.683Z</time>
      </trkpt>
      <trkpt lat="45.74971" lon="6.58391">
        <ele>1143</ele>
        <time>2021-03-30T07:26:07.058Z</time>
      </trkpt>
      <trkpt lat="45.74952" lon="6.5838">
        <ele>1140</ele>
        <time>2021-03-30T07:26:09.765Z</time>
      </trkpt>
      <trkpt lat="45.74929" lon="6.58346">
        <ele>1139</ele>
        <time>2021-03-30T07:26:15.287Z</time>
      </trkpt>
      <trkpt lat="45.74917" lon="6.58323">
        <ele>1139</ele>
        <time>2021-03-30T07:26:22.825Z</time>
      </trkpt>
      <trkpt lat="45.74892" lon="6.58232">
        <ele>1144</ele>
        <time>2021-03-30T07:27:15.787Z</time>
      </trkpt>
      <trkpt lat="45.74881" lon="6.58129">
        <ele>1149</ele>
        <time>2021-03-30T07:28:10.317Z</time>
      </trkpt>
      <trkpt lat="45.74872" lon="6.5808">
        <ele>1152</ele>
        <time>2021-03-30T07:28:40.455Z</time>
      </trkpt>
      <trkpt lat="45.74854" lon="6.58009">
        <ele>1152</ele>
        <time>2021-03-30T07:29:00.284Z</time>
      </trkpt>
      <trkpt lat="45.74853" lon="6.57987">
        <ele>1153</ele>
        <time>2021-03-30T07:29:11.506Z</time>
      </trkpt>
      <trkpt lat="45.74854" lon="6.57972">
        <ele>1154</ele>
        <time>2021-03-30T07:29:21.323Z</time>
      </trkpt>
      <trkpt lat="45.74861" lon="6.57948">
        <ele>1156</ele>
        <time>2021-03-30T07:29:41.036Z</time>
      </trkpt>
      <trkpt lat="45.74867" lon="6.57942">
        <ele>1157</ele>
        <time>2021-03-30T07:29:51.652Z</time>
      </trkpt>
      <trkpt lat="45.74901" lon="6.57924">
        <ele>1163</ele>
        <time>2021-03-30T07:30:44.242Z</time>
      </trkpt>
      <trkpt lat="45.74904" lon="6.57913">
        <ele>1163</ele>
        <time>2021-03-30T07:30:47.342Z</time>
      </trkpt>
      <trkpt lat="45.74903" lon="6.57904">
        <ele>1164</ele>
        <time>2021-03-30T07:30:56.569Z</time>
      </trkpt>
      <trkpt lat="45.74898" lon="6.57896">
        <ele>1165</ele>
        <time>2021-03-30T07:31:07.443Z</time>
      </trkpt>
      <trkpt lat="45.74887" lon="6.57887">
        <ele>1164</ele>
        <time>2021-03-30T07:31:09.116Z</time>
      </trkpt>
      <trkpt lat="45.74842" lon="6.57868">
        <ele>1161</ele>
        <time>2021-03-30T07:31:14.912Z</time>
      </trkpt>
      <trkpt lat="45.74802" lon="6.57862">
        <ele>1158</ele>
        <time>2021-03-30T07:31:20.225Z</time>
      </trkpt>
      <trkpt lat="45.74781" lon="6.57832">
        <ele>1159</ele>
        <time>2021-03-30T07:31:36.365Z</time>
      </trkpt>
      <trkpt lat="45.74771" lon="6.57794">
        <ele>1162</ele>
        <time>2021-03-30T07:32:05.766Z</time>
      </trkpt>
      <trkpt lat="45.74761" lon="6.57722">
        <ele>1169</ele>
        <time>2021-03-30T07:33:20.095Z</time>
      </trkpt>
      <trkpt lat="45.74683" lon="6.57568">
        <ele>1181</ele>
        <time>2021-03-30T07:35:18.848Z</time>
      </trkpt>
      <trkpt lat="45.74623" lon="6.57438">
        <ele>1192</ele>
        <time>2021-03-30T07:37:06.435Z</time>
      </trkpt>
      <trkpt lat="45.7462" lon="6.57425">
        <ele>1194</ele>
        <time>2021-03-30T07:37:20.299Z</time>
      </trkpt>
      <trkpt lat="45.74632" lon="6.57423">
        <ele>1197</ele>
        <time>2021-03-30T07:37:37.828Z</time>
      </trkpt>
      <trkpt lat="45.74637" lon="6.57426">
        <ele>1198</ele>
        <time>2021-03-30T07:37:45.693Z</time>
      </trkpt>
      <trkpt lat="45.74654" lon="6.57461">
        <ele>1195</ele>
        <time>2021-03-30T07:37:49.624Z</time>
      </trkpt>
      <trkpt lat="45.74669" lon="6.57482">
        <ele>1194</ele>
        <time>2021-03-30T07:37:52.588Z</time>
      </trkpt>
      <trkpt lat="45.7468" lon="6.57492">
        <ele>1195</ele>
        <time>2021-03-30T07:38:02.978Z</time>
      </trkpt>
      <trkpt lat="45.74748" lon="6.57532">
        <ele>1205</ele>
        <time>2021-03-30T07:39:49.631Z</time>
      </trkpt>
      <trkpt lat="45.74784" lon="6.57548">
        <ele>1211</ele>
        <time>2021-03-30T07:40:44.319Z</time>
      </trkpt>
      <trkpt lat="45.74838" lon="6.57565">
        <ele>1219</ele>
        <time>2021-03-30T07:42:04.538Z</time>
      </trkpt>
      <trkpt lat="45.74856" lon="6.5758">
        <ele>1218</ele>
        <time>2021-03-30T07:42:07.473Z</time>
      </trkpt>
      <trkpt lat="45.7487" lon="6.57598">
        <ele>1217</ele>
        <time>2021-03-30T07:42:10.008Z</time>
      </trkpt>
      <trkpt lat="45.74885" lon="6.57609">
        <ele>1218</ele>
        <time>2021-03-30T07:42:21.814Z</time>
      </trkpt>
      <trkpt lat="45.7492" lon="6.57627">
        <ele>1221</ele>
        <time>2021-03-30T07:42:52.426Z</time>
      </trkpt>
      <trkpt lat="45.74966" lon="6.57638">
        <ele>1226</ele>
        <time>2021-03-30T07:43:41.496Z</time>
      </trkpt>
      <trkpt lat="45.75032" lon="6.5767">
        <ele>1231</ele>
        <time>2021-03-30T07:44:34.946Z</time>
      </trkpt>
      <trkpt lat="45.75051" lon="6.57675">
        <ele>1233</ele>
        <time>2021-03-30T07:44:54.517Z</time>
      </trkpt>
      <trkpt lat="45.75087" lon="6.57668">
        <ele>1243</ele>
        <time>2021-03-30T07:45:47.229Z</time>
      </trkpt>
      <trkpt lat="45.75122" lon="6.57701">
        <ele>1245</ele>
        <time>2021-03-30T07:46:14.383Z</time>
      </trkpt>
      <trkpt lat="45.75131" lon="6.57722">
        <ele>1243</ele>
        <time>2021-03-30T07:46:16.655Z</time>
      </trkpt>
      <trkpt lat="45.75138" lon="6.57748">
        <ele>1239</ele>
        <time>2021-03-30T07:46:19.223Z</time>
      </trkpt>
      <trkpt lat="45.75148" lon="6.57765">
        <ele>1240</ele>
        <time>2021-03-30T07:46:30.496Z</time>
      </trkpt>
      <trkpt lat="45.75155" lon="6.57771">
        <ele>1241</ele>
        <time>2021-03-30T07:46:40.729Z</time>
      </trkpt>
      <trkpt lat="45.75177" lon="6.57781">
        <ele>1246</ele>
        <time>2021-03-30T07:47:14.216Z</time>
      </trkpt>
      <trkpt lat="45.75188" lon="6.5778">
        <ele>1250</ele>
        <time>2021-03-30T07:47:30.209Z</time>
      </trkpt>
      <trkpt lat="45.75191" lon="6.5777">
        <ele>1253</ele>
        <time>2021-03-30T07:47:41.229Z</time>
      </trkpt>
      <trkpt lat="45.75186" lon="6.57759">
        <ele>1253</ele>
        <time>2021-03-30T07:47:44.675Z</time>
      </trkpt>
      <trkpt lat="45.75171" lon="6.57756">
        <ele>1249</ele>
        <time>2021-03-30T07:47:46.675Z</time>
      </trkpt>
      <trkpt lat="45.75162" lon="6.5775">
        <ele>1246</ele>
        <time>2021-03-30T07:47:47.986Z</time>
      </trkpt>
      <trkpt lat="45.75157" lon="6.57687">
        <ele>1258</ele>
        <time>2021-03-30T07:48:52.180Z</time>
      </trkpt>
      <trkpt lat="45.75152" lon="6.57675">
        <ele>1259</ele>
        <time>2021-03-30T07:49:01.962Z</time>
      </trkpt>
      <trkpt lat="45.75107" lon="6.57611">
        <ele>1266</ele>
        <time>2021-03-30T07:50:10.984Z</time>
      </trkpt>
      <trkpt lat="45.75098" lon="6.57602">
        <ele>1266</ele>
        <time>2021-03-30T07:50:15.112Z</time>
      </trkpt>
      <trkpt lat="45.7507" lon="6.57593">
        <ele>1263</ele>
        <time>2021-03-30T07:50:18.903Z</time>
      </trkpt>
      <trkpt lat="45.75055" lon="6.57583">
        <ele>1262</ele>
        <time>2021-03-30T07:50:21.004Z</time>
      </trkpt>
      <trkpt lat="45.75028" lon="6.5755">
        <ele>1267</ele>
        <time>2021-03-30T07:51:12.491Z</time>
      </trkpt>
      <trkpt lat="45.75012" lon="6.57515">
        <ele>1275</ele>
        <time>2021-03-30T07:51:54.854Z</time>
      </trkpt>
      <trkpt lat="45.75004" lon="6.57505">
        <ele>1276</ele>
        <time>2021-03-30T07:52:04.683Z</time>
      </trkpt>
      <trkpt lat="45.7497" lon="6.57485">
        <ele>1278</ele>
        <time>2021-03-30T07:52:29.578Z</time>
      </trkpt>
      <trkpt lat="45.74959" lon="6.57473">
        <ele>1281</ele>
        <time>2021-03-30T07:52:49.637Z</time>
      </trkpt>
      <trkpt lat="45.74934" lon="6.57436">
        <ele>1293</ele>
        <time>2021-03-30T07:53:41.782Z</time>
      </trkpt>
      <trkpt lat="45.74865" lon="6.57365">
        <ele>1301</ele>
        <time>2021-03-30T07:55:00.416Z</time>
      </trkpt>
      <trkpt lat="45.74794" lon="6.57279">
        <ele>1307</ele>
        <time>2021-03-30T07:56:08.003Z</time>
      </trkpt>
      <trkpt lat="45.74771" lon="6.57242">
        <ele>1312</ele>
        <time>2021-03-30T07:56:58.174Z</time>
      </trkpt>
      <trkpt lat="45.74751" lon="6.57196">
        <ele>1323</ele>
        <time>2021-03-30T07:57:53.049Z</time>
      </trkpt>
      <trkpt lat="45.74697" lon="6.57158">
        <ele>1324</ele>
        <time>2021-03-30T07:58:19.744Z</time>
      </trkpt>
      <trkpt lat="45.74589" lon="6.57071">
        <ele>1327</ele>
        <time>2021-03-30T07:59:19.632Z</time>
      </trkpt>
      <trkpt lat="45.74522" lon="6.5703">
        <ele>1324</ele>
        <time>2021-03-30T07:59:30.559Z</time>
      </trkpt>
      <trkpt lat="45.74494" lon="6.56998">
        <ele>1326</ele>
        <time>2021-03-30T07:59:55.054Z</time>
      </trkpt>
      <trkpt lat="45.7446" lon="6.56942">
        <ele>1327</ele>
        <time>2021-03-30T08:00:18.725Z</time>
      </trkpt>
      <trkpt lat="45.74455" lon="6.5693">
        <ele>1328</ele>
        <time>2021-03-30T08:00:28.507Z</time>
      </trkpt>
      <trkpt lat="45.74451" lon="6.56901">
        <ele>1332</ele>
        <time>2021-03-30T08:00:58.439Z</time>
      </trkpt>
      <trkpt lat="45.74462" lon="6.56845">
        <ele>1341</ele>
        <time>2021-03-30T08:01:57.346Z</time>
      </trkpt>
      <trkpt lat="45.74463" lon="6.56828">
        <ele>1344</ele>
        <time>2021-03-30T08:02:14.620Z</time>
      </trkpt>
      <trkpt lat="45.74462" lon="6.56812">
        <ele>1345</ele>
        <time>2021-03-30T08:02:24.542Z</time>
      </trkpt>
      <trkpt lat="45.74454" lon="6.56783">
        <ele>1346</ele>
        <time>2021-03-30T08:02:38.486Z</time>
      </trkpt>
      <trkpt lat="45.74419" lon="6.56719">
        <ele>1349</ele>
        <time>2021-03-30T08:03:16.525Z</time>
      </trkpt>
      <trkpt lat="45.744" lon="6.56698">
        <ele>1348</ele>
        <time>2021-03-30T08:03:20.107Z</time>
      </trkpt>
      <trkpt lat="45.74364" lon="6.5664">
        <ele>1349</ele>
        <time>2021-03-30T08:03:44.631Z</time>
      </trkpt>
      <trkpt lat="45.74347" lon="6.56592">
        <ele>1353</ele>
        <time>2021-03-30T08:04:23.855Z</time>
      </trkpt>
      <trkpt lat="45.74305" lon="6.56509">
        <ele>1360</ele>
        <time>2021-03-30T08:05:32.400Z</time>
      </trkpt>
      <trkpt lat="45.74271" lon="6.56436">
        <ele>1366</ele>
        <time>2021-03-30T08:06:31.149Z</time>
      </trkpt>
      <trkpt lat="45.74263" lon="6.56412">
        <ele>1368</ele>
        <time>2021-03-30T08:06:50.789Z</time>
      </trkpt>
      <trkpt lat="45.74261" lon="6.56401">
        <ele>1368</ele>
        <time>2021-03-30T08:06:53.773Z</time>
      </trkpt>
      <trkpt lat="45.74267" lon="6.56371">
        <ele>1369</ele>
        <time>2021-03-30T08:07:07.725Z</time>
      </trkpt>
      <trkpt lat="45.74274" lon="6.56361">
        <ele>1370</ele>
        <time>2021-03-30T08:07:17.506Z</time>
      </trkpt>
      <trkpt lat="45.74322" lon="6.56326">
        <ele>1375</ele>
        <time>2021-03-30T08:08:06.754Z</time>
      </trkpt>
      <trkpt lat="45.74332" lon="6.56309">
        <ele>1378</ele>
        <time>2021-03-30T08:08:29.267Z</time>
      </trkpt>
      <trkpt lat="45.74335" lon="6.56281">
        <ele>1382</ele>
        <time>2021-03-30T08:08:57.951Z</time>
      </trkpt>
      <trkpt lat="45.74303" lon="6.56169">
        <ele>1384</ele>
        <time>2021-03-30T08:09:38.522Z</time>
      </trkpt>
      <trkpt lat="45.74297" lon="6.56108">
        <ele>1389</ele>
        <time>2021-03-30T08:10:28.520Z</time>
      </trkpt>
      <trkpt lat="45.74291" lon="6.56076">
        <ele>1392</ele>
        <time>2021-03-30T08:11:00.368Z</time>
      </trkpt>
      <trkpt lat="45.74284" lon="6.56059">
        <ele>1393</ele>
        <time>2021-03-30T08:11:11.004Z</time>
      </trkpt>
      <trkpt lat="45.7427" lon="6.56038">
        <ele>1393</ele>
        <time>2021-03-30T08:11:18.628Z</time>
      </trkpt>
      <trkpt lat="45.74237" lon="6.55996">
        <ele>1393</ele>
        <time>2021-03-30T08:11:35.231Z</time>
      </trkpt>
      <trkpt lat="45.74214" lon="6.5595">
        <ele>1397</ele>
        <time>2021-03-30T08:12:14.353Z</time>
      </trkpt>
      <trkpt lat="45.74209" lon="6.55932">
        <ele>1399</ele>
        <time>2021-03-30T08:12:33.971Z</time>
      </trkpt>
      <trkpt lat="45.74208" lon="6.55894">
        <ele>1403</ele>
        <time>2021-03-30T08:13:12.477Z</time>
      </trkpt>
      <trkpt lat="45.74203" lon="6.55875">
        <ele>1404</ele>
        <time>2021-03-30T08:13:23.250Z</time>
      </trkpt>
      <trkpt lat="45.74201" lon="6.55836">
        <ele>1408</ele>
        <time>2021-03-30T08:14:02.847Z</time>
      </trkpt>
      <trkpt lat="45.74174" lon="6.55775">
        <ele>1408</ele>
        <time>2021-03-30T08:14:21.811Z</time>
      </trkpt>
      <trkpt lat="45.74165" lon="6.55681">
        <ele>1416</ele>
        <time>2021-03-30T08:15:43.068Z</time>
      </trkpt>
      <trkpt lat="45.74156" lon="6.55637">
        <ele>1419</ele>
        <time>2021-03-30T08:16:12.574Z</time>
      </trkpt>
      <trkpt lat="45.74164" lon="6.55631">
        <ele>1421</ele>
        <time>2021-03-30T08:16:25.675Z</time>
      </trkpt>
      <trkpt lat="45.7417" lon="6.55635">
        <ele>1422</ele>
        <time>2021-03-30T08:16:35.277Z</time>
      </trkpt>
      <trkpt lat="45.74196" lon="6.55711">
        <ele>1421</ele>
        <time>2021-03-30T08:16:46.750Z</time>
      </trkpt>
      <trkpt lat="45.74207" lon="6.55731">
        <ele>1421</ele>
        <time>2021-03-30T08:16:53.435Z</time>
      </trkpt>
      <trkpt lat="45.7422" lon="6.55748">
        <ele>1421</ele>
        <time>2021-03-30T08:17:00.056Z</time>
      </trkpt>
      <trkpt lat="45.74252" lon="6.55764">
        <ele>1427</ele>
        <time>2021-03-30T08:17:49.231Z</time>
      </trkpt>
      <trkpt lat="45.74275" lon="6.55792">
        <ele>1428</ele>
        <time>2021-03-30T08:18:05.531Z</time>
      </trkpt>
      <trkpt lat="45.74284" lon="6.55799">
        <ele>1429</ele>
        <time>2021-03-30T08:18:15.325Z</time>
      </trkpt>
      <trkpt lat="45.74352" lon="6.55813">
        <ele>1443</ele>
        <time>2021-03-30T08:19:55.002Z</time>
      </trkpt>
      <trkpt lat="45.74367" lon="6.55822">
        <ele>1445</ele>
        <time>2021-03-30T08:20:15.501Z</time>
      </trkpt>
      <trkpt lat="45.74378" lon="6.55848">
        <ele>1444</ele>
        <time>2021-03-30T08:20:18.515Z</time>
      </trkpt>
      <trkpt lat="45.744" lon="6.55919">
        <ele>1439</ele>
        <time>2021-03-30T08:20:25.676Z</time>
      </trkpt>
      <trkpt lat="45.74408" lon="6.55934">
        <ele>1439</ele>
        <time>2021-03-30T08:20:30.632Z</time>
      </trkpt>
      <trkpt lat="45.74412" lon="6.55937">
        <ele>1439</ele>
        <time>2021-03-30T08:20:32.331Z</time>
      </trkpt>
      <trkpt lat="45.7442" lon="6.55935">
        <ele>1441</ele>
        <time>2021-03-30T08:20:44.114Z</time>
      </trkpt>
      <trkpt lat="45.74423" lon="6.55924">
        <ele>1443</ele>
        <time>2021-03-30T08:20:56.072Z</time>
      </trkpt>
      <trkpt lat="45.7442" lon="6.55915">
        <ele>1444</ele>
        <time>2021-03-30T08:21:06.171Z</time>
      </trkpt>
      <trkpt lat="45.74405" lon="6.55898">
        <ele>1443</ele>
        <time>2021-03-30T08:21:08.769Z</time>
      </trkpt>
      <trkpt lat="45.744" lon="6.55884">
        <ele>1444</ele>
        <time>2021-03-30T08:21:18.649Z</time>
      </trkpt>
      <trkpt lat="45.74398" lon="6.55865">
        <ele>1446</ele>
        <time>2021-03-30T08:21:38.105Z</time>
      </trkpt>
      <trkpt lat="45.74401" lon="6.5582">
        <ele>1453</ele>
        <time>2021-03-30T08:22:23.878Z</time>
      </trkpt>
      <trkpt lat="45.74396" lon="6.55792">
        <ele>1457</ele>
        <time>2021-03-30T08:22:53.143Z</time>
      </trkpt>
      <trkpt lat="45.74375" lon="6.55761">
        <ele>1457</ele>
        <time>2021-03-30T08:23:04.485Z</time>
      </trkpt>
      <trkpt lat="45.74369" lon="6.55748">
        <ele>1457</ele>
        <time>2021-03-30T08:23:08.576Z</time>
      </trkpt>
      <trkpt lat="45.74363" lon="6.55715">
        <ele>1462</ele>
        <time>2021-03-30T08:23:43.107Z</time>
      </trkpt>
      <trkpt lat="45.74357" lon="6.55697">
        <ele>1463</ele>
        <time>2021-03-30T08:23:53.792Z</time>
      </trkpt>
      <trkpt lat="45.74333" lon="6.55663">
        <ele>1463</ele>
        <time>2021-03-30T08:24:06.487Z</time>
      </trkpt>
      <trkpt lat="45.74322" lon="6.55639">
        <ele>1464</ele>
        <time>2021-03-30T08:24:19.659Z</time>
      </trkpt>
      <trkpt lat="45.74313" lon="6.55545">
        <ele>1471</ele>
        <time>2021-03-30T08:25:28.253Z</time>
      </trkpt>
      <trkpt lat="45.74297" lon="6.55484">
        <ele>1471</ele>
        <time>2021-03-30T08:25:45.361Z</time>
      </trkpt>
      <trkpt lat="45.74294" lon="6.55448">
        <ele>1472</ele>
        <time>2021-03-30T08:26:00.279Z</time>
      </trkpt>
      <trkpt lat="45.74315" lon="6.55324">
        <ele>1483</ele>
        <time>2021-03-30T08:27:53.302Z</time>
      </trkpt>
      <trkpt lat="45.74314" lon="6.55296">
        <ele>1485</ele>
        <time>2021-03-30T08:28:12.865Z</time>
      </trkpt>
      <trkpt lat="45.74292" lon="6.55197">
        <ele>1487</ele>
        <time>2021-03-30T08:28:49.361Z</time>
      </trkpt>
      <trkpt lat="45.74291" lon="6.55179">
        <ele>1488</ele>
        <time>2021-03-30T08:28:59.623Z</time>
      </trkpt>
      <trkpt lat="45.74304" lon="6.55106">
        <ele>1492</ele>
        <time>2021-03-30T08:29:41.333Z</time>
      </trkpt>
      <trkpt lat="45.74315" lon="6.5508">
        <ele>1494</ele>
        <time>2021-03-30T08:30:00.990Z</time>
      </trkpt>
      <trkpt lat="45.74424" lon="6.54944">
        <ele>1515</ele>
        <time>2021-03-30T08:33:30.694Z</time>
      </trkpt>
      <trkpt lat="45.74435" lon="6.54932">
        <ele>1515</ele>
        <time>2021-03-30T08:33:35.895Z</time>
      </trkpt>
      <trkpt lat="45.74446" lon="6.54925">
        <ele>1515</ele>
        <time>2021-03-30T08:33:40.422Z</time>
      </trkpt>
      <trkpt lat="45.74466" lon="6.54921">
        <ele>1516</ele>
        <time>2021-03-30T08:33:53.663Z</time>
      </trkpt>
      <trkpt lat="45.74483" lon="6.54926">
        <ele>1516</ele>
        <time>2021-03-30T08:34:00.192Z</time>
      </trkpt>
      <trkpt lat="45.74494" lon="6.54933">
        <ele>1516</ele>
        <time>2021-03-30T08:34:04.719Z</time>
      </trkpt>
      <trkpt lat="45.74516" lon="6.54953">
        <ele>1519</ele>
        <time>2021-03-30T08:34:34.619Z</time>
      </trkpt>
      <trkpt lat="45.74526" lon="6.54955">
        <ele>1519</ele>
        <time>2021-03-30T08:34:38.417Z</time>
      </trkpt>
      <trkpt lat="45.74613" lon="6.54915">
        <ele>1525</ele>
        <time>2021-03-30T08:35:45.390Z</time>
      </trkpt>
      <trkpt lat="45.74657" lon="6.54904">
        <ele>1527</ele>
        <time>2021-03-30T08:36:13.796Z</time>
      </trkpt>
      <trkpt lat="45.74696" lon="6.54899">
        <ele>1532</ele>
        <time>2021-03-30T08:37:06.258Z</time>
      </trkpt>
      <trkpt lat="45.74711" lon="6.54886">
        <ele>1534</ele>
        <time>2021-03-30T08:37:26.135Z</time>
      </trkpt>
      <trkpt lat="45.74724" lon="6.5487">
        <ele>1536</ele>
        <time>2021-03-30T08:37:46.159Z</time>
      </trkpt>
      <trkpt lat="45.74734" lon="6.54851">
        <ele>1537</ele>
        <time>2021-03-30T08:37:57.866Z</time>
      </trkpt>
      <trkpt lat="45.7474" lon="6.54825">
        <ele>1538</ele>
        <time>2021-03-30T08:38:10.630Z</time>
      </trkpt>
      <trkpt lat="45.74742" lon="6.54803">
        <ele>1538</ele>
        <time>2021-03-30T08:38:16.454Z</time>
      </trkpt>
      <trkpt lat="45.74751" lon="6.54778">
        <ele>1539</ele>
        <time>2021-03-30T08:38:29.446Z</time>
      </trkpt>
      <trkpt lat="45.74768" lon="6.5476">
        <ele>1541</ele>
        <time>2021-03-30T08:38:49.093Z</time>
      </trkpt>
      <trkpt lat="45.74778" lon="6.54753">
        <ele>1542</ele>
        <time>2021-03-30T08:38:59.000Z</time>
      </trkpt>
      <trkpt lat="45.74804" lon="6.54745">
        <ele>1545</ele>
        <time>2021-03-30T08:39:28.726Z</time>
      </trkpt>
      <trkpt lat="45.74811" lon="6.54745">
        <ele>1546</ele>
        <time>2021-03-30T08:39:38.882Z</time>
      </trkpt>
      <trkpt lat="45.74824" lon="6.54751">
        <ele>1548</ele>
        <time>2021-03-30T08:39:58.698Z</time>
      </trkpt>
      <trkpt lat="45.74845" lon="6.54766">
        <ele>1550</ele>
        <time>2021-03-30T08:40:18.765Z</time>
      </trkpt>
      <trkpt lat="45.74853" lon="6.54769">
        <ele>1551</ele>
        <time>2021-03-30T08:40:28.926Z</time>
      </trkpt>
      <trkpt lat="45.74867" lon="6.5477">
        <ele>1552</ele>
        <time>2021-03-30T08:40:39.645Z</time>
      </trkpt>
      <trkpt lat="45.74884" lon="6.54767">
        <ele>1553</ele>
        <time>2021-03-30T08:40:51.566Z</time>
      </trkpt>
      <trkpt lat="45.74956" lon="6.54744">
        <ele>1558</ele>
        <time>2021-03-30T08:41:46.485Z</time>
      </trkpt>
      <trkpt lat="45.75033" lon="6.54731">
        <ele>1565</ele>
        <time>2021-03-30T08:42:55.770Z</time>
      </trkpt>
      <trkpt lat="45.75112" lon="6.54706">
        <ele>1570</ele>
        <time>2021-03-30T08:43:53.444Z</time>
      </trkpt>
      <trkpt lat="45.75283" lon="6.54639">
        <ele>1582</ele>
        <time>2021-03-30T08:46:05.336Z</time>
      </trkpt>
      <trkpt lat="45.7531" lon="6.54635">
        <ele>1585</ele>
        <time>2021-03-30T08:46:34.923Z</time>
      </trkpt>
      <trkpt lat="45.75379" lon="6.5459">
        <ele>1588</ele>
        <time>2021-03-30T08:47:19.654Z</time>
      </trkpt>
      <trkpt lat="45.75389" lon="6.54587">
        <ele>1588</ele>
        <time>2021-03-30T08:47:23.497Z</time>
      </trkpt>
      <trkpt lat="45.7542" lon="6.54593">
        <ele>1593</ele>
        <time>2021-03-30T08:48:08.884Z</time>
      </trkpt>
      <trkpt lat="45.75433" lon="6.54591">
        <ele>1595</ele>
        <time>2021-03-30T08:48:27.855Z</time>
      </trkpt>
      <trkpt lat="45.75445" lon="6.54586">
        <ele>1597</ele>
        <time>2021-03-30T08:48:45.987Z</time>
      </trkpt>
      <trkpt lat="45.75467" lon="6.5457">
        <ele>1601</ele>
        <time>2021-03-30T08:49:21.782Z</time>
      </trkpt>
      <trkpt lat="45.75479" lon="6.54558">
        <ele>1602</ele>
        <time>2021-03-30T08:49:32.721Z</time>
      </trkpt>
      <trkpt lat="45.75497" lon="6.54538">
        <ele>1604</ele>
        <time>2021-03-30T08:49:52.636Z</time>
      </trkpt>
      <trkpt lat="45.75509" lon="6.54518">
        <ele>1605</ele>
        <time>2021-03-30T08:50:05.096Z</time>
      </trkpt>
      <trkpt lat="45.75528" lon="6.54477">
        <ele>1606</ele>
        <time>2021-03-30T08:50:22.713Z</time>
      </trkpt>
      <trkpt lat="45.75555" lon="6.5439">
        <ele>1609</ele>
        <time>2021-03-30T08:51:05.067Z</time>
      </trkpt>
      <trkpt lat="45.75612" lon="6.54234">
        <ele>1619</ele>
        <time>2021-03-30T08:52:46.807Z</time>
      </trkpt>
      <trkpt lat="45.75635" lon="6.54118">
        <ele>1624</ele>
        <time>2021-03-30T08:53:45.793Z</time>
      </trkpt>
      <trkpt lat="45.75644" lon="6.54092">
        <ele>1625</ele>
        <time>2021-03-30T08:53:59.059Z</time>
      </trkpt>
      <trkpt lat="45.75651" lon="6.54091">
        <ele>1626</ele>
        <time>2021-03-30T08:54:09.266Z</time>
      </trkpt>
      <trkpt lat="45.75653" lon="6.54086">
        <ele>1627</ele>
        <time>2021-03-30T08:54:15.100Z</time>
      </trkpt>
      <trkpt lat="45.7565" lon="6.54075">
        <ele>1626</ele>
        <time>2021-03-30T08:54:16.189Z</time>
      </trkpt>
      <trkpt lat="45.75704" lon="6.53969">
        <ele>1634</ele>
        <time>2021-03-30T08:55:35.946Z</time>
      </trkpt>
      <trkpt lat="45.75715" lon="6.53943">
        <ele>1635</ele>
        <time>2021-03-30T08:55:49.643Z</time>
      </trkpt>
      <trkpt lat="45.75723" lon="6.53942">
        <ele>1637</ele>
        <time>2021-03-30T08:56:01.294Z</time>
      </trkpt>
      <trkpt lat="45.75725" lon="6.53936">
        <ele>1637</ele>
        <time>2021-03-30T08:56:03.040Z</time>
      </trkpt>
      <trkpt lat="45.75722" lon="6.53928">
        <ele>1636</ele>
        <time>2021-03-30T08:56:03.877Z</time>
      </trkpt>
      <trkpt lat="45.75736" lon="6.53908">
        <ele>1638</ele>
        <time>2021-03-30T08:56:23.438Z</time>
      </trkpt>
      <trkpt lat="45.75752" lon="6.53845">
        <ele>1641</ele>
        <time>2021-03-30T08:56:57.346Z</time>
      </trkpt>
      <trkpt lat="45.75789" lon="6.53748">
        <ele>1648</ele>
        <time>2021-03-30T08:58:06.561Z</time>
      </trkpt>
      <trkpt lat="45.75802" lon="6.53693">
        <ele>1649</ele>
        <time>2021-03-30T08:58:26.254Z</time>
      </trkpt>
      <trkpt lat="45.75816" lon="6.53662">
        <ele>1651</ele>
        <time>2021-03-30T08:58:46.946Z</time>
      </trkpt>
      <trkpt lat="45.7583" lon="6.5362">
        <ele>1652</ele>
        <time>2021-03-30T08:59:03.962Z</time>
      </trkpt>
      <trkpt lat="45.75844" lon="6.53592">
        <ele>1653</ele>
        <time>2021-03-30T08:59:18.570Z</time>
      </trkpt>
      <trkpt lat="45.75894" lon="6.5353">
        <ele>1656</ele>
        <time>2021-03-30T09:00:00.778Z</time>
      </trkpt>
      <trkpt lat="45.75941" lon="6.53435">
        <ele>1658</ele>
        <time>2021-03-30T09:00:40.240Z</time>
      </trkpt>
      <trkpt lat="45.75948" lon="6.53438">
        <ele>1658</ele>
        <time>2021-03-30T09:00:42.988Z</time>
      </trkpt>
      <trkpt lat="45.75953" lon="6.53435">
        <ele>1659</ele>
        <time>2021-03-30T09:00:50.853Z</time>
      </trkpt>
      <trkpt lat="45.75955" lon="6.53429">
        <ele>1659</ele>
        <time>2021-03-30T09:00:52.598Z</time>
      </trkpt>
      <trkpt lat="45.75954" lon="6.53418">
        <ele>1658</ele>
        <time>2021-03-30T09:00:53.620Z</time>
      </trkpt>
      <trkpt lat="45.75998" lon="6.53376">
        <ele>1659</ele>
        <time>2021-03-30T09:01:17.674Z</time>
      </trkpt>
      <trkpt lat="45.76032" lon="6.53357">
        <ele>1659</ele>
        <time>2021-03-30T09:01:31.401Z</time>
      </trkpt>
      <trkpt lat="45.7607" lon="6.53347">
        <ele>1660</ele>
        <time>2021-03-30T09:01:50.451Z</time>
      </trkpt>
      <trkpt lat="45.76144" lon="6.53335">
        <ele>1658</ele>
        <time>2021-03-30T09:02:03.357Z</time>
      </trkpt>
      <trkpt lat="45.76177" lon="6.53334">
        <ele>1657</ele>
        <time>2021-03-30T09:02:08.872Z</time>
      </trkpt>
      <trkpt lat="45.76234" lon="6.53337">
        <ele>1657</ele>
        <time>2021-03-30T09:02:30.328Z</time>
      </trkpt>
      <trkpt lat="45.76262" lon="6.53342">
        <ele>1656</ele>
        <time>2021-03-30T09:02:34.801Z</time>
      </trkpt>
      <trkpt lat="45.76281" lon="6.53349">
        <ele>1657</ele>
        <time>2021-03-30T09:02:47.788Z</time>
      </trkpt>
      <trkpt lat="45.76315" lon="6.53372">
        <ele>1658</ele>
        <time>2021-03-30T09:03:06.485Z</time>
      </trkpt>
      <trkpt lat="45.76315" lon="6.53384">
        <ele>1659</ele>
        <time>2021-03-30T09:03:16.590Z</time>
      </trkpt>
      <trkpt lat="45.76319" lon="6.5339">
        <ele>1659</ele>
        <time>2021-03-30T09:03:18.768Z</time>
      </trkpt>
      <trkpt lat="45.76328" lon="6.53391">
        <ele>1659</ele>
        <time>2021-03-30T09:03:22.164Z</time>
      </trkpt>
      <trkpt lat="45.76333" lon="6.53387">
        <ele>1659</ele>
        <time>2021-03-30T09:03:24.318Z</time>
      </trkpt>
      <trkpt lat="45.76334" lon="6.53383">
        <ele>1658</ele>
        <time>2021-03-30T09:03:24.709Z</time>
      </trkpt>
      <trkpt lat="45.76354" lon="6.5339">
        <ele>1659</ele>
        <time>2021-03-30T09:03:38.125Z</time>
      </trkpt>
      <trkpt lat="45.76364" lon="6.53391">
        <ele>1659</ele>
        <time>2021-03-30T09:03:41.896Z</time>
      </trkpt>
      <trkpt lat="45.76519" lon="6.53335">
        <ele>1649</ele>
        <time>2021-03-30T09:04:01.861Z</time>
      </trkpt>
      <trkpt lat="45.76556" lon="6.53307">
        <ele>1648</ele>
        <time>2021-03-30T09:04:09.352Z</time>
      </trkpt>
      <trkpt lat="45.76607" lon="6.53263">
        <ele>1643</ele>
        <time>2021-03-30T09:04:17.214Z</time>
      </trkpt>
      <trkpt lat="45.76696" lon="6.53224">
        <ele>1639</ele>
        <time>2021-03-30T09:04:30.940Z</time>
      </trkpt>
      <trkpt lat="45.76824" lon="6.53182">
        <ele>1628</ele>
        <time>2021-03-30T09:04:48.285Z</time>
      </trkpt>
      <trkpt lat="45.76844" lon="6.53181">
        <ele>1625</ele>
        <time>2021-03-30T09:04:50.929Z</time>
      </trkpt>
      <trkpt lat="45.76856" lon="6.53183">
        <ele>1624</ele>
        <time>2021-03-30T09:04:52.525Z</time>
      </trkpt>
      <trkpt lat="45.76873" lon="6.53189">
        <ele>1624</ele>
        <time>2021-03-30T09:04:59.110Z</time>
      </trkpt>
      <trkpt lat="45.76925" lon="6.53215">
        <ele>1625</ele>
        <time>2021-03-30T09:05:23.960Z</time>
      </trkpt>
      <trkpt lat="45.76971" lon="6.53264">
        <ele>1625</ele>
        <time>2021-03-30T09:05:45.518Z</time>
      </trkpt>
      <trkpt lat="45.77029" lon="6.5331">
        <ele>1614</ele>
        <time>2021-03-30T09:05:54.273Z</time>
      </trkpt>
      <trkpt lat="45.77049" lon="6.53345">
        <ele>1611</ele>
        <time>2021-03-30T09:05:58.442Z</time>
      </trkpt>
      <trkpt lat="45.77097" lon="6.53451">
        <ele>1608</ele>
        <time>2021-03-30T09:06:12.615Z</time>
      </trkpt>
      <trkpt lat="45.77105" lon="6.53464">
        <ele>1608</ele>
        <time>2021-03-30T09:06:17.164Z</time>
      </trkpt>
      <trkpt lat="45.77148" lon="6.53514">
        <ele>1601</ele>
        <time>2021-03-30T09:06:24.477Z</time>
      </trkpt>
      <trkpt lat="45.77202" lon="6.53611">
        <ele>1603</ele>
        <time>2021-03-30T09:07:05.782Z</time>
      </trkpt>
      <trkpt lat="45.77216" lon="6.5363">
        <ele>1604</ele>
        <time>2021-03-30T09:07:18.619Z</time>
      </trkpt>
      <trkpt lat="45.7723" lon="6.53642">
        <ele>1604</ele>
        <time>2021-03-30T09:07:24.755Z</time>
      </trkpt>
      <trkpt lat="45.77244" lon="6.53645">
        <ele>1604</ele>
        <time>2021-03-30T09:07:30.080Z</time>
      </trkpt>
      <trkpt lat="45.77251" lon="6.53644">
        <ele>1604</ele>
        <time>2021-03-30T09:07:32.726Z</time>
      </trkpt>
      <trkpt lat="45.77272" lon="6.53635">
        <ele>1607</ele>
        <time>2021-03-30T09:08:04.528Z</time>
      </trkpt>
      <trkpt lat="45.77313" lon="6.53631">
        <ele>1612</ele>
        <time>2021-03-30T09:08:55.489Z</time>
      </trkpt>
      <trkpt lat="45.77335" lon="6.5362">
        <ele>1614</ele>
        <time>2021-03-30T09:09:15.518Z</time>
      </trkpt>
      <trkpt lat="45.77362" lon="6.53595">
        <ele>1614</ele>
        <time>2021-03-30T09:09:27.608Z</time>
      </trkpt>
      <trkpt lat="45.77386" lon="6.53564">
        <ele>1610</ele>
        <time>2021-03-30T09:09:31.875Z</time>
      </trkpt>
      <trkpt lat="45.77402" lon="6.53552">
        <ele>1608</ele>
        <time>2021-03-30T09:09:34.261Z</time>
      </trkpt>
      <trkpt lat="45.77423" lon="6.5355">
        <ele>1608</ele>
        <time>2021-03-30T09:09:42.178Z</time>
      </trkpt>
      <trkpt lat="45.77497" lon="6.53554">
        <ele>1607</ele>
        <time>2021-03-30T09:09:57.187Z</time>
      </trkpt>
      <trkpt lat="45.77528" lon="6.53563">
        <ele>1604</ele>
        <time>2021-03-30T09:10:01.364Z</time>
      </trkpt>
      <trkpt lat="45.77573" lon="6.53587">
        <ele>1603</ele>
        <time>2021-03-30T09:10:10.268Z</time>
      </trkpt>
      <trkpt lat="45.77594" lon="6.53601">
        <ele>1603</ele>
        <time>2021-03-30T09:10:18.980Z</time>
      </trkpt>
      <trkpt lat="45.77635" lon="6.53642">
        <ele>1606</ele>
        <time>2021-03-30T09:10:54.168Z</time>
      </trkpt>
      <trkpt lat="45.77647" lon="6.53649">
        <ele>1605</ele>
        <time>2021-03-30T09:10:55.879Z</time>
      </trkpt>
      <trkpt lat="45.77724" lon="6.53671">
        <ele>1593</ele>
        <time>2021-03-30T09:11:06.250Z</time>
      </trkpt>
      <trkpt lat="45.77795" lon="6.53698">
        <ele>1583</ele>
        <time>2021-03-30T09:11:15.953Z</time>
      </trkpt>
      <trkpt lat="45.7788" lon="6.5376">
        <ele>1572</ele>
        <time>2021-03-30T09:11:28.550Z</time>
      </trkpt>
      <trkpt lat="45.77899" lon="6.53775">
        <ele>1568</ele>
        <time>2021-03-30T09:11:31.415Z</time>
      </trkpt>
      <trkpt lat="45.77909" lon="6.53786">
        <ele>1566</ele>
        <time>2021-03-30T09:11:33.080Z</time>
      </trkpt>
      <trkpt lat="45.77944" lon="6.53844">
        <ele>1563</ele>
        <time>2021-03-30T09:11:40.117Z</time>
      </trkpt>
      <trkpt lat="45.77983" lon="6.53935">
        <ele>1552</ele>
        <time>2021-03-30T09:11:49.957Z</time>
      </trkpt>
      <trkpt lat="45.78025" lon="6.54053">
        <ele>1543</ele>
        <time>2021-03-30T09:12:02.161Z</time>
      </trkpt>
      <trkpt lat="45.78049" lon="6.54137">
        <ele>1540</ele>
        <time>2021-03-30T09:12:11.133Z</time>
      </trkpt>
      <trkpt lat="45.78056" lon="6.54168">
        <ele>1539</ele>
        <time>2021-03-30T09:12:14.453Z</time>
      </trkpt>
      <trkpt lat="45.78063" lon="6.54217">
        <ele>1536</ele>
        <time>2021-03-30T09:12:19.061Z</time>
      </trkpt>
      <trkpt lat="45.7806" lon="6.54245">
        <ele>1537</ele>
        <time>2021-03-30T09:12:32.109Z</time>
      </trkpt>
      <trkpt lat="45.78048" lon="6.54281">
        <ele>1542</ele>
        <time>2021-03-30T09:13:12.484Z</time>
      </trkpt>
      <trkpt lat="45.78049" lon="6.5433">
        <ele>1542</ele>
        <time>2021-03-30T09:13:25.344Z</time>
      </trkpt>
      <trkpt lat="45.78053" lon="6.54336">
        <ele>1540</ele>
        <time>2021-03-30T09:13:26.109Z</time>
      </trkpt>
      <trkpt lat="45.7807" lon="6.54348">
        <ele>1535</ele>
        <time>2021-03-30T09:13:28.612Z</time>
      </trkpt>
      <trkpt lat="45.78089" lon="6.54356">
        <ele>1529</ele>
        <time>2021-03-30T09:13:31.228Z</time>
      </trkpt>
      <trkpt lat="45.7813" lon="6.54381">
        <ele>1524</ele>
        <time>2021-03-30T09:13:37.113Z</time>
      </trkpt>
      <trkpt lat="45.78141" lon="6.54394">
        <ele>1522</ele>
        <time>2021-03-30T09:13:38.996Z</time>
      </trkpt>
      <trkpt lat="45.78157" lon="6.54421">
        <ele>1521</ele>
        <time>2021-03-30T09:13:42.726Z</time>
      </trkpt>
      <trkpt lat="45.78167" lon="6.54449">
        <ele>1520</ele>
        <time>2021-03-30T09:13:45.886Z</time>
      </trkpt>
      <trkpt lat="45.7817" lon="6.54472">
        <ele>1520</ele>
        <time>2021-03-30T09:13:52.025Z</time>
      </trkpt>
      <trkpt lat="45.78179" lon="6.5464">
        <ele>1511</ele>
        <time>2021-03-30T09:14:07.546Z</time>
      </trkpt>
      <trkpt lat="45.78174" lon="6.54701">
        <ele>1508</ele>
        <time>2021-03-30T09:14:13.204Z</time>
      </trkpt>
      <trkpt lat="45.78166" lon="6.54733">
        <ele>1507</ele>
        <time>2021-03-30T09:14:16.727Z</time>
      </trkpt>
      <trkpt lat="45.78148" lon="6.54784">
        <ele>1508</ele>
        <time>2021-03-30T09:14:36.196Z</time>
      </trkpt>
      <trkpt lat="45.78137" lon="6.54808">
        <ele>1507</ele>
        <time>2021-03-30T09:14:38.971Z</time>
      </trkpt>
      <trkpt lat="45.78125" lon="6.54828">
        <ele>1506</ele>
        <time>2021-03-30T09:14:41.427Z</time>
      </trkpt>
      <trkpt lat="45.78094" lon="6.54867">
        <ele>1500</ele>
        <time>2021-03-30T09:14:46.875Z</time>
      </trkpt>
      <trkpt lat="45.78061" lon="6.54914">
        <ele>1490</ele>
        <time>2021-03-30T09:14:53.019Z</time>
      </trkpt>
      <trkpt lat="45.78022" lon="6.54961">
        <ele>1494</ele>
        <time>2021-03-30T09:15:34.227Z</time>
      </trkpt>
      <trkpt lat="45.78018" lon="6.54968">
        <ele>1494</ele>
        <time>2021-03-30T09:15:36.601Z</time>
      </trkpt>
      <trkpt lat="45.78004" lon="6.55018">
        <ele>1496</ele>
        <time>2021-03-30T09:16:01.851Z</time>
      </trkpt>
      <trkpt lat="45.78003" lon="6.55024">
        <ele>1497</ele>
        <time>2021-03-30T09:16:08.093Z</time>
      </trkpt>
      <trkpt lat="45.78008" lon="6.55046">
        <ele>1496</ele>
        <time>2021-03-30T09:16:10.118Z</time>
      </trkpt>
      <trkpt lat="45.78023" lon="6.55091">
        <ele>1490</ele>
        <time>2021-03-30T09:16:14.713Z</time>
      </trkpt>
      <trkpt lat="45.78024" lon="6.55112">
        <ele>1488</ele>
        <time>2021-03-30T09:16:16.652Z</time>
      </trkpt>
      <trkpt lat="45.7802" lon="6.55137">
        <ele>1488</ele>
        <time>2021-03-30T09:16:23.381Z</time>
      </trkpt>
      <trkpt lat="45.77984" lon="6.55287">
        <ele>1489</ele>
        <time>2021-03-30T09:17:08.754Z</time>
      </trkpt>
      <trkpt lat="45.77983" lon="6.55302">
        <ele>1487</ele>
        <time>2021-03-30T09:17:10.143Z</time>
      </trkpt>
      <trkpt lat="45.7799" lon="6.55384">
        <ele>1475</ele>
        <time>2021-03-30T09:17:17.753Z</time>
      </trkpt>
      <trkpt lat="45.77969" lon="6.55531">
        <ele>1464</ele>
        <time>2021-03-30T09:17:31.576Z</time>
      </trkpt>
      <trkpt lat="45.77963" lon="6.55559">
        <ele>1459</ele>
        <time>2021-03-30T09:17:34.275Z</time>
      </trkpt>
      <trkpt lat="45.77957" lon="6.55572">
        <ele>1458</ele>
        <time>2021-03-30T09:17:35.711Z</time>
      </trkpt>
      <trkpt lat="45.77867" lon="6.5575">
        <ele>1455</ele>
        <time>2021-03-30T09:18:04.568Z</time>
      </trkpt>
      <trkpt lat="45.77856" lon="6.55781">
        <ele>1454</ele>
        <time>2021-03-30T09:18:08.205Z</time>
      </trkpt>
      <trkpt lat="45.77834" lon="6.55879">
        <ele>1441</ele>
        <time>2021-03-30T09:18:17.689Z</time>
      </trkpt>
      <trkpt lat="45.77814" lon="6.5592">
        <ele>1441</ele>
        <time>2021-03-30T09:18:30.815Z</time>
      </trkpt>
      <trkpt lat="45.77813" lon="6.55936">
        <ele>1440</ele>
        <time>2021-03-30T09:18:32.295Z</time>
      </trkpt>
      <trkpt lat="45.77815" lon="6.55946">
        <ele>1439</ele>
        <time>2021-03-30T09:18:33.254Z</time>
      </trkpt>
      <trkpt lat="45.77825" lon="6.55963">
        <ele>1436</ele>
        <time>2021-03-30T09:18:35.303Z</time>
      </trkpt>
      <trkpt lat="45.77842" lon="6.55982">
        <ele>1436</ele>
        <time>2021-03-30T09:18:43.411Z</time>
      </trkpt>
      <trkpt lat="45.77862" lon="6.55992">
        <ele>1439</ele>
        <time>2021-03-30T09:19:14.143Z</time>
      </trkpt>
      <trkpt lat="45.77872" lon="6.55993">
        <ele>1441</ele>
        <time>2021-03-30T09:19:28.688Z</time>
      </trkpt>
      <trkpt lat="45.77889" lon="6.5599">
        <ele>1442</ele>
        <time>2021-03-30T09:19:40.609Z</time>
      </trkpt>
      <trkpt lat="45.7795" lon="6.55957">
        <ele>1444</ele>
        <time>2021-03-30T09:20:14.718Z</time>
      </trkpt>
      <trkpt lat="45.77994" lon="6.55905">
        <ele>1439</ele>
        <time>2021-03-30T09:20:22.250Z</time>
      </trkpt>
      <trkpt lat="45.78005" lon="6.55889">
        <ele>1439</ele>
        <time>2021-03-30T09:20:28.144Z</time>
      </trkpt>
      <trkpt lat="45.78034" lon="6.55835">
        <ele>1438</ele>
        <time>2021-03-30T09:20:36.937Z</time>
      </trkpt>
      <trkpt lat="45.78048" lon="6.55816">
        <ele>1438</ele>
        <time>2021-03-30T09:20:44.188Z</time>
      </trkpt>
      <trkpt lat="45.7807" lon="6.55796">
        <ele>1439</ele>
        <time>2021-03-30T09:20:59.301Z</time>
      </trkpt>
      <trkpt lat="45.78105" lon="6.55776">
        <ele>1445</ele>
        <time>2021-03-30T09:21:53.968Z</time>
      </trkpt>
      <trkpt lat="45.78117" lon="6.55766">
        <ele>1446</ele>
        <time>2021-03-30T09:22:04.639Z</time>
      </trkpt>
      <trkpt lat="45.78128" lon="6.55749">
        <ele>1447</ele>
        <time>2021-03-30T09:22:16.171Z</time>
      </trkpt>
      <trkpt lat="45.78159" lon="6.55666">
        <ele>1443</ele>
        <time>2021-03-30T09:22:24.479Z</time>
      </trkpt>
      <trkpt lat="45.78196" lon="6.55602">
        <ele>1450</ele>
        <time>2021-03-30T09:23:35.558Z</time>
      </trkpt>
      <trkpt lat="45.78229" lon="6.55508">
        <ele>1451</ele>
        <time>2021-03-30T09:24:07.102Z</time>
      </trkpt>
      <trkpt lat="45.78269" lon="6.55415">
        <ele>1452</ele>
        <time>2021-03-30T09:24:39.683Z</time>
      </trkpt>
      <trkpt lat="45.7831" lon="6.55358">
        <ele>1458</ele>
        <time>2021-03-30T09:25:38.447Z</time>
      </trkpt>
      <trkpt lat="45.78348" lon="6.55284">
        <ele>1455</ele>
        <time>2021-03-30T09:25:47.576Z</time>
      </trkpt>
      <trkpt lat="45.78406" lon="6.55193">
        <ele>1452</ele>
        <time>2021-03-30T09:26:01.280Z</time>
      </trkpt>
      <trkpt lat="45.78504" lon="6.5508">
        <ele>1463</ele>
        <time>2021-03-30T09:27:50.912Z</time>
      </trkpt>
      <trkpt lat="45.78516" lon="6.55061">
        <ele>1464</ele>
        <time>2021-03-30T09:28:03.146Z</time>
      </trkpt>
      <trkpt lat="45.78529" lon="6.55034">
        <ele>1465</ele>
        <time>2021-03-30T09:28:17.499Z</time>
      </trkpt>
      <trkpt lat="45.7856" lon="6.54954">
        <ele>1465</ele>
        <time>2021-03-30T09:28:41.507Z</time>
      </trkpt>
      <trkpt lat="45.78583" lon="6.54878">
        <ele>1461</ele>
        <time>2021-03-30T09:28:49.138Z</time>
      </trkpt>
      <trkpt lat="45.78661" lon="6.54734">
        <ele>1459</ele>
        <time>2021-03-30T09:29:14.201Z</time>
      </trkpt>
      <trkpt lat="45.78675" lon="6.54722">
        <ele>1461</ele>
        <time>2021-03-30T09:29:34.668Z</time>
      </trkpt>
      <trkpt lat="45.78714" lon="6.54702">
        <ele>1464</ele>
        <time>2021-03-30T09:30:06.605Z</time>
      </trkpt>
      <trkpt lat="45.7874" lon="6.54698">
        <ele>1467</ele>
        <time>2021-03-30T09:30:36.471Z</time>
      </trkpt>
      <trkpt lat="45.78869" lon="6.54693">
        <ele>1466</ele>
        <time>2021-03-30T09:31:04.688Z</time>
      </trkpt>
      <trkpt lat="45.78901" lon="6.54677">
        <ele>1464</ele>
        <time>2021-03-30T09:31:09.041Z</time>
      </trkpt>
      <trkpt lat="45.78925" lon="6.54655">
        <ele>1462</ele>
        <time>2021-03-30T09:31:12.803Z</time>
      </trkpt>
      <trkpt lat="45.78934" lon="6.54642">
        <ele>1462</ele>
        <time>2021-03-30T09:31:17.608Z</time>
      </trkpt>
      <trkpt lat="45.78972" lon="6.54564">
        <ele>1457</ele>
        <time>2021-03-30T09:31:26.373Z</time>
      </trkpt>
      <trkpt lat="45.78994" lon="6.54532">
        <ele>1455</ele>
        <time>2021-03-30T09:31:30.248Z</time>
      </trkpt>
      <trkpt lat="45.79028" lon="6.54496">
        <ele>1452</ele>
        <time>2021-03-30T09:31:35.830Z</time>
      </trkpt>
      <trkpt lat="45.79052" lon="6.54481">
        <ele>1450</ele>
        <time>2021-03-30T09:31:39.289Z</time>
      </trkpt>
      <trkpt lat="45.79142" lon="6.54449">
        <ele>1447</ele>
        <time>2021-03-30T09:31:54.453Z</time>
      </trkpt>
      <trkpt lat="45.79175" lon="6.54432">
        <ele>1444</ele>
        <time>2021-03-30T09:31:59.085Z</time>
      </trkpt>
      <trkpt lat="45.79226" lon="6.5439">
        <ele>1436</ele>
        <time>2021-03-30T09:32:06.853Z</time>
      </trkpt>
      <trkpt lat="45.79275" lon="6.54335">
        <ele>1427</ele>
        <time>2021-03-30T09:32:15.072Z</time>
      </trkpt>
      <trkpt lat="45.79289" lon="6.54323">
        <ele>1427</ele>
        <time>2021-03-30T09:32:21.207Z</time>
      </trkpt>
      <trkpt lat="45.79337" lon="6.54304">
        <ele>1428</ele>
        <time>2021-03-30T09:32:44.161Z</time>
      </trkpt>
      <trkpt lat="45.7937" lon="6.54268">
        <ele>1425</ele>
        <time>2021-03-30T09:32:49.638Z</time>
      </trkpt>
      <trkpt lat="45.79421" lon="6.54242">
        <ele>1422</ele>
        <time>2021-03-30T09:32:56.797Z</time>
      </trkpt>
      <trkpt lat="45.79459" lon="6.54203">
        <ele>1412</ele>
        <time>2021-03-30T09:33:02.970Z</time>
      </trkpt>
      <trkpt lat="45.79531" lon="6.54159">
        <ele>1405</ele>
        <time>2021-03-30T09:33:13.307Z</time>
      </trkpt>
      <trkpt lat="45.79555" lon="6.54126">
        <ele>1402</ele>
        <time>2021-03-30T09:33:17.699Z</time>
      </trkpt>
      <trkpt lat="45.79579" lon="6.54099">
        <ele>1401</ele>
        <time>2021-03-30T09:33:22.666Z</time>
      </trkpt>
      <trkpt lat="45.79605" lon="6.54087">
        <ele>1400</ele>
        <time>2021-03-30T09:33:26.946Z</time>
      </trkpt>
      <trkpt lat="45.79638" lon="6.54086">
        <ele>1399</ele>
        <time>2021-03-30T09:33:32.460Z</time>
      </trkpt>
      <trkpt lat="45.79656" lon="6.54088">
        <ele>1399</ele>
        <time>2021-03-30T09:33:39.251Z</time>
      </trkpt>
      <trkpt lat="45.79679" lon="6.54101">
        <ele>1397</ele>
        <time>2021-03-30T09:33:42.517Z</time>
      </trkpt>
      <trkpt lat="45.79726" lon="6.54137">
        <ele>1390</ele>
        <time>2021-03-30T09:33:49.555Z</time>
      </trkpt>
      <trkpt lat="45.7974" lon="6.54151">
        <ele>1389</ele>
        <time>2021-03-30T09:33:51.755Z</time>
      </trkpt>
      <trkpt lat="45.79754" lon="6.54178">
        <ele>1387</ele>
        <time>2021-03-30T09:33:54.854Z</time>
      </trkpt>
      <trkpt lat="45.79764" lon="6.54215">
        <ele>1385</ele>
        <time>2021-03-30T09:33:58.508Z</time>
      </trkpt>
      <trkpt lat="45.79777" lon="6.54235">
        <ele>1382</ele>
        <time>2021-03-30T09:34:01.026Z</time>
      </trkpt>
      <trkpt lat="45.79873" lon="6.54334">
        <ele>1369</ele>
        <time>2021-03-30T09:34:16.645Z</time>
      </trkpt>
      <trkpt lat="45.80017" lon="6.54504">
        <ele>1351</ele>
        <time>2021-03-30T09:34:41.280Z</time>
      </trkpt>
      <trkpt lat="45.80064" lon="6.54576">
        <ele>1347</ele>
        <time>2021-03-30T09:34:50.174Z</time>
      </trkpt>
      <trkpt lat="45.80088" lon="6.54623">
        <ele>1344</ele>
        <time>2021-03-30T09:34:55.539Z</time>
      </trkpt>
      <trkpt lat="45.80112" lon="6.54663">
        <ele>1342</ele>
        <time>2021-03-30T09:35:00.449Z</time>
      </trkpt>
      <trkpt lat="45.80176" lon="6.54727">
        <ele>1333</ele>
        <time>2021-03-30T09:35:10.754Z</time>
      </trkpt>
      <trkpt lat="45.8022" lon="6.54783">
        <ele>1329</ele>
        <time>2021-03-30T09:35:18.524Z</time>
      </trkpt>
      <trkpt lat="45.80313" lon="6.54878">
        <ele>1320</ele>
        <time>2021-03-30T09:35:33.605Z</time>
      </trkpt>
      <trkpt lat="45.80349" lon="6.54925">
        <ele>1317</ele>
        <time>2021-03-30T09:35:39.730Z</time>
      </trkpt>
      <trkpt lat="45.80366" lon="6.54955">
        <ele>1316</ele>
        <time>2021-03-30T09:35:43.933Z</time>
      </trkpt>
      <trkpt lat="45.80372" lon="6.54975">
        <ele>1316</ele>
        <time>2021-03-30T09:35:49.643Z</time>
      </trkpt>
      <trkpt lat="45.80379" lon="6.55021">
        <ele>1317</ele>
        <time>2021-03-30T09:36:06.769Z</time>
      </trkpt>
      <trkpt lat="45.80382" lon="6.55029">
        <ele>1317</ele>
        <time>2021-03-30T09:36:09.151Z</time>
      </trkpt>
      <trkpt lat="45.80393" lon="6.55043">
        <ele>1316</ele>
        <time>2021-03-30T09:36:11.093Z</time>
      </trkpt>
      <trkpt lat="45.80401" lon="6.55047">
        <ele>1315</ele>
        <time>2021-03-30T09:36:12.213Z</time>
      </trkpt>
      <trkpt lat="45.80415" lon="6.55045">
        <ele>1313</ele>
        <time>2021-03-30T09:36:14.071Z</time>
      </trkpt>
      <trkpt lat="45.80424" lon="6.55039">
        <ele>1313</ele>
        <time>2021-03-30T09:36:17.804Z</time>
      </trkpt>
      <trkpt lat="45.80432" lon="6.55029">
        <ele>1313</ele>
        <time>2021-03-30T09:36:21.796Z</time>
      </trkpt>
      <trkpt lat="45.80438" lon="6.54999">
        <ele>1314</ele>
        <time>2021-03-30T09:36:35.738Z</time>
      </trkpt>
      <trkpt lat="45.80433" lon="6.54949">
        <ele>1311</ele>
        <time>2021-03-30T09:36:40.389Z</time>
      </trkpt>
      <trkpt lat="45.80435" lon="6.54916">
        <ele>1310</ele>
        <time>2021-03-30T09:36:43.784Z</time>
      </trkpt>
      <trkpt lat="45.80442" lon="6.54897">
        <ele>1309</ele>
        <time>2021-03-30T09:36:45.763Z</time>
      </trkpt>
      <trkpt lat="45.80467" lon="6.54852">
        <ele>1307</ele>
        <time>2021-03-30T09:36:51.326Z</time>
      </trkpt>
      <trkpt lat="45.80474" lon="6.54782">
        <ele>1300</ele>
        <time>2021-03-30T09:36:57.838Z</time>
      </trkpt>
      <trkpt lat="45.8048" lon="6.54768">
        <ele>1299</ele>
        <time>2021-03-30T09:36:59.351Z</time>
      </trkpt>
      <trkpt lat="45.80494" lon="6.54753">
        <ele>1298</ele>
        <time>2021-03-30T09:37:01.628Z</time>
      </trkpt>
      <trkpt lat="45.80517" lon="6.54738">
        <ele>1299</ele>
        <time>2021-03-30T09:37:16.538Z</time>
      </trkpt>
      <trkpt lat="45.80527" lon="6.54725">
        <ele>1300</ele>
        <time>2021-03-30T09:37:27.079Z</time>
      </trkpt>
      <trkpt lat="45.80532" lon="6.54711">
        <ele>1301</ele>
        <time>2021-03-30T09:37:36.958Z</time>
      </trkpt>
      <trkpt lat="45.80536" lon="6.54679">
        <ele>1301</ele>
        <time>2021-03-30T09:37:45.483Z</time>
      </trkpt>
      <trkpt lat="45.80535" lon="6.54635">
        <ele>1303</ele>
        <time>2021-03-30T09:38:07.897Z</time>
      </trkpt>
      <trkpt lat="45.8053" lon="6.54601">
        <ele>1304</ele>
        <time>2021-03-30T09:38:22.549Z</time>
      </trkpt>
      <trkpt lat="45.8051" lon="6.54554">
        <ele>1300</ele>
        <time>2021-03-30T09:38:27.620Z</time>
      </trkpt>
      <trkpt lat="45.80505" lon="6.54537">
        <ele>1299</ele>
        <time>2021-03-30T09:38:29.319Z</time>
      </trkpt>
      <trkpt lat="45.80486" lon="6.54336">
        <ele>1303</ele>
        <time>2021-03-30T09:39:41.112Z</time>
      </trkpt>
      <trkpt lat="45.8044" lon="6.54123">
        <ele>1296</ele>
        <time>2021-03-30T09:40:03.612Z</time>
      </trkpt>
      <trkpt lat="45.80435" lon="6.54094">
        <ele>1294</ele>
        <time>2021-03-30T09:40:06.363Z</time>
      </trkpt>
      <trkpt lat="45.80433" lon="6.54059">
        <ele>1291</ele>
        <time>2021-03-30T09:40:09.597Z</time>
      </trkpt>
      <trkpt lat="45.80436" lon="6.5403">
        <ele>1289</ele>
        <time>2021-03-30T09:40:12.296Z</time>
      </trkpt>
      <trkpt lat="45.80459" lon="6.53916">
        <ele>1282</ele>
        <time>2021-03-30T09:40:23.224Z</time>
      </trkpt>
      <trkpt lat="45.805" lon="6.53836">
        <ele>1287</ele>
        <time>2021-03-30T09:41:16.517Z</time>
      </trkpt>
      <trkpt lat="45.80505" lon="6.53819">
        <ele>1289</ele>
        <time>2021-03-30T09:41:35.179Z</time>
      </trkpt>
      <trkpt lat="45.80497" lon="6.53765">
        <ele>1282</ele>
        <time>2021-03-30T09:41:40.263Z</time>
      </trkpt>
      <trkpt lat="45.80503" lon="6.5373">
        <ele>1284</ele>
        <time>2021-03-30T09:42:00.766Z</time>
      </trkpt>
      <trkpt lat="45.80503" lon="6.53708">
        <ele>1284</ele>
        <time>2021-03-30T09:42:06.535Z</time>
      </trkpt>
      <trkpt lat="45.80497" lon="6.53691">
        <ele>1281</ele>
        <time>2021-03-30T09:42:08.289Z</time>
      </trkpt>
      <trkpt lat="45.80482" lon="6.53664">
        <ele>1273</ele>
        <time>2021-03-30T09:42:11.468Z</time>
      </trkpt>
      <trkpt lat="45.80476" lon="6.53648">
        <ele>1271</ele>
        <time>2021-03-30T09:42:13.141Z</time>
      </trkpt>
      <trkpt lat="45.80472" lon="6.53602">
        <ele>1272</ele>
        <time>2021-03-30T09:42:30.106Z</time>
      </trkpt>
      <trkpt lat="45.80468" lon="6.53588">
        <ele>1271</ele>
        <time>2021-03-30T09:42:31.499Z</time>
      </trkpt>
      <trkpt lat="45.80456" lon="6.53558">
        <ele>1268</ele>
        <time>2021-03-30T09:42:34.684Z</time>
      </trkpt>
      <trkpt lat="45.80442" lon="6.53535">
        <ele>1265</ele>
        <time>2021-03-30T09:42:37.496Z</time>
      </trkpt>
      <trkpt lat="45.80436" lon="6.53512">
        <ele>1266</ele>
        <time>2021-03-30T09:42:49.413Z</time>
      </trkpt>
      <trkpt lat="45.8044" lon="6.53396">
        <ele>1265</ele>
        <time>2021-03-30T09:43:06.066Z</time>
      </trkpt>
      <trkpt lat="45.80462" lon="6.53234">
        <ele>1259</ele>
        <time>2021-03-30T09:43:21.710Z</time>
      </trkpt>
      <trkpt lat="45.8046" lon="6.53153">
        <ele>1252</ele>
        <time>2021-03-30T09:43:29.174Z</time>
      </trkpt>
      <trkpt lat="45.80453" lon="6.53091">
        <ele>1247</ele>
        <time>2021-03-30T09:43:34.957Z</time>
      </trkpt>
      <trkpt lat="45.80462" lon="6.53065">
        <ele>1246</ele>
        <time>2021-03-30T09:43:37.774Z</time>
      </trkpt>
      <trkpt lat="45.80504" lon="6.53024">
        <ele>1245</ele>
        <time>2021-03-30T09:43:47.322Z</time>
      </trkpt>
      <trkpt lat="45.80532" lon="6.52979">
        <ele>1240</ele>
        <time>2021-03-30T09:43:52.876Z</time>
      </trkpt>
      <trkpt lat="45.8057" lon="6.52907">
        <ele>1234</ele>
        <time>2021-03-30T09:44:01.192Z</time>
      </trkpt>
      <trkpt lat="45.8058" lon="6.52864">
        <ele>1228</ele>
        <time>2021-03-30T09:44:05.366Z</time>
      </trkpt>
      <trkpt lat="45.80584" lon="6.52855">
        <ele>1228</ele>
        <time>2021-03-30T09:44:08.165Z</time>
      </trkpt>
      <trkpt lat="45.80619" lon="6.52798">
        <ele>1229</ele>
        <time>2021-03-30T09:44:32.249Z</time>
      </trkpt>
      <trkpt lat="45.80656" lon="6.52716">
        <ele>1224</ele>
        <time>2021-03-30T09:44:41.244Z</time>
      </trkpt>
      <trkpt lat="45.80667" lon="6.52663">
        <ele>1217</ele>
        <time>2021-03-30T09:44:46.335Z</time>
      </trkpt>
      <trkpt lat="45.80685" lon="6.5262">
        <ele>1215</ele>
        <time>2021-03-30T09:44:50.893Z</time>
      </trkpt>
      <trkpt lat="45.807" lon="6.5256">
        <ele>1207</ele>
        <time>2021-03-30T09:44:56.763Z</time>
      </trkpt>
      <trkpt lat="45.80705" lon="6.5255">
        <ele>1206</ele>
        <time>2021-03-30T09:44:57.896Z</time>
      </trkpt>
      <trkpt lat="45.80752" lon="6.52482">
        <ele>1202</ele>
        <time>2021-03-30T09:45:06.409Z</time>
      </trkpt>
      <trkpt lat="45.80783" lon="6.52462">
        <ele>1201</ele>
        <time>2021-03-30T09:45:12.140Z</time>
      </trkpt>
      <trkpt lat="45.80803" lon="6.52444">
        <ele>1198</ele>
        <time>2021-03-30T09:45:15.258Z</time>
      </trkpt>
      <trkpt lat="45.8083" lon="6.52414">
        <ele>1193</ele>
        <time>2021-03-30T09:45:19.769Z</time>
      </trkpt>
      <trkpt lat="45.80851" lon="6.52381">
        <ele>1191</ele>
        <time>2021-03-30T09:45:23.610Z</time>
      </trkpt>
      <trkpt lat="45.80871" lon="6.52343">
        <ele>1187</ele>
        <time>2021-03-30T09:45:27.994Z</time>
      </trkpt>
      <trkpt lat="45.80887" lon="6.52302">
        <ele>1184</ele>
        <time>2021-03-30T09:45:32.321Z</time>
      </trkpt>
      <trkpt lat="45.80909" lon="6.52186">
        <ele>1175</ele>
        <time>2021-03-30T09:45:43.390Z</time>
      </trkpt>
      <trkpt lat="45.80915" lon="6.52176">
        <ele>1175</ele>
        <time>2021-03-30T09:45:46.849Z</time>
      </trkpt>
      <trkpt lat="45.80923" lon="6.52169">
        <ele>1174</ele>
        <time>2021-03-30T09:45:48.087Z</time>
      </trkpt>
      <trkpt lat="45.80944" lon="6.52164">
        <ele>1171</ele>
        <time>2021-03-30T09:45:50.899Z</time>
      </trkpt>
      <trkpt lat="45.8095" lon="6.52158">
        <ele>1170</ele>
        <time>2021-03-30T09:45:51.865Z</time>
      </trkpt>
      <trkpt lat="45.80952" lon="6.52148">
        <ele>1168</ele>
        <time>2021-03-30T09:45:52.823Z</time>
      </trkpt>
      <trkpt lat="45.80947" lon="6.52133">
        <ele>1166</ele>
        <time>2021-03-30T09:45:54.354Z</time>
      </trkpt>
      <trkpt lat="45.80896" lon="6.52082">
        <ele>1160</ele>
        <time>2021-03-30T09:46:02.566Z</time>
      </trkpt>
      <trkpt lat="45.80872" lon="6.52064">
        <ele>1157</ele>
        <time>2021-03-30T09:46:06.143Z</time>
      </trkpt>
      <trkpt lat="45.80866" lon="6.52062">
        <ele>1157</ele>
        <time>2021-03-30T09:46:08.460Z</time>
      </trkpt>
      <trkpt lat="45.8086" lon="6.52061">
        <ele>1156</ele>
        <time>2021-03-30T09:46:09.258Z</time>
      </trkpt>
      <trkpt lat="45.80826" lon="6.52069">
        <ele>1155</ele>
        <time>2021-03-30T09:46:15.092Z</time>
      </trkpt>
      <trkpt lat="45.80821" lon="6.52066">
        <ele>1153</ele>
        <time>2021-03-30T09:46:15.808Z</time>
      </trkpt>
      <trkpt lat="45.80818" lon="6.52058">
        <ele>1152</ele>
        <time>2021-03-30T09:46:16.644Z</time>
      </trkpt>
      <trkpt lat="45.80818" lon="6.52049">
        <ele>1151</ele>
        <time>2021-03-30T09:46:17.473Z</time>
      </trkpt>
      <trkpt lat="45.8082" lon="6.52045">
        <ele>1151</ele>
        <time>2021-03-30T09:46:18.763Z</time>
      </trkpt>
      <trkpt lat="45.80845" lon="6.52026">
        <ele>1151</ele>
        <time>2021-03-30T09:46:29.406Z</time>
      </trkpt>
      <trkpt lat="45.80864" lon="6.52006">
        <ele>1149</ele>
        <time>2021-03-30T09:46:32.519Z</time>
      </trkpt>
      <trkpt lat="45.80885" lon="6.51995">
        <ele>1147</ele>
        <time>2021-03-30T09:46:35.472Z</time>
      </trkpt>
      <trkpt lat="45.80901" lon="6.51992">
        <ele>1146</ele>
        <time>2021-03-30T09:46:37.496Z</time>
      </trkpt>
      <trkpt lat="45.80946" lon="6.52008">
        <ele>1148</ele>
        <time>2021-03-30T09:47:06.329Z</time>
      </trkpt>
      <trkpt lat="45.80959" lon="6.5201">
        <ele>1149</ele>
        <time>2021-03-30T09:47:16.735Z</time>
      </trkpt>
      <trkpt lat="45.80967" lon="6.52005">
        <ele>1148</ele>
        <time>2021-03-30T09:47:17.887Z</time>
      </trkpt>
      <trkpt lat="45.80971" lon="6.51997">
        <ele>1147</ele>
        <time>2021-03-30T09:47:18.794Z</time>
      </trkpt>
      <trkpt lat="45.80973" lon="6.51985">
        <ele>1146</ele>
        <time>2021-03-30T09:47:19.930Z</time>
      </trkpt>
      <trkpt lat="45.80967" lon="6.51966">
        <ele>1145</ele>
        <time>2021-03-30T09:47:21.851Z</time>
      </trkpt>
      <trkpt lat="45.80852" lon="6.51805">
        <ele>1131</ele>
        <time>2021-03-30T09:47:43.076Z</time>
      </trkpt>
      <trkpt lat="45.80797" lon="6.51734">
        <ele>1125</ele>
        <time>2021-03-30T09:47:52.849Z</time>
      </trkpt>
      <trkpt lat="45.8079" lon="6.51716">
        <ele>1124</ele>
        <time>2021-03-30T09:47:54.747Z</time>
      </trkpt>
      <trkpt lat="45.80789" lon="6.51704">
        <ele>1123</ele>
        <time>2021-03-30T09:47:55.860Z</time>
      </trkpt>
      <trkpt lat="45.80792" lon="6.51692">
        <ele>1123</ele>
        <time>2021-03-30T09:47:59.202Z</time>
      </trkpt>
      <trkpt lat="45.80799" lon="6.51681">
        <ele>1123</ele>
        <time>2021-03-30T09:48:03.108Z</time>
      </trkpt>
      <trkpt lat="45.80844" lon="6.51642">
        <ele>1121</ele>
        <time>2021-03-30T09:48:11.233Z</time>
      </trkpt>
      <trkpt lat="45.80915" lon="6.51588">
        <ele>1116</ele>
        <time>2021-03-30T09:48:21.296Z</time>
      </trkpt>
      <trkpt lat="45.80927" lon="6.51584">
        <ele>1115</ele>
        <time>2021-03-30T09:48:22.924Z</time>
      </trkpt>
      <trkpt lat="45.8094" lon="6.51586">
        <ele>1115</ele>
        <time>2021-03-30T09:48:27.842Z</time>
      </trkpt>
      <trkpt lat="45.80967" lon="6.51598">
        <ele>1114</ele>
        <time>2021-03-30T09:48:32.326Z</time>
      </trkpt>
      <trkpt lat="45.8098" lon="6.516">
        <ele>1114</ele>
        <time>2021-03-30T09:48:37.244Z</time>
      </trkpt>
      <trkpt lat="45.80996" lon="6.51596">
        <ele>1112</ele>
        <time>2021-03-30T09:48:39.389Z</time>
      </trkpt>
      <trkpt lat="45.81004" lon="6.51592">
        <ele>1111</ele>
        <time>2021-03-30T09:48:40.508Z</time>
      </trkpt>
      <trkpt lat="45.81014" lon="6.51582">
        <ele>1109</ele>
        <time>2021-03-30T09:48:42.118Z</time>
      </trkpt>
      <trkpt lat="45.81041" lon="6.5155">
        <ele>1105</ele>
        <time>2021-03-30T09:48:46.745Z</time>
      </trkpt>
      <trkpt lat="45.81048" lon="6.51545">
        <ele>1104</ele>
        <time>2021-03-30T09:48:47.777Z</time>
      </trkpt>
      <trkpt lat="45.81057" lon="6.51543">
        <ele>1104</ele>
        <time>2021-03-30T09:48:51.203Z</time>
      </trkpt>
      <trkpt lat="45.81074" lon="6.51543">
        <ele>1104</ele>
        <time>2021-03-30T09:48:57.598Z</time>
      </trkpt>
      <trkpt lat="45.81137" lon="6.51569">
        <ele>1101</ele>
        <time>2021-03-30T09:49:07.024Z</time>
      </trkpt>
      <trkpt lat="45.8128" lon="6.51674">
        <ele>1095</ele>
        <time>2021-03-30T09:49:32.017Z</time>
      </trkpt>
      <trkpt lat="45.81345" lon="6.5176">
        <ele>1094</ele>
        <time>2021-03-30T09:49:50.451Z</time>
      </trkpt>
      <trkpt lat="45.81379" lon="6.51793">
        <ele>1089</ele>
        <time>2021-03-30T09:49:55.873Z</time>
      </trkpt>
      <trkpt lat="45.81398" lon="6.51816">
        <ele>1087</ele>
        <time>2021-03-30T09:49:59.157Z</time>
      </trkpt>
      <trkpt lat="45.81484" lon="6.51977">
        <ele>1091</ele>
        <time>2021-03-30T09:51:10.943Z</time>
      </trkpt>
      <trkpt lat="45.81537" lon="6.52062">
        <ele>1083</ele>
        <time>2021-03-30T09:51:21.443Z</time>
      </trkpt>
      <trkpt lat="45.81586" lon="6.52151">
        <ele>1072</ele>
        <time>2021-03-30T09:51:31.885Z</time>
      </trkpt>
      <trkpt lat="45.81612" lon="6.5221">
        <ele>1067</ele>
        <time>2021-03-30T09:51:38.311Z</time>
      </trkpt>
      <trkpt lat="45.81634" lon="6.52274">
        <ele>1064</ele>
        <time>2021-03-30T09:51:44.634Z</time>
      </trkpt>
      <trkpt lat="45.81694" lon="6.52553">
        <ele>1050</ele>
        <time>2021-03-30T09:52:11.514Z</time>
      </trkpt>
      <trkpt lat="45.81705" lon="6.52582">
        <ele>1047</ele>
        <time>2021-03-30T09:52:14.554Z</time>
      </trkpt>
      <trkpt lat="45.81724" lon="6.52621">
        <ele>1040</ele>
        <time>2021-03-30T09:52:18.935Z</time>
      </trkpt>
      <trkpt lat="45.81767" lon="6.52766">
        <ele>1028</ele>
        <time>2021-03-30T09:52:33.442Z</time>
      </trkpt>
      <trkpt lat="45.81775" lon="6.52784">
        <ele>1027</ele>
        <time>2021-03-30T09:52:35.407Z</time>
      </trkpt>
      <trkpt lat="45.81786" lon="6.528">
        <ele>1024</ele>
        <time>2021-03-30T09:52:37.476Z</time>
      </trkpt>
      <trkpt lat="45.81824" lon="6.52838">
        <ele>1014</ele>
        <time>2021-03-30T09:52:43.594Z</time>
      </trkpt>
      <trkpt lat="45.81841" lon="6.52861">
        <ele>1009</ele>
        <time>2021-03-30T09:52:46.681Z</time>
      </trkpt>
      <trkpt lat="45.81853" lon="6.52885">
        <ele>1007</ele>
        <time>2021-03-30T09:52:49.400Z</time>
      </trkpt>
      <trkpt lat="45.81899" lon="6.52998">
        <ele>1004</ele>
        <time>2021-03-30T09:53:04.233Z</time>
      </trkpt>
      <trkpt lat="45.81911" lon="6.53008">
        <ele>1001</ele>
        <time>2021-03-30T09:53:06.066Z</time>
      </trkpt>
      <trkpt lat="45.81919" lon="6.53008">
        <ele>999</ele>
        <time>2021-03-30T09:53:07.123Z</time>
      </trkpt>
      <trkpt lat="45.81932" lon="6.52997">
        <ele>996</ele>
        <time>2021-03-30T09:53:09.117Z</time>
      </trkpt>
      <trkpt lat="45.81937" lon="6.52982">
        <ele>994</ele>
        <time>2021-03-30T09:53:10.647Z</time>
      </trkpt>
      <trkpt lat="45.81938" lon="6.52959">
        <ele>993</ele>
        <time>2021-03-30T09:53:12.658Z</time>
      </trkpt>
      <trkpt lat="45.81933" lon="6.52909">
        <ele>990</ele>
        <time>2021-03-30T09:53:17.308Z</time>
      </trkpt>
      <trkpt lat="45.81933" lon="6.52866">
        <ele>988</ele>
        <time>2021-03-30T09:53:21.266Z</time>
      </trkpt>
      <trkpt lat="45.81939" lon="6.52799">
        <ele>985</ele>
        <time>2021-03-30T09:53:27.093Z</time>
      </trkpt>
      <trkpt lat="45.81945" lon="6.52782">
        <ele>984</ele>
        <time>2021-03-30T09:53:28.847Z</time>
      </trkpt>
      <trkpt lat="45.81952" lon="6.52776">
        <ele>983</ele>
        <time>2021-03-30T09:53:29.924Z</time>
      </trkpt>
      <trkpt lat="45.81961" lon="6.52774">
        <ele>982</ele>
        <time>2021-03-30T09:53:31.127Z</time>
      </trkpt>
      <trkpt lat="45.81968" lon="6.52776">
        <ele>982</ele>
        <time>2021-03-30T09:53:33.812Z</time>
      </trkpt>
      <trkpt lat="45.81977" lon="6.52783">
        <ele>981</ele>
        <time>2021-03-30T09:53:35.165Z</time>
      </trkpt>
      <trkpt lat="45.82046" lon="6.52872">
        <ele>975</ele>
        <time>2021-03-30T09:53:46.564Z</time>
      </trkpt>
      <trkpt lat="45.82064" lon="6.52899">
        <ele>972</ele>
        <time>2021-03-30T09:53:50.004Z</time>
      </trkpt>
      <trkpt lat="45.82082" lon="6.5294">
        <ele>969</ele>
        <time>2021-03-30T09:53:54.465Z</time>
      </trkpt>
      <trkpt lat="45.82118" lon="6.5305">
        <ele>967</ele>
        <time>2021-03-30T09:54:09.677Z</time>
      </trkpt>
      <trkpt lat="45.82118" lon="6.53098">
        <ele>967</ele>
        <time>2021-03-30T09:54:22.261Z</time>
      </trkpt>
      <trkpt lat="45.82121" lon="6.53113">
        <ele>966</ele>
        <time>2021-03-30T09:54:23.697Z</time>
      </trkpt>
      <trkpt lat="45.82126" lon="6.53116">
        <ele>965</ele>
        <time>2021-03-30T09:54:24.413Z</time>
      </trkpt>
      <trkpt lat="45.82131" lon="6.53112">
        <ele>965</ele>
        <time>2021-03-30T09:54:26.566Z</time>
      </trkpt>
      <trkpt lat="45.82141" lon="6.53113">
        <ele>964</ele>
        <time>2021-03-30T09:54:27.891Z</time>
      </trkpt>
      <trkpt lat="45.82148" lon="6.53136">
        <ele>962</ele>
        <time>2021-03-30T09:54:30.201Z</time>
      </trkpt>
      <trkpt lat="45.82183" lon="6.53197">
        <ele>962</ele>
        <time>2021-03-30T09:54:50.915Z</time>
      </trkpt>
      <trkpt lat="45.82201" lon="6.53246">
        <ele>962</ele>
        <time>2021-03-30T09:55:05.435Z</time>
      </trkpt>
      <trkpt lat="45.82211" lon="6.53266">
        <ele>963</ele>
        <time>2021-03-30T09:55:17.367Z</time>
      </trkpt>
      <trkpt lat="45.82221" lon="6.53278">
        <ele>964</ele>
        <time>2021-03-30T09:55:27.760Z</time>
      </trkpt>
      <trkpt lat="45.82276" lon="6.53325">
        <ele>969</ele>
        <time>2021-03-30T09:56:19.371Z</time>
      </trkpt>
      <trkpt lat="45.82315" lon="6.53374">
        <ele>974</ele>
        <time>2021-03-30T09:57:08.386Z</time>
      </trkpt>
      <trkpt lat="45.82326" lon="6.53396">
        <ele>975</ele>
        <time>2021-03-30T09:57:21.046Z</time>
      </trkpt>
      <trkpt lat="45.82344" lon="6.53456">
        <ele>974</ele>
        <time>2021-03-30T09:57:29.377Z</time>
      </trkpt>
      <trkpt lat="45.82352" lon="6.53473">
        <ele>975</ele>
        <time>2021-03-30T09:57:40.194Z</time>
      </trkpt>
      <trkpt lat="45.82372" lon="6.53497">
        <ele>979</ele>
        <time>2021-03-30T09:58:18.022Z</time>
      </trkpt>
      <trkpt lat="45.824" lon="6.53523">
        <ele>984</ele>
        <time>2021-03-30T09:59:06.412Z</time>
      </trkpt>
      <trkpt lat="45.82434" lon="6.53572">
        <ele>986</ele>
        <time>2021-03-30T09:59:35.657Z</time>
      </trkpt>
      <trkpt lat="45.82456" lon="6.53609">
        <ele>989</ele>
        <time>2021-03-30T10:00:05.475Z</time>
      </trkpt>
      <trkpt lat="45.82468" lon="6.53635">
        <ele>991</ele>
        <time>2021-03-30T10:00:25.201Z</time>
      </trkpt>
      <trkpt lat="45.82471" lon="6.53647">
        <ele>991</ele>
        <time>2021-03-30T10:00:28.543Z</time>
      </trkpt>
      <trkpt lat="45.82472" lon="6.53677">
        <ele>991</ele>
        <time>2021-03-30T10:00:36.416Z</time>
      </trkpt>
      <trkpt lat="45.82461" lon="6.53726">
        <ele>989</ele>
        <time>2021-03-30T10:00:41.149Z</time>
      </trkpt>
      <trkpt lat="45.8246" lon="6.5376">
        <ele>989</ele>
        <time>2021-03-30T10:00:50.070Z</time>
      </trkpt>
      <trkpt lat="45.82473" lon="6.53836">
        <ele>992</ele>
        <time>2021-03-30T10:01:27.157Z</time>
      </trkpt>
      <trkpt lat="45.82485" lon="6.53867">
        <ele>994</ele>
        <time>2021-03-30T10:01:47.543Z</time>
      </trkpt>
      <trkpt lat="45.82514" lon="6.53918">
        <ele>998</ele>
        <time>2021-03-30T10:02:27.439Z</time>
      </trkpt>
      <trkpt lat="45.82561" lon="6.53986">
        <ele>1002</ele>
        <time>2021-03-30T10:03:14.395Z</time>
      </trkpt>
      <trkpt lat="45.82573" lon="6.54001">
        <ele>1004</ele>
        <time>2021-03-30T10:03:35.157Z</time>
      </trkpt>
      <trkpt lat="45.82626" lon="6.54053">
        <ele>1010</ele>
        <time>2021-03-30T10:04:34.196Z</time>
      </trkpt>
      <trkpt lat="45.82638" lon="6.54071">
        <ele>1011</ele>
        <time>2021-03-30T10:04:46.212Z</time>
      </trkpt>
      <trkpt lat="45.82648" lon="6.54091">
        <ele>1012</ele>
        <time>2021-03-30T10:04:58.144Z</time>
      </trkpt>
      <trkpt lat="45.82698" lon="6.54221">
        <ele>1016</ele>
        <time>2021-03-30T10:05:58.405Z</time>
      </trkpt>
      <trkpt lat="45.82727" lon="6.54322">
        <ele>1016</ele>
        <time>2021-03-30T10:06:27.039Z</time>
      </trkpt>
      <trkpt lat="45.8273" lon="6.54359">
        <ele>1016</ele>
        <time>2021-03-30T10:06:36.803Z</time>
      </trkpt>
      <trkpt lat="45.82727" lon="6.54409">
        <ele>1014</ele>
        <time>2021-03-30T10:06:41.362Z</time>
      </trkpt>
      <trkpt lat="45.82732" lon="6.54455">
        <ele>1015</ele>
        <time>2021-03-30T10:06:58.366Z</time>
      </trkpt>
      <trkpt lat="45.82737" lon="6.54477">
        <ele>1017</ele>
        <time>2021-03-30T10:07:18.964Z</time>
      </trkpt>
      <trkpt lat="45.82774" lon="6.54592">
        <ele>1017</ele>
        <time>2021-03-30T10:07:52.166Z</time>
      </trkpt>
      <trkpt lat="45.82786" lon="6.54613">
        <ele>1016</ele>
        <time>2021-03-30T10:07:54.724Z</time>
      </trkpt>
      <trkpt lat="45.82821" lon="6.54659">
        <ele>1020</ele>
        <time>2021-03-30T10:08:34.984Z</time>
      </trkpt>
      <trkpt lat="45.82834" lon="6.54682">
        <ele>1021</ele>
        <time>2021-03-30T10:08:48.422Z</time>
      </trkpt>
      <trkpt lat="45.82881" lon="6.54786">
        <ele>1022</ele>
        <time>2021-03-30T10:09:24.768Z</time>
      </trkpt>
      <trkpt lat="45.82889" lon="6.5483">
        <ele>1019</ele>
        <time>2021-03-30T10:09:28.953Z</time>
      </trkpt>
      <trkpt lat="45.82885" lon="6.54905">
        <ele>1009</ele>
        <time>2021-03-30T10:09:35.876Z</time>
      </trkpt>
      <trkpt lat="45.82886" lon="6.54923">
        <ele>1008</ele>
        <time>2021-03-30T10:09:37.538Z</time>
      </trkpt>
      <trkpt lat="45.82896" lon="6.54969">
        <ele>1007</ele>
        <time>2021-03-30T10:09:43.178Z</time>
      </trkpt>
      <trkpt lat="45.82917" lon="6.55016">
        <ele>1008</ele>
        <time>2021-03-30T10:10:02.319Z</time>
      </trkpt>
      <trkpt lat="45.82944" lon="6.55067">
        <ele>1009</ele>
        <time>2021-03-30T10:10:23.443Z</time>
      </trkpt>
      <trkpt lat="45.82969" lon="6.55102">
        <ele>1010</ele>
        <time>2021-03-30T10:10:41.252Z</time>
      </trkpt>
      <trkpt lat="45.83018" lon="6.5514">
        <ele>1010</ele>
        <time>2021-03-30T10:11:02.203Z</time>
      </trkpt>
      <trkpt lat="45.83029" lon="6.55151">
        <ele>1009</ele>
        <time>2021-03-30T10:11:03.974Z</time>
      </trkpt>
      <trkpt lat="45.83043" lon="6.55169">
        <ele>1006</ele>
        <time>2021-03-30T10:11:06.457Z</time>
      </trkpt>
      <trkpt lat="45.83073" lon="6.55228">
        <ele>1002</ele>
        <time>2021-03-30T10:11:13.179Z</time>
      </trkpt>
      <trkpt lat="45.83084" lon="6.55242">
        <ele>1000</ele>
        <time>2021-03-30T10:11:15.121Z</time>
      </trkpt>
      <trkpt lat="45.83131" lon="6.55273">
        <ele>1003</ele>
        <time>2021-03-30T10:11:51.026Z</time>
      </trkpt>
      <trkpt lat="45.83159" lon="6.553">
        <ele>1003</ele>
        <time>2021-03-30T10:12:03.715Z</time>
      </trkpt>
      <trkpt lat="45.83181" lon="6.55328">
        <ele>1003</ele>
        <time>2021-03-30T10:12:14.776Z</time>
      </trkpt>
      <trkpt lat="45.83196" lon="6.55356">
        <ele>1004</ele>
        <time>2021-03-30T10:12:29.522Z</time>
      </trkpt>
      <trkpt lat="45.83205" lon="6.55386">
        <ele>1006</ele>
        <time>2021-03-30T10:12:49.433Z</time>
      </trkpt>
      <trkpt lat="45.83268" lon="6.557">
        <ele>1002</ele>
        <time>2021-03-30T10:13:33.313Z</time>
      </trkpt>
      <trkpt lat="45.83271" lon="6.55724">
        <ele>1003</ele>
        <time>2021-03-30T10:13:45.176Z</time>
      </trkpt>
      <trkpt lat="45.83265" lon="6.55924">
        <ele>1002</ele>
        <time>2021-03-30T10:14:32.451Z</time>
      </trkpt>
      <trkpt lat="45.83267" lon="6.55942">
        <ele>1002</ele>
        <time>2021-03-30T10:14:37.229Z</time>
      </trkpt>
      <trkpt lat="45.83274" lon="6.55968">
        <ele>1003</ele>
        <time>2021-03-30T10:14:50.129Z</time>
      </trkpt>
      <trkpt lat="45.83288" lon="6.55995">
        <ele>1004</ele>
        <time>2021-03-30T10:15:04.604Z</time>
      </trkpt>
      <trkpt lat="45.83364" lon="6.56112">
        <ele>1011</ele>
        <time>2021-03-30T10:16:24.627Z</time>
      </trkpt>
      <trkpt lat="45.83398" lon="6.5618">
        <ele>1013</ele>
        <time>2021-03-30T10:16:56.611Z</time>
      </trkpt>
      <trkpt lat="45.83455" lon="6.56384">
        <ele>1012</ele>
        <time>2021-03-30T10:17:48.978Z</time>
      </trkpt>
      <trkpt lat="45.83661" lon="6.56838">
        <ele>1021</ele>
        <time>2021-03-30T10:20:50.648Z</time>
      </trkpt>
      <trkpt lat="45.83735" lon="6.56993">
        <ele>1027</ele>
        <time>2021-03-30T10:22:14.467Z</time>
      </trkpt>
      <trkpt lat="45.83782" lon="6.57098">
        <ele>1031</ele>
        <time>2021-03-30T10:23:10.199Z</time>
      </trkpt>
      <trkpt lat="45.83796" lon="6.57137">
        <ele>1031</ele>
        <time>2021-03-30T10:23:21.697Z</time>
      </trkpt>
      <trkpt lat="45.83801" lon="6.57153">
        <ele>1031</ele>
        <time>2021-03-30T10:23:26.292Z</time>
      </trkpt>
      <trkpt lat="45.83827" lon="6.57284">
        <ele>1031</ele>
        <time>2021-03-30T10:24:01.990Z</time>
      </trkpt>
      <trkpt lat="45.83922" lon="6.57664">
        <ele>1022</ele>
        <time>2021-03-30T10:24:48.157Z</time>
      </trkpt>
      <trkpt lat="45.83924" lon="6.57691">
        <ele>1022</ele>
        <time>2021-03-30T10:24:55.273Z</time>
      </trkpt>
      <trkpt lat="45.83923" lon="6.57719">
        <ele>1021</ele>
        <time>2021-03-30T10:24:57.951Z</time>
      </trkpt>
      <trkpt lat="45.83929" lon="6.57727">
        <ele>1022</ele>
        <time>2021-03-30T10:25:08.162Z</time>
      </trkpt>
      <trkpt lat="45.83933" lon="6.57728">
        <ele>1022</ele>
        <time>2021-03-30T10:25:09.689Z</time>
      </trkpt>
      <trkpt lat="45.83946" lon="6.57755">
        <ele>1024</ele>
        <time>2021-03-30T10:25:29.623Z</time>
      </trkpt>
      <trkpt lat="45.84014" lon="6.58027">
        <ele>1032</ele>
        <time>2021-03-30T10:27:28.695Z</time>
      </trkpt>
      <trkpt lat="45.84036" lon="6.5811">
        <ele>1034</ele>
        <time>2021-03-30T10:28:01.757Z</time>
      </trkpt>
      <trkpt lat="45.84062" lon="6.58193">
        <ele>1033</ele>
        <time>2021-03-30T10:28:14.247Z</time>
      </trkpt>
      <trkpt lat="45.84064" lon="6.58218">
        <ele>1030</ele>
        <time>2021-03-30T10:28:16.563Z</time>
      </trkpt>
      <trkpt lat="45.84062" lon="6.58232">
        <ele>1029</ele>
        <time>2021-03-30T10:28:17.878Z</time>
      </trkpt>
      <trkpt lat="45.84084" lon="6.5826">
        <ele>1028</ele>
        <time>2021-03-30T10:28:22.606Z</time>
      </trkpt>
      <trkpt lat="45.842" lon="6.58621">
        <ele>1035</ele>
        <time>2021-03-30T10:30:38.173Z</time>
      </trkpt>
      <trkpt lat="45.84241" lon="6.58724">
        <ele>1039</ele>
        <time>2021-03-30T10:31:31.967Z</time>
      </trkpt>
      <trkpt lat="45.84251" lon="6.58763">
        <ele>1040</ele>
        <time>2021-03-30T10:31:47.898Z</time>
      </trkpt>
      <trkpt lat="45.84262" lon="6.58827">
        <ele>1042</ele>
        <time>2021-03-30T10:32:16.637Z</time>
      </trkpt>
      <trkpt lat="45.8427" lon="6.58943">
        <ele>1041</ele>
        <time>2021-03-30T10:32:33.348Z</time>
      </trkpt>
      <trkpt lat="45.84278" lon="6.58969">
        <ele>1041</ele>
        <time>2021-03-30T10:32:40.796Z</time>
      </trkpt>
      <trkpt lat="45.84293" lon="6.58994">
        <ele>1041</ele>
        <time>2021-03-30T10:32:49.442Z</time>
      </trkpt>
      <trkpt lat="45.84374" lon="6.59066">
        <ele>1044</ele>
        <time>2021-03-30T10:33:39.807Z</time>
      </trkpt>
      <trkpt lat="45.84426" lon="6.59133">
        <ele>1045</ele>
        <time>2021-03-30T10:34:10.057Z</time>
      </trkpt>
      <trkpt lat="45.84512" lon="6.5927">
        <ele>1048</ele>
        <time>2021-03-30T10:35:11.532Z</time>
      </trkpt>
      <trkpt lat="45.84536" lon="6.59291">
        <ele>1049</ele>
        <time>2021-03-30T10:35:27.217Z</time>
      </trkpt>
      <trkpt lat="45.84691" lon="6.59398">
        <ele>1055</ele>
        <time>2021-03-30T10:37:02.296Z</time>
      </trkpt>
      <trkpt lat="45.84722" lon="6.59423">
        <ele>1055</ele>
        <time>2021-03-30T10:37:15.671Z</time>
      </trkpt>
      <trkpt lat="45.8474" lon="6.59449">
        <ele>1056</ele>
        <time>2021-03-30T10:37:30.650Z</time>
      </trkpt>
      <trkpt lat="45.84768" lon="6.59518">
        <ele>1057</ele>
        <time>2021-03-30T10:37:55.699Z</time>
      </trkpt>
      <trkpt lat="45.84855" lon="6.59785">
        <ele>1059</ele>
        <time>2021-03-30T10:39:20.502Z</time>
      </trkpt>
      <trkpt lat="45.84865" lon="6.59807">
        <ele>1059</ele>
        <time>2021-03-30T10:39:27.385Z</time>
      </trkpt>
      <trkpt lat="45.84881" lon="6.59831">
        <ele>1058</ele>
        <time>2021-03-30T10:39:30.791Z</time>
      </trkpt>
      <trkpt lat="45.84919" lon="6.5987">
        <ele>1058</ele>
        <time>2021-03-30T10:39:48.362Z</time>
      </trkpt>
      <trkpt lat="45.84932" lon="6.59892">
        <ele>1057</ele>
        <time>2021-03-30T10:39:51.152Z</time>
      </trkpt>
      <trkpt lat="45.84942" lon="6.59934">
        <ele>1055</ele>
        <time>2021-03-30T10:39:54.950Z</time>
      </trkpt>
      <trkpt lat="45.84952" lon="6.601">
        <ele>1058</ele>
        <time>2021-03-30T10:40:52.151Z</time>
      </trkpt>
      <trkpt lat="45.8496" lon="6.60127">
        <ele>1060</ele>
        <time>2021-03-30T10:41:11.735Z</time>
      </trkpt>
      <trkpt lat="45.84968" lon="6.60142">
        <ele>1061</ele>
        <time>2021-03-30T10:41:22.167Z</time>
      </trkpt>
      <trkpt lat="45.84995" lon="6.6018">
        <ele>1064</ele>
        <time>2021-03-30T10:41:52.956Z</time>
      </trkpt>
      <trkpt lat="45.85022" lon="6.60235">
        <ele>1064</ele>
        <time>2021-03-30T10:42:10.587Z</time>
      </trkpt>
      <trkpt lat="45.85035" lon="6.60253">
        <ele>1064</ele>
        <time>2021-03-30T10:42:17.381Z</time>
      </trkpt>
      <trkpt lat="45.85055" lon="6.6027">
        <ele>1065</ele>
        <time>2021-03-30T10:42:31.810Z</time>
      </trkpt>
      <trkpt lat="45.85081" lon="6.60286">
        <ele>1066</ele>
        <time>2021-03-30T10:42:47.547Z</time>
      </trkpt>
      <trkpt lat="45.85091" lon="6.60297">
        <ele>1067</ele>
        <time>2021-03-30T10:42:57.809Z</time>
      </trkpt>
      <trkpt lat="45.851" lon="6.60313">
        <ele>1068</ele>
        <time>2021-03-30T10:43:08.636Z</time>
      </trkpt>
      <trkpt lat="45.85105" lon="6.60332">
        <ele>1068</ele>
        <time>2021-03-30T10:43:13.958Z</time>
      </trkpt>
      <trkpt lat="45.85106" lon="6.6035">
        <ele>1069</ele>
        <time>2021-03-30T10:43:24.213Z</time>
      </trkpt>
      <trkpt lat="45.85091" lon="6.60416">
        <ele>1068</ele>
        <time>2021-03-30T10:43:33.196Z</time>
      </trkpt>
      <trkpt lat="45.8509" lon="6.60431">
        <ele>1067</ele>
        <time>2021-03-30T10:43:34.582Z</time>
      </trkpt>
      <trkpt lat="45.85097" lon="6.60459">
        <ele>1067</ele>
        <time>2021-03-30T10:43:42.377Z</time>
      </trkpt>
      <trkpt lat="45.85112" lon="6.60479">
        <ele>1069</ele>
        <time>2021-03-30T10:44:01.963Z</time>
      </trkpt>
      <trkpt lat="45.85126" lon="6.60487">
        <ele>1070</ele>
        <time>2021-03-30T10:44:13.064Z</time>
      </trkpt>
      <trkpt lat="45.85214" lon="6.60511">
        <ele>1073</ele>
        <time>2021-03-30T10:45:01.671Z</time>
      </trkpt>
      <trkpt lat="45.85243" lon="6.6051">
        <ele>1073</ele>
        <time>2021-03-30T10:45:12.583Z</time>
      </trkpt>
      <trkpt lat="45.85255" lon="6.60507">
        <ele>1073</ele>
        <time>2021-03-30T10:45:17.165Z</time>
      </trkpt>
      <trkpt lat="45.85306" lon="6.60468">
        <ele>1075</ele>
        <time>2021-03-30T10:45:48.991Z</time>
      </trkpt>
      <trkpt lat="45.85322" lon="6.60462">
        <ele>1075</ele>
        <time>2021-03-30T10:45:55.212Z</time>
      </trkpt>
      <trkpt lat="45.85339" lon="6.60463">
        <ele>1075</ele>
        <time>2021-03-30T10:46:01.612Z</time>
      </trkpt>
      <trkpt lat="45.85358" lon="6.60471">
        <ele>1075</ele>
        <time>2021-03-30T10:46:09.060Z</time>
      </trkpt>
      <trkpt lat="45.85398" lon="6.60497">
        <ele>1075</ele>
        <time>2021-03-30T10:46:25.577Z</time>
      </trkpt>
      <trkpt lat="45.8541" lon="6.6051">
        <ele>1074</ele>
        <time>2021-03-30T10:46:27.398Z</time>
      </trkpt>
      <trkpt lat="45.85419" lon="6.60528">
        <ele>1074</ele>
        <time>2021-03-30T10:46:33.204Z</time>
      </trkpt>
      <trkpt lat="45.85425" lon="6.60553">
        <ele>1074</ele>
        <time>2021-03-30T10:46:40.131Z</time>
      </trkpt>
      <trkpt lat="45.85425" lon="6.60605">
        <ele>1072</ele>
        <time>2021-03-30T10:46:44.930Z</time>
      </trkpt>
      <trkpt lat="45.85428" lon="6.60639">
        <ele>1072</ele>
        <time>2021-03-30T10:46:53.909Z</time>
      </trkpt>
      <trkpt lat="45.85434" lon="6.60662">
        <ele>1072</ele>
        <time>2021-03-30T10:47:00.344Z</time>
      </trkpt>
      <trkpt lat="45.85456" lon="6.60701">
        <ele>1073</ele>
        <time>2021-03-30T10:47:18.162Z</time>
      </trkpt>
      <trkpt lat="45.85465" lon="6.6071">
        <ele>1073</ele>
        <time>2021-03-30T10:47:22.288Z</time>
      </trkpt>
      <trkpt lat="45.85483" lon="6.6072">
        <ele>1074</ele>
        <time>2021-03-30T10:47:35.135Z</time>
      </trkpt>
      <trkpt lat="45.85496" lon="6.60724">
        <ele>1075</ele>
        <time>2021-03-30T10:47:45.611Z</time>
      </trkpt>
      <trkpt lat="45.85598" lon="6.6073">
        <ele>1082</ele>
        <time>2021-03-30T10:49:02.060Z</time>
      </trkpt>
      <trkpt lat="45.85623" lon="6.60734">
        <ele>1083</ele>
        <time>2021-03-30T10:49:16.941Z</time>
      </trkpt>
      <trkpt lat="45.85634" lon="6.60738">
        <ele>1083</ele>
        <time>2021-03-30T10:49:21.210Z</time>
      </trkpt>
      <trkpt lat="45.85655" lon="6.60753">
        <ele>1083</ele>
        <time>2021-03-30T10:49:30.033Z</time>
      </trkpt>
      <trkpt lat="45.85669" lon="6.60768">
        <ele>1084</ele>
        <time>2021-03-30T10:49:42.095Z</time>
      </trkpt>
      <trkpt lat="45.85732" lon="6.60859">
        <ele>1085</ele>
        <time>2021-03-30T10:50:19.550Z</time>
      </trkpt>
      <trkpt lat="45.85747" lon="6.60897">
        <ele>1083</ele>
        <time>2021-03-30T10:50:23.257Z</time>
      </trkpt>
      <trkpt lat="45.85763" lon="6.60966">
        <ele>1084</ele>
        <time>2021-03-30T10:50:46.515Z</time>
      </trkpt>
      <trkpt lat="45.85763" lon="6.61">
        <ele>1085</ele>
        <time>2021-03-30T10:51:01.042Z</time>
      </trkpt>
      <trkpt lat="45.85758" lon="6.61002">
        <ele>1085</ele>
        <time>2021-03-30T10:51:02.995Z</time>
      </trkpt>
      <trkpt lat="45.85752" lon="6.61011">
        <ele>1085</ele>
        <time>2021-03-30T10:51:06.259Z</time>
      </trkpt>
      <trkpt lat="45.85751" lon="6.61025">
        <ele>1085</ele>
        <time>2021-03-30T10:51:09.946Z</time>
      </trkpt>
      <trkpt lat="45.85755" lon="6.61035">
        <ele>1086</ele>
        <time>2021-03-30T10:51:20.267Z</time>
      </trkpt>
      <trkpt lat="45.85759" lon="6.61038">
        <ele>1086</ele>
        <time>2021-03-30T10:51:21.965Z</time>
      </trkpt>
      <trkpt lat="45.85761" lon="6.61064">
        <ele>1087</ele>
        <time>2021-03-30T10:51:34.345Z</time>
      </trkpt>
      <trkpt lat="45.8574" lon="6.61192">
        <ele>1090</ele>
        <time>2021-03-30T10:52:23.564Z</time>
      </trkpt>
      <trkpt lat="45.85739" lon="6.61277">
        <ele>1091</ele>
        <time>2021-03-30T10:52:49.912Z</time>
      </trkpt>
      <trkpt lat="45.85744" lon="6.61322">
        <ele>1091</ele>
        <time>2021-03-30T10:53:01.850Z</time>
      </trkpt>
      <trkpt lat="45.8575" lon="6.6135">
        <ele>1090</ele>
        <time>2021-03-30T10:53:04.700Z</time>
      </trkpt>
      <trkpt lat="45.85808" lon="6.61574">
        <ele>1096</ele>
        <time>2021-03-30T10:54:38.174Z</time>
      </trkpt>
      <trkpt lat="45.85813" lon="6.61612">
        <ele>1097</ele>
        <time>2021-03-30T10:54:53.527Z</time>
      </trkpt>
      <trkpt lat="45.8581" lon="6.61624">
        <ele>1098</ele>
        <time>2021-03-30T10:55:03.431Z</time>
      </trkpt>
      <trkpt lat="45.85809" lon="6.61654">
        <ele>1099</ele>
        <time>2021-03-30T10:55:16.995Z</time>
      </trkpt>
      <trkpt lat="45.85816" lon="6.61666">
        <ele>1099</ele>
        <time>2021-03-30T10:55:21.095Z</time>
      </trkpt>
      <trkpt lat="45.85823" lon="6.61667">
        <ele>1099</ele>
        <time>2021-03-30T10:55:23.742Z</time>
      </trkpt>
      <trkpt lat="45.85839" lon="6.61687">
        <ele>1099</ele>
        <time>2021-03-30T10:55:31.721Z</time>
      </trkpt>
      <trkpt lat="45.85885" lon="6.61858">
        <ele>1099</ele>
        <time>2021-03-30T10:56:19.745Z</time>
      </trkpt>
      <trkpt lat="45.85895" lon="6.61882">
        <ele>1099</ele>
        <time>2021-03-30T10:56:27.072Z</time>
      </trkpt>
      <trkpt lat="45.85921" lon="6.61921">
        <ele>1098</ele>
        <time>2021-03-30T10:56:33.606Z</time>
      </trkpt>
      <trkpt lat="45.85931" lon="6.61943">
        <ele>1097</ele>
        <time>2021-03-30T10:56:36.042Z</time>
      </trkpt>
      <trkpt lat="45.85933" lon="6.6198">
        <ele>1097</ele>
        <time>2021-03-30T10:56:45.764Z</time>
      </trkpt>
      <trkpt lat="45.85956" lon="6.62007">
        <ele>1097</ele>
        <time>2021-03-30T10:56:56.939Z</time>
      </trkpt>
      <trkpt lat="45.85976" lon="6.62078">
        <ele>1100</ele>
        <time>2021-03-30T10:57:33.519Z</time>
      </trkpt>
      <trkpt lat="45.85984" lon="6.62096">
        <ele>1100</ele>
        <time>2021-03-30T10:57:39.113Z</time>
      </trkpt>
      <trkpt lat="45.86074" lon="6.62262">
        <ele>1102</ele>
        <time>2021-03-30T10:58:42.101Z</time>
      </trkpt>
      <trkpt lat="45.86109" lon="6.62317">
        <ele>1102</ele>
        <time>2021-03-30T10:59:01.618Z</time>
      </trkpt>
      <trkpt lat="45.86125" lon="6.62335">
        <ele>1103</ele>
        <time>2021-03-30T10:59:14.918Z</time>
      </trkpt>
      <trkpt lat="45.86178" lon="6.62379">
        <ele>1105</ele>
        <time>2021-03-30T10:59:47.781Z</time>
      </trkpt>
      <trkpt lat="45.87118" lon="6.62992">
        <ele>1105</ele>
        <time>2021-03-30T11:06:16.129Z</time>
      </trkpt>
      <trkpt lat="45.87134" lon="6.6301">
        <ele>1104</ele>
        <time>2021-03-30T11:06:18.964Z</time>
      </trkpt>
      <trkpt lat="45.87139" lon="6.63025">
        <ele>1102</ele>
        <time>2021-03-30T11:06:20.494Z</time>
      </trkpt>
      <trkpt lat="45.87145" lon="6.6303">
        <ele>1102</ele>
        <time>2021-03-30T11:06:23.103Z</time>
      </trkpt>
      <trkpt lat="45.87174" lon="6.63033">
        <ele>1104</ele>
        <time>2021-03-30T11:06:44.912Z</time>
      </trkpt>
      <trkpt lat="45.87183" lon="6.63036">
        <ele>1105</ele>
        <time>2021-03-30T11:06:54.738Z</time>
      </trkpt>
      <trkpt lat="45.87202" lon="6.63052">
        <ele>1104</ele>
        <time>2021-03-30T11:06:57.916Z</time>
      </trkpt>
      <trkpt lat="45.87219" lon="6.63071">
        <ele>1101</ele>
        <time>2021-03-30T11:07:00.761Z</time>
      </trkpt>
      <trkpt lat="45.87237" lon="6.631">
        <ele>1098</ele>
        <time>2021-03-30T11:07:04.334Z</time>
      </trkpt>
      <trkpt lat="45.87282" lon="6.63198">
        <ele>1094</ele>
        <time>2021-03-30T11:07:15.760Z</time>
      </trkpt>
      <trkpt lat="45.87301" lon="6.63221">
        <ele>1093</ele>
        <time>2021-03-30T11:07:19.520Z</time>
      </trkpt>
      <trkpt lat="45.87326" lon="6.63241">
        <ele>1092</ele>
        <time>2021-03-30T11:07:24.079Z</time>
      </trkpt>
      <trkpt lat="45.87459" lon="6.63306">
        <ele>1088</ele>
        <time>2021-03-30T11:07:48.007Z</time>
      </trkpt>
      <trkpt lat="45.87477" lon="6.63317">
        <ele>1087</ele>
        <time>2021-03-30T11:07:50.690Z</time>
      </trkpt>
      <trkpt lat="45.87491" lon="6.63329">
        <ele>1085</ele>
        <time>2021-03-30T11:07:52.843Z</time>
      </trkpt>
      <trkpt lat="45.87503" lon="6.63347">
        <ele>1084</ele>
        <time>2021-03-30T11:07:55.097Z</time>
      </trkpt>
      <trkpt lat="45.87513" lon="6.63379">
        <ele>1083</ele>
        <time>2021-03-30T11:07:58.768Z</time>
      </trkpt>
      <trkpt lat="45.87532" lon="6.63462">
        <ele>1081</ele>
        <time>2021-03-30T11:08:08.663Z</time>
      </trkpt>
      <trkpt lat="45.87542" lon="6.63492">
        <ele>1081</ele>
        <time>2021-03-30T11:08:17.374Z</time>
      </trkpt>
      <trkpt lat="45.87555" lon="6.63516">
        <ele>1080</ele>
        <time>2021-03-30T11:08:20.378Z</time>
      </trkpt>
      <trkpt lat="45.87576" lon="6.63541">
        <ele>1079</ele>
        <time>2021-03-30T11:08:24.650Z</time>
      </trkpt>
      <trkpt lat="45.87611" lon="6.63567">
        <ele>1076</ele>
        <time>2021-03-30T11:08:29.855Z</time>
      </trkpt>
      <trkpt lat="45.87627" lon="6.63569">
        <ele>1074</ele>
        <time>2021-03-30T11:08:31.977Z</time>
      </trkpt>
      <trkpt lat="45.87649" lon="6.63567">
        <ele>1073</ele>
        <time>2021-03-30T11:08:35.158Z</time>
      </trkpt>
      <trkpt lat="45.87675" lon="6.63561">
        <ele>1072</ele>
        <time>2021-03-30T11:08:39.230Z</time>
      </trkpt>
      <trkpt lat="45.87698" lon="6.63564">
        <ele>1071</ele>
        <time>2021-03-30T11:08:42.626Z</time>
      </trkpt>
      <trkpt lat="45.8772" lon="6.6358">
        <ele>1070</ele>
        <time>2021-03-30T11:08:46.347Z</time>
      </trkpt>
      <trkpt lat="45.87802" lon="6.63707">
        <ele>1066</ele>
        <time>2021-03-30T11:09:05.904Z</time>
      </trkpt>
      <trkpt lat="45.87822" lon="6.63729">
        <ele>1065</ele>
        <time>2021-03-30T11:09:09.736Z</time>
      </trkpt>
      <trkpt lat="45.87932" lon="6.63807">
        <ele>1061</ele>
        <time>2021-03-30T11:09:29.746Z</time>
      </trkpt>
      <trkpt lat="45.87969" lon="6.63841">
        <ele>1061</ele>
        <time>2021-03-30T11:09:46.269Z</time>
      </trkpt>
      <trkpt lat="45.87998" lon="6.63873">
        <ele>1060</ele>
        <time>2021-03-30T11:09:52.573Z</time>
      </trkpt>
      <trkpt lat="45.88062" lon="6.63981">
        <ele>1055</ele>
        <time>2021-03-30T11:10:06.173Z</time>
      </trkpt>
      <trkpt lat="45.88092" lon="6.64017">
        <ele>1054</ele>
        <time>2021-03-30T11:10:13.043Z</time>
      </trkpt>
      <trkpt lat="45.88215" lon="6.64101">
        <ele>1048</ele>
        <time>2021-03-30T11:10:32.932Z</time>
      </trkpt>
      <trkpt lat="45.88229" lon="6.64119">
        <ele>1048</ele>
        <time>2021-03-30T11:10:40.000Z</time>
      </trkpt>
      <trkpt lat="45.88241" lon="6.64142">
        <ele>1046</ele>
        <time>2021-03-30T11:10:42.643Z</time>
      </trkpt>
      <trkpt lat="45.88243" lon="6.64156">
        <ele>1046</ele>
        <time>2021-03-30T11:10:46.385Z</time>
      </trkpt>
      <trkpt lat="45.88239" lon="6.64163">
        <ele>1045</ele>
        <time>2021-03-30T11:10:47.218Z</time>
      </trkpt>
      <trkpt lat="45.88236" lon="6.6418">
        <ele>1045</ele>
        <time>2021-03-30T11:10:51.810Z</time>
      </trkpt>
      <trkpt lat="45.88242" lon="6.64197">
        <ele>1045</ele>
        <time>2021-03-30T11:10:56.801Z</time>
      </trkpt>
      <trkpt lat="45.88254" lon="6.64205">
        <ele>1045</ele>
        <time>2021-03-30T11:11:01.778Z</time>
      </trkpt>
      <trkpt lat="45.88289" lon="6.64202">
        <ele>1044</ele>
        <time>2021-03-30T11:11:07.746Z</time>
      </trkpt>
      <trkpt lat="45.88299" lon="6.64208">
        <ele>1044</ele>
        <time>2021-03-30T11:11:11.823Z</time>
      </trkpt>
      <trkpt lat="45.88328" lon="6.64232">
        <ele>1042</ele>
        <time>2021-03-30T11:11:16.097Z</time>
      </trkpt>
      <trkpt lat="45.88345" lon="6.64272">
        <ele>1040</ele>
        <time>2021-03-30T11:11:20.212Z</time>
      </trkpt>
      <trkpt lat="45.88374" lon="6.64314">
        <ele>1038</ele>
        <time>2021-03-30T11:11:25.987Z</time>
      </trkpt>
      <trkpt lat="45.88423" lon="6.64364">
        <ele>1034</ele>
        <time>2021-03-30T11:11:33.267Z</time>
      </trkpt>
      <trkpt lat="45.8845" lon="6.64389">
        <ele>1031</ele>
        <time>2021-03-30T11:11:37.510Z</time>
      </trkpt>
      <trkpt lat="45.88529" lon="6.6443">
        <ele>1024</ele>
        <time>2021-03-30T11:11:48.605Z</time>
      </trkpt>
      <trkpt lat="45.88581" lon="6.64447">
        <ele>1021</ele>
        <time>2021-03-30T11:11:55.612Z</time>
      </trkpt>
      <trkpt lat="45.88628" lon="6.6445">
        <ele>1020</ele>
        <time>2021-03-30T11:12:04.293Z</time>
      </trkpt>
      <trkpt lat="45.88668" lon="6.64462">
        <ele>1019</ele>
        <time>2021-03-30T11:12:11.562Z</time>
      </trkpt>
      <trkpt lat="45.88728" lon="6.64485">
        <ele>1015</ele>
        <time>2021-03-30T11:12:19.208Z</time>
      </trkpt>
      <trkpt lat="45.88776" lon="6.64487">
        <ele>1014</ele>
        <time>2021-03-30T11:12:28.113Z</time>
      </trkpt>
      <trkpt lat="45.88809" lon="6.64505">
        <ele>1012</ele>
        <time>2021-03-30T11:12:32.735Z</time>
      </trkpt>
      <trkpt lat="45.88846" lon="6.64516">
        <ele>1009</ele>
        <time>2021-03-30T11:12:37.726Z</time>
      </trkpt>
      <trkpt lat="45.8907" lon="6.64526">
        <ele>997</ele>
        <time>2021-03-30T11:13:07.840Z</time>
      </trkpt>
      <trkpt lat="45.89134" lon="6.64512">
        <ele>994</ele>
        <time>2021-03-30T11:13:17.100Z</time>
      </trkpt>
      <trkpt lat="45.89168" lon="6.64507">
        <ele>993</ele>
        <time>2021-03-30T11:13:22.873Z</time>
      </trkpt>
      <trkpt lat="45.89197" lon="6.64507">
        <ele>991</ele>
        <time>2021-03-30T11:13:26.703Z</time>
      </trkpt>
      <trkpt lat="45.89254" lon="6.6451">
        <ele>987</ele>
        <time>2021-03-30T11:13:34.238Z</time>
      </trkpt>
      <trkpt lat="45.89304" lon="6.6453">
        <ele>981</ele>
        <time>2021-03-30T11:13:41.093Z</time>
      </trkpt>
      <trkpt lat="45.89325" lon="6.64535">
        <ele>980</ele>
        <time>2021-03-30T11:13:44.121Z</time>
      </trkpt>
      <trkpt lat="45.89352" lon="6.64538">
        <ele>978</ele>
        <time>2021-03-30T11:13:47.698Z</time>
      </trkpt>
      <trkpt lat="45.89374" lon="6.64537">
        <ele>978</ele>
        <time>2021-03-30T11:13:55.978Z</time>
      </trkpt>
      <trkpt lat="45.89394" lon="6.64529">
        <ele>978</ele>
        <time>2021-03-30T11:14:03.787Z</time>
      </trkpt>
      <trkpt lat="45.89416" lon="6.64535">
        <ele>977</ele>
        <time>2021-03-30T11:14:07.040Z</time>
      </trkpt>
      <trkpt lat="45.89423" lon="6.6453">
        <ele>977</ele>
        <time>2021-03-30T11:14:09.980Z</time>
      </trkpt>
      <trkpt lat="45.89425" lon="6.64525">
        <ele>977</ele>
        <time>2021-03-30T11:14:11.490Z</time>
      </trkpt>
      <trkpt lat="45.89517" lon="6.64491">
        <ele>974</ele>
        <time>2021-03-30T11:14:27.150Z</time>
      </trkpt>
      <trkpt lat="45.89592" lon="6.64397">
        <ele>970</ele>
        <time>2021-03-30T11:14:42.217Z</time>
      </trkpt>
      <trkpt lat="45.89611" lon="6.64379">
        <ele>970</ele>
        <time>2021-03-30T11:14:50.777Z</time>
      </trkpt>
      <trkpt lat="45.89624" lon="6.64368">
        <ele>970</ele>
        <time>2021-03-30T11:14:56.453Z</time>
      </trkpt>
      <trkpt lat="45.89639" lon="6.64361">
        <ele>969</ele>
        <time>2021-03-30T11:14:58.409Z</time>
      </trkpt>
      <trkpt lat="45.89644" lon="6.6437">
        <ele>968</ele>
        <time>2021-03-30T11:14:59.468Z</time>
      </trkpt>
      <trkpt lat="45.8965" lon="6.64371">
        <ele>968</ele>
        <time>2021-03-30T11:15:01.740Z</time>
      </trkpt>
      <trkpt lat="45.89656" lon="6.64361">
        <ele>968</ele>
        <time>2021-03-30T11:15:05.197Z</time>
      </trkpt>
      <trkpt lat="45.89653" lon="6.6435">
        <ele>969</ele>
        <time>2021-03-30T11:15:15.387Z</time>
      </trkpt>
      <trkpt lat="45.89671" lon="6.64332">
        <ele>970</ele>
        <time>2021-03-30T11:15:29.407Z</time>
      </trkpt>
      <trkpt lat="45.89696" lon="6.64317">
        <ele>968</ele>
        <time>2021-03-30T11:15:32.986Z</time>
      </trkpt>
      <trkpt lat="45.8989" lon="6.64139">
        <ele>951</ele>
        <time>2021-03-30T11:16:03.390Z</time>
      </trkpt>
      <trkpt lat="45.89922" lon="6.6413">
        <ele>946</ele>
        <time>2021-03-30T11:16:07.697Z</time>
      </trkpt>
      <trkpt lat="45.89948" lon="6.64134">
        <ele>944</ele>
        <time>2021-03-30T11:16:11.151Z</time>
      </trkpt>
      <trkpt lat="45.89986" lon="6.64153">
        <ele>941</ele>
        <time>2021-03-30T11:16:16.466Z</time>
      </trkpt>
      <trkpt lat="45.89986" lon="6.64164">
        <ele>941</ele>
        <time>2021-03-30T11:16:19.346Z</time>
      </trkpt>
      <trkpt lat="45.89992" lon="6.64172">
        <ele>940</ele>
        <time>2021-03-30T11:16:20.427Z</time>
      </trkpt>
      <trkpt lat="45.89995" lon="6.64174">
        <ele>940</ele>
        <time>2021-03-30T11:16:21.671Z</time>
      </trkpt>
      <trkpt lat="45.90003" lon="6.64172">
        <ele>940</ele>
        <time>2021-03-30T11:16:24.726Z</time>
      </trkpt>
      <trkpt lat="45.90006" lon="6.64168">
        <ele>940</ele>
        <time>2021-03-30T11:16:26.265Z</time>
      </trkpt>
      <trkpt lat="45.90109" lon="6.64245">
        <ele>935</ele>
        <time>2021-03-30T11:16:43.376Z</time>
      </trkpt>
      <trkpt lat="45.90124" lon="6.64265">
        <ele>933</ele>
        <time>2021-03-30T11:16:46.079Z</time>
      </trkpt>
      <trkpt lat="45.90132" lon="6.64293">
        <ele>931</ele>
        <time>2021-03-30T11:16:48.861Z</time>
      </trkpt>
      <trkpt lat="45.90133" lon="6.64309">
        <ele>930</ele>
        <time>2021-03-30T11:16:50.338Z</time>
      </trkpt>
      <trkpt lat="45.90127" lon="6.64335">
        <ele>928</ele>
        <time>2021-03-30T11:16:52.856Z</time>
      </trkpt>
      <trkpt lat="45.90121" lon="6.6435">
        <ele>925</ele>
        <time>2021-03-30T11:16:54.446Z</time>
      </trkpt>
      <trkpt lat="45.90103" lon="6.6437">
        <ele>923</ele>
        <time>2021-03-30T11:16:57.451Z</time>
      </trkpt>
      <trkpt lat="45.90095" lon="6.64374">
        <ele>923</ele>
        <time>2021-03-30T11:17:00.638Z</time>
      </trkpt>
      <trkpt lat="45.90056" lon="6.64374">
        <ele>924</ele>
        <time>2021-03-30T11:17:19.812Z</time>
      </trkpt>
      <trkpt lat="45.90034" lon="6.64378">
        <ele>923</ele>
        <time>2021-03-30T11:17:23.020Z</time>
      </trkpt>
      <trkpt lat="45.89999" lon="6.64398">
        <ele>921</ele>
        <time>2021-03-30T11:17:28.100Z</time>
      </trkpt>
      <trkpt lat="45.89982" lon="6.64417">
        <ele>920</ele>
        <time>2021-03-30T11:17:31.178Z</time>
      </trkpt>
      <trkpt lat="45.89975" lon="6.64429">
        <ele>920</ele>
        <time>2021-03-30T11:17:35.277Z</time>
      </trkpt>
      <trkpt lat="45.89967" lon="6.64451">
        <ele>921</ele>
        <time>2021-03-30T11:17:47.259Z</time>
      </trkpt>
      <trkpt lat="45.89966" lon="6.6449">
        <ele>920</ele>
        <time>2021-03-30T11:17:51.506Z</time>
      </trkpt>
      <trkpt lat="45.8997" lon="6.64539">
        <ele>916</ele>
        <time>2021-03-30T11:17:56.041Z</time>
      </trkpt>
      <trkpt lat="45.89967" lon="6.64559">
        <ele>914</ele>
        <time>2021-03-30T11:17:57.922Z</time>
      </trkpt>
      <trkpt lat="45.89961" lon="6.64578">
        <ele>913</ele>
        <time>2021-03-30T11:17:59.840Z</time>
      </trkpt>
      <trkpt lat="45.89939" lon="6.64616">
        <ele>912</ele>
        <time>2021-03-30T11:18:05.662Z</time>
      </trkpt>
      <trkpt lat="45.89903" lon="6.64663">
        <ele>910</ele>
        <time>2021-03-30T11:18:12.961Z</time>
      </trkpt>
      <trkpt lat="45.89885" lon="6.64694">
        <ele>909</ele>
        <time>2021-03-30T11:18:17.409Z</time>
      </trkpt>
      <trkpt lat="45.8988" lon="6.64691">
        <ele>909</ele>
        <time>2021-03-30T11:18:19.447Z</time>
      </trkpt>
      <trkpt lat="45.89871" lon="6.64691">
        <ele>910</ele>
        <time>2021-03-30T11:18:29.320Z</time>
      </trkpt>
      <trkpt lat="45.89867" lon="6.64695">
        <ele>910</ele>
        <time>2021-03-30T11:18:31.153Z</time>
      </trkpt>
      <trkpt lat="45.89863" lon="6.64706">
        <ele>909</ele>
        <time>2021-03-30T11:18:32.294Z</time>
      </trkpt>
      <trkpt lat="45.89865" lon="6.6472">
        <ele>907</ele>
        <time>2021-03-30T11:18:33.608Z</time>
      </trkpt>
      <trkpt lat="45.89846" lon="6.6474">
        <ele>906</ele>
        <time>2021-03-30T11:18:37.098Z</time>
      </trkpt>
      <trkpt lat="45.89768" lon="6.64854">
        <ele>899</ele>
        <time>2021-03-30T11:18:50.955Z</time>
      </trkpt>
      <trkpt lat="45.89757" lon="6.64877">
        <ele>898</ele>
        <time>2021-03-30T11:18:53.611Z</time>
      </trkpt>
      <trkpt lat="45.89723" lon="6.64981">
        <ele>893</ele>
        <time>2021-03-30T11:19:03.601Z</time>
      </trkpt>
      <trkpt lat="45.89699" lon="6.65018">
        <ele>894</ele>
        <time>2021-03-30T11:19:21.500Z</time>
      </trkpt>
      <trkpt lat="45.89678" lon="6.65041">
        <ele>896</ele>
        <time>2021-03-30T11:19:42.392Z</time>
      </trkpt>
      <trkpt lat="45.89662" lon="6.65069">
        <ele>896</ele>
        <time>2021-03-30T11:19:51.877Z</time>
      </trkpt>
      <trkpt lat="45.8966" lon="6.65086">
        <ele>895</ele>
        <time>2021-03-30T11:19:53.462Z</time>
      </trkpt>
      <trkpt lat="45.89666" lon="6.65116">
        <ele>891</ele>
        <time>2021-03-30T11:19:56.331Z</time>
      </trkpt>
      <trkpt lat="45.89682" lon="6.65135">
        <ele>887</ele>
        <time>2021-03-30T11:19:59.073Z</time>
      </trkpt>
      <trkpt lat="45.89695" lon="6.6514">
        <ele>886</ele>
        <time>2021-03-30T11:20:00.851Z</time>
      </trkpt>
      <trkpt lat="45.89707" lon="6.6514">
        <ele>885</ele>
        <time>2021-03-30T11:20:02.436Z</time>
      </trkpt>
      <trkpt lat="45.8974" lon="6.65119">
        <ele>884</ele>
        <time>2021-03-30T11:20:08.633Z</time>
      </trkpt>
      <trkpt lat="45.89776" lon="6.65106">
        <ele>883</ele>
        <time>2021-03-30T11:20:15.060Z</time>
      </trkpt>
      <trkpt lat="45.89802" lon="6.65105">
        <ele>881</ele>
        <time>2021-03-30T11:20:18.496Z</time>
      </trkpt>
      <trkpt lat="45.89809" lon="6.65109">
        <ele>881</ele>
        <time>2021-03-30T11:20:21.330Z</time>
      </trkpt>
      <trkpt lat="45.89829" lon="6.65134">
        <ele>876</ele>
        <time>2021-03-30T11:20:24.831Z</time>
      </trkpt>
      <trkpt lat="45.89858" lon="6.65149">
        <ele>871</ele>
        <time>2021-03-30T11:20:28.903Z</time>
      </trkpt>
      <trkpt lat="45.89872" lon="6.65153">
        <ele>869</ele>
        <time>2021-03-30T11:20:30.788Z</time>
      </trkpt>
      <trkpt lat="45.89885" lon="6.65153">
        <ele>867</ele>
        <time>2021-03-30T11:20:32.505Z</time>
      </trkpt>
      <trkpt lat="45.89897" lon="6.65146">
        <ele>867</ele>
        <time>2021-03-30T11:20:37.377Z</time>
      </trkpt>
      <trkpt lat="45.89903" lon="6.65137">
        <ele>868</ele>
        <time>2021-03-30T11:20:47.348Z</time>
      </trkpt>
      <trkpt lat="45.89913" lon="6.65107">
        <ele>871</ele>
        <time>2021-03-30T11:21:19.170Z</time>
      </trkpt>
      <trkpt lat="45.89922" lon="6.65097">
        <ele>871</ele>
        <time>2021-03-30T11:21:23.449Z</time>
      </trkpt>
      <trkpt lat="45.89964" lon="6.65078">
        <ele>865</ele>
        <time>2021-03-30T11:21:29.266Z</time>
      </trkpt>
      <trkpt lat="45.89993" lon="6.65057">
        <ele>865</ele>
        <time>2021-03-30T11:21:41.481Z</time>
      </trkpt>
      <trkpt lat="45.90007" lon="6.65039">
        <ele>867</ele>
        <time>2021-03-30T11:22:01.093Z</time>
      </trkpt>
      <trkpt lat="45.9004" lon="6.64987">
        <ele>869</ele>
        <time>2021-03-30T11:22:30.526Z</time>
      </trkpt>
      <trkpt lat="45.90072" lon="6.64956">
        <ele>862</ele>
        <time>2021-03-30T11:22:35.623Z</time>
      </trkpt>
      <trkpt lat="45.90084" lon="6.6494">
        <ele>859</ele>
        <time>2021-03-30T11:22:37.786Z</time>
      </trkpt>
      <trkpt lat="45.90109" lon="6.64892">
        <ele>857</ele>
        <time>2021-03-30T11:22:43.670Z</time>
      </trkpt>
      <trkpt lat="45.90167" lon="6.64818">
        <ele>854</ele>
        <time>2021-03-30T11:22:55.583Z</time>
      </trkpt>
      <trkpt lat="45.90223" lon="6.64728">
        <ele>857</ele>
        <time>2021-03-30T11:23:42.548Z</time>
      </trkpt>
      <trkpt lat="45.90243" lon="6.64711">
        <ele>855</ele>
        <time>2021-03-30T11:23:45.617Z</time>
      </trkpt>
      <trkpt lat="45.90268" lon="6.64702">
        <ele>850</ele>
        <time>2021-03-30T11:23:49.022Z</time>
      </trkpt>
      <trkpt lat="45.90279" lon="6.64688">
        <ele>850</ele>
        <time>2021-03-30T11:23:54.549Z</time>
      </trkpt>
      <trkpt lat="45.90289" lon="6.64668">
        <ele>852</ele>
        <time>2021-03-30T11:24:14.572Z</time>
      </trkpt>
      <trkpt lat="45.90298" lon="6.64656">
        <ele>851</ele>
        <time>2021-03-30T11:24:16.194Z</time>
      </trkpt>
      <trkpt lat="45.90307" lon="6.6465">
        <ele>849</ele>
        <time>2021-03-30T11:24:17.505Z</time>
      </trkpt>
      <trkpt lat="45.90347" lon="6.64634">
        <ele>839</ele>
        <time>2021-03-30T11:24:22.989Z</time>
      </trkpt>
      <trkpt lat="45.90362" lon="6.64618">
        <ele>836</ele>
        <time>2021-03-30T11:24:25.457Z</time>
      </trkpt>
      <trkpt lat="45.90369" lon="6.646">
        <ele>836</ele>
        <time>2021-03-30T11:24:30.854Z</time>
      </trkpt>
      <trkpt lat="45.90369" lon="6.6459">
        <ele>837</ele>
        <time>2021-03-30T11:24:40.951Z</time>
      </trkpt>
      <trkpt lat="45.90368" lon="6.6458">
        <ele>839</ele>
        <time>2021-03-30T11:24:51.151Z</time>
      </trkpt>
      <trkpt lat="45.90361" lon="6.64563">
        <ele>842</ele>
        <time>2021-03-30T11:25:11.095Z</time>
      </trkpt>
      <trkpt lat="45.90358" lon="6.64547">
        <ele>844</ele>
        <time>2021-03-30T11:25:27.826Z</time>
      </trkpt>
      <trkpt lat="45.90368" lon="6.64484">
        <ele>844</ele>
        <time>2021-03-30T11:25:44.741Z</time>
      </trkpt>
      <trkpt lat="45.90377" lon="6.64462">
        <ele>843</ele>
        <time>2021-03-30T11:25:47.073Z</time>
      </trkpt>
      <trkpt lat="45.90399" lon="6.64431">
        <ele>835</ele>
        <time>2021-03-30T11:25:51.143Z</time>
      </trkpt>
      <trkpt lat="45.90409" lon="6.64409">
        <ele>832</ele>
        <time>2021-03-30T11:25:53.558Z</time>
      </trkpt>
      <trkpt lat="45.9042" lon="6.64364">
        <ele>830</ele>
        <time>2021-03-30T11:25:57.779Z</time>
      </trkpt>
      <trkpt lat="45.90423" lon="6.64322">
        <ele>830</ele>
        <time>2021-03-30T11:26:08.831Z</time>
      </trkpt>
      <trkpt lat="45.9045" lon="6.64239">
        <ele>819</ele>
        <time>2021-03-30T11:26:17.253Z</time>
      </trkpt>
      <trkpt lat="45.90456" lon="6.64215">
        <ele>818</ele>
        <time>2021-03-30T11:26:19.582Z</time>
      </trkpt>
      <trkpt lat="45.90464" lon="6.64162">
        <ele>820</ele>
        <time>2021-03-30T11:26:44.902Z</time>
      </trkpt>
      <trkpt lat="45.90475" lon="6.64133">
        <ele>824</ele>
        <time>2021-03-30T11:27:18.249Z</time>
      </trkpt>
      <trkpt lat="45.90494" lon="6.6411">
        <ele>824</ele>
        <time>2021-03-30T11:27:27.594Z</time>
      </trkpt>
      <trkpt lat="45.90507" lon="6.64102">
        <ele>824</ele>
        <time>2021-03-30T11:27:32.913Z</time>
      </trkpt>
      <trkpt lat="45.90521" lon="6.64098">
        <ele>823</ele>
        <time>2021-03-30T11:27:34.799Z</time>
      </trkpt>
      <trkpt lat="45.9056" lon="6.64105">
        <ele>817</ele>
        <time>2021-03-30T11:27:39.990Z</time>
      </trkpt>
      <trkpt lat="45.90594" lon="6.64093">
        <ele>816</ele>
        <time>2021-03-30T11:27:45.947Z</time>
      </trkpt>
      <trkpt lat="45.90622" lon="6.6408">
        <ele>815</ele>
        <time>2021-03-30T11:27:50.681Z</time>
      </trkpt>
      <trkpt lat="45.90648" lon="6.64055">
        <ele>820</ele>
        <time>2021-03-30T11:28:36.070Z</time>
      </trkpt>
      <trkpt lat="45.90659" lon="6.64047">
        <ele>821</ele>
        <time>2021-03-30T11:28:46.255Z</time>
      </trkpt>
      <trkpt lat="45.90668" lon="6.64044">
        <ele>821</ele>
        <time>2021-03-30T11:28:49.731Z</time>
      </trkpt>
      <trkpt lat="45.9068" lon="6.64046">
        <ele>819</ele>
        <time>2021-03-30T11:28:51.327Z</time>
      </trkpt>
      <trkpt lat="45.90709" lon="6.64061">
        <ele>810</ele>
        <time>2021-03-30T11:28:55.398Z</time>
      </trkpt>
      <trkpt lat="45.90727" lon="6.64061">
        <ele>808</ele>
        <time>2021-03-30T11:28:57.775Z</time>
      </trkpt>
      <trkpt lat="45.90749" lon="6.64046">
        <ele>810</ele>
        <time>2021-03-30T11:29:18.064Z</time>
      </trkpt>
      <trkpt lat="45.90773" lon="6.64012">
        <ele>814</ele>
        <time>2021-03-30T11:29:58.373Z</time>
      </trkpt>
      <trkpt lat="45.9078" lon="6.64005">
        <ele>814</ele>
        <time>2021-03-30T11:30:01.581Z</time>
      </trkpt>
      <trkpt lat="45.9079" lon="6.64">
        <ele>813</ele>
        <time>2021-03-30T11:30:02.979Z</time>
      </trkpt>
      <trkpt lat="45.9081" lon="6.64002">
        <ele>807</ele>
        <time>2021-03-30T11:30:05.628Z</time>
      </trkpt>
      <trkpt lat="45.90836" lon="6.6402">
        <ele>794</ele>
        <time>2021-03-30T11:30:09.440Z</time>
      </trkpt>
      <trkpt lat="45.9089" lon="6.6404">
        <ele>774</ele>
        <time>2021-03-30T11:30:16.806Z</time>
      </trkpt>
      <trkpt lat="45.90904" lon="6.64042">
        <ele>770</ele>
        <time>2021-03-30T11:30:18.664Z</time>
      </trkpt>
      <trkpt lat="45.90916" lon="6.6404">
        <ele>768</ele>
        <time>2021-03-30T11:30:20.260Z</time>
      </trkpt>
      <trkpt lat="45.90923" lon="6.64032">
        <ele>765</ele>
        <time>2021-03-30T11:30:21.441Z</time>
      </trkpt>
      <trkpt lat="45.90926" lon="6.64017">
        <ele>765</ele>
        <time>2021-03-30T11:30:25.526Z</time>
      </trkpt>
      <trkpt lat="45.90923" lon="6.64002">
        <ele>768</ele>
        <time>2021-03-30T11:30:41.283Z</time>
      </trkpt>
      <trkpt lat="45.90906" lon="6.63982">
        <ele>773</ele>
        <time>2021-03-30T11:31:13.159Z</time>
      </trkpt>
      <trkpt lat="45.90875" lon="6.63958">
        <ele>787</ele>
        <time>2021-03-30T11:32:04.249Z</time>
      </trkpt>
      <trkpt lat="45.90868" lon="6.63949">
        <ele>791</ele>
        <time>2021-03-30T11:32:17.877Z</time>
      </trkpt>
      <trkpt lat="45.90863" lon="6.63936">
        <ele>795</ele>
        <time>2021-03-30T11:32:32.873Z</time>
      </trkpt>
      <trkpt lat="45.90862" lon="6.63924">
        <ele>797</ele>
        <time>2021-03-30T11:32:45.074Z</time>
      </trkpt>
      <trkpt lat="45.90868" lon="6.63886">
        <ele>795</ele>
        <time>2021-03-30T11:32:48.655Z</time>
      </trkpt>
      <trkpt lat="45.90866" lon="6.63837">
        <ele>799</ele>
        <time>2021-03-30T11:33:28.754Z</time>
      </trkpt>
      <trkpt lat="45.90872" lon="6.63816">
        <ele>797</ele>
        <time>2021-03-30T11:33:30.841Z</time>
      </trkpt>
      <trkpt lat="45.9088" lon="6.63804">
        <ele>794</ele>
        <time>2021-03-30T11:33:32.368Z</time>
      </trkpt>
      <trkpt lat="45.90887" lon="6.638">
        <ele>790</ele>
        <time>2021-03-30T11:33:33.363Z</time>
      </trkpt>
      <trkpt lat="45.90902" lon="6.63801">
        <ele>782</ele>
        <time>2021-03-30T11:33:35.347Z</time>
      </trkpt>
      <trkpt lat="45.90927" lon="6.63812">
        <ele>768</ele>
        <time>2021-03-30T11:33:38.801Z</time>
      </trkpt>
      <trkpt lat="45.90933" lon="6.63812">
        <ele>767</ele>
        <time>2021-03-30T11:33:39.593Z</time>
      </trkpt>
      <trkpt lat="45.90957" lon="6.63795">
        <ele>767</ele>
        <time>2021-03-30T11:33:49.658Z</time>
      </trkpt>
      <trkpt lat="45.90985" lon="6.63784">
        <ele>765</ele>
        <time>2021-03-30T11:33:53.492Z</time>
      </trkpt>
      <trkpt lat="45.90995" lon="6.63785">
        <ele>763</ele>
        <time>2021-03-30T11:33:54.816Z</time>
      </trkpt>
      <trkpt lat="45.91057" lon="6.63805">
        <ele>752</ele>
        <time>2021-03-30T11:34:03.210Z</time>
      </trkpt>
      <trkpt lat="45.9109" lon="6.63835">
        <ele>746</ele>
        <time>2021-03-30T11:34:08.368Z</time>
      </trkpt>
      <trkpt lat="45.91099" lon="6.63837">
        <ele>744</ele>
        <time>2021-03-30T11:34:09.571Z</time>
      </trkpt>
      <trkpt lat="45.91111" lon="6.63832">
        <ele>742</ele>
        <time>2021-03-30T11:34:11.221Z</time>
      </trkpt>
      <trkpt lat="45.91121" lon="6.63817">
        <ele>742</ele>
        <time>2021-03-30T11:34:16.658Z</time>
      </trkpt>
      <trkpt lat="45.91123" lon="6.63803">
        <ele>743</ele>
        <time>2021-03-30T11:34:26.439Z</time>
      </trkpt>
      <trkpt lat="45.91121" lon="6.63768">
        <ele>746</ele>
        <time>2021-03-30T11:34:57.161Z</time>
      </trkpt>
      <trkpt lat="45.91125" lon="6.63734">
        <ele>747</ele>
        <time>2021-03-30T11:35:11.759Z</time>
      </trkpt>
      <trkpt lat="45.91137" lon="6.63701">
        <ele>746</ele>
        <time>2021-03-30T11:35:15.742Z</time>
      </trkpt>
      <trkpt lat="45.91153" lon="6.63668">
        <ele>743</ele>
        <time>2021-03-30T11:35:19.438Z</time>
      </trkpt>
      <trkpt lat="45.9117" lon="6.63645">
        <ele>743</ele>
        <time>2021-03-30T11:35:28.221Z</time>
      </trkpt>
      <trkpt lat="45.9119" lon="6.6363">
        <ele>742</ele>
        <time>2021-03-30T11:35:31.507Z</time>
      </trkpt>
      <trkpt lat="45.91208" lon="6.63624">
        <ele>740</ele>
        <time>2021-03-30T11:35:33.948Z</time>
      </trkpt>
      <trkpt lat="45.91244" lon="6.63622">
        <ele>733</ele>
        <time>2021-03-30T11:35:38.707Z</time>
      </trkpt>
      <trkpt lat="45.91267" lon="6.63615">
        <ele>731</ele>
        <time>2021-03-30T11:35:41.812Z</time>
      </trkpt>
      <trkpt lat="45.91292" lon="6.63597">
        <ele>731</ele>
        <time>2021-03-30T11:35:52.330Z</time>
      </trkpt>
      <trkpt lat="45.91311" lon="6.63587">
        <ele>731</ele>
        <time>2021-03-30T11:35:59.942Z</time>
      </trkpt>
      <trkpt lat="45.91329" lon="6.63583">
        <ele>730</ele>
        <time>2021-03-30T11:36:02.361Z</time>
      </trkpt>
      <trkpt lat="45.91406" lon="6.63587">
        <ele>719</ele>
        <time>2021-03-30T11:36:12.539Z</time>
      </trkpt>
      <trkpt lat="45.91422" lon="6.63592">
        <ele>717</ele>
        <time>2021-03-30T11:36:14.702Z</time>
      </trkpt>
      <trkpt lat="45.91453" lon="6.63608">
        <ele>715</ele>
        <time>2021-03-30T11:36:18.876Z</time>
      </trkpt>
      <trkpt lat="45.91468" lon="6.63613">
        <ele>715</ele>
        <time>2021-03-30T11:36:24.668Z</time>
      </trkpt>
      <trkpt lat="45.9148" lon="6.63614">
        <ele>715</ele>
        <time>2021-03-30T11:36:29.190Z</time>
      </trkpt>
      <trkpt lat="45.91497" lon="6.63608">
        <ele>717</ele>
        <time>2021-03-30T11:36:49.075Z</time>
      </trkpt>
      <trkpt lat="45.91524" lon="6.63584">
        <ele>719</ele>
        <time>2021-03-30T11:37:11.901Z</time>
      </trkpt>
      <trkpt lat="45.91533" lon="6.63581">
        <ele>719</ele>
        <time>2021-03-30T11:37:15.376Z</time>
      </trkpt>
      <trkpt lat="45.91545" lon="6.63581">
        <ele>718</ele>
        <time>2021-03-30T11:37:16.961Z</time>
      </trkpt>
      <trkpt lat="45.91586" lon="6.63599">
        <ele>711</ele>
        <time>2021-03-30T11:37:22.624Z</time>
      </trkpt>
      <trkpt lat="45.91619" lon="6.63629">
        <ele>704</ele>
        <time>2021-03-30T11:37:27.782Z</time>
      </trkpt>
      <trkpt lat="45.91629" lon="6.63635">
        <ele>702</ele>
        <time>2021-03-30T11:37:29.213Z</time>
      </trkpt>
      <trkpt lat="45.9164" lon="6.63637">
        <ele>701</ele>
        <time>2021-03-30T11:37:30.678Z</time>
      </trkpt>
      <trkpt lat="45.91652" lon="6.63636">
        <ele>701</ele>
        <time>2021-03-30T11:37:35.199Z</time>
      </trkpt>
      <trkpt lat="45.91693" lon="6.6362">
        <ele>701</ele>
        <time>2021-03-30T11:37:51.180Z</time>
      </trkpt>
      <trkpt lat="45.91709" lon="6.63617">
        <ele>701</ele>
        <time>2021-03-30T11:37:57.250Z</time>
      </trkpt>
      <trkpt lat="45.91748" lon="6.63622">
        <ele>699</ele>
        <time>2021-03-30T11:38:02.623Z</time>
      </trkpt>
      <trkpt lat="45.91763" lon="6.63619">
        <ele>697</ele>
        <time>2021-03-30T11:38:04.623Z</time>
      </trkpt>
      <trkpt lat="45.91776" lon="6.63613">
        <ele>696</ele>
        <time>2021-03-30T11:38:06.427Z</time>
      </trkpt>
      <trkpt lat="45.91789" lon="6.63603">
        <ele>696</ele>
        <time>2021-03-30T11:38:11.973Z</time>
      </trkpt>
      <trkpt lat="45.91829" lon="6.63559">
        <ele>701</ele>
        <time>2021-03-30T11:39:00.896Z</time>
      </trkpt>
      <trkpt lat="45.91853" lon="6.63545">
        <ele>701</ele>
        <time>2021-03-30T11:39:10.640Z</time>
      </trkpt>
      <trkpt lat="45.91888" lon="6.63549">
        <ele>695</ele>
        <time>2021-03-30T11:39:15.277Z</time>
      </trkpt>
      <trkpt lat="45.91905" lon="6.63555">
        <ele>690</ele>
        <time>2021-03-30T11:39:17.590Z</time>
      </trkpt>
      <trkpt lat="45.91919" lon="6.63555">
        <ele>688</ele>
        <time>2021-03-30T11:39:19.439Z</time>
      </trkpt>
      <trkpt lat="45.91965" lon="6.63545">
        <ele>683</ele>
        <time>2021-03-30T11:39:25.584Z</time>
      </trkpt>
      <trkpt lat="45.91976" lon="6.6355">
        <ele>680</ele>
        <time>2021-03-30T11:39:27.108Z</time>
      </trkpt>
      <trkpt lat="45.92007" lon="6.63572">
        <ele>671</ele>
        <time>2021-03-30T11:39:31.675Z</time>
      </trkpt>
      <trkpt lat="45.92022" lon="6.63579">
        <ele>669</ele>
        <time>2021-03-30T11:39:33.758Z</time>
      </trkpt>
      <trkpt lat="45.92034" lon="6.63581">
        <ele>668</ele>
        <time>2021-03-30T11:39:35.354Z</time>
      </trkpt>
      <trkpt lat="45.92052" lon="6.63578">
        <ele>668</ele>
        <time>2021-03-30T11:39:42.170Z</time>
      </trkpt>
      <trkpt lat="45.92093" lon="6.63547">
        <ele>673</ele>
        <time>2021-03-30T11:40:31.283Z</time>
      </trkpt>
      <trkpt lat="45.92105" lon="6.63543">
        <ele>673</ele>
        <time>2021-03-30T11:40:35.917Z</time>
      </trkpt>
      <trkpt lat="45.92119" lon="6.63542">
        <ele>672</ele>
        <time>2021-03-30T11:40:37.768Z</time>
      </trkpt>
      <trkpt lat="45.92146" lon="6.63545">
        <ele>669</ele>
        <time>2021-03-30T11:40:41.346Z</time>
      </trkpt>
      <trkpt lat="45.92175" lon="6.63533">
        <ele>671</ele>
        <time>2021-03-30T11:41:03.564Z</time>
      </trkpt>
      <trkpt lat="45.92188" lon="6.63531">
        <ele>671</ele>
        <time>2021-03-30T11:41:08.482Z</time>
      </trkpt>
      <trkpt lat="45.92204" lon="6.63536">
        <ele>670</ele>
        <time>2021-03-30T11:41:10.551Z</time>
      </trkpt>
      <trkpt lat="45.92233" lon="6.63559">
        <ele>664</ele>
        <time>2021-03-30T11:41:14.926Z</time>
      </trkpt>
      <trkpt lat="45.92248" lon="6.6356">
        <ele>664</ele>
        <time>2021-03-30T11:41:20.575Z</time>
      </trkpt>
      <trkpt lat="45.92255" lon="6.63558">
        <ele>663</ele>
        <time>2021-03-30T11:41:21.518Z</time>
      </trkpt>
      <trkpt lat="45.92263" lon="6.63551">
        <ele>662</ele>
        <time>2021-03-30T11:41:22.755Z</time>
      </trkpt>
      <trkpt lat="45.92275" lon="6.63529">
        <ele>663</ele>
        <time>2021-03-30T11:41:35.667Z</time>
      </trkpt>
      <trkpt lat="45.9229" lon="6.63492">
        <ele>663</ele>
        <time>2021-03-30T11:41:46.873Z</time>
      </trkpt>
      <trkpt lat="45.92299" lon="6.63449">
        <ele>663</ele>
        <time>2021-03-30T11:41:58.623Z</time>
      </trkpt>
      <trkpt lat="45.92303" lon="6.63441">
        <ele>662</ele>
        <time>2021-03-30T11:41:59.528Z</time>
      </trkpt>
      <trkpt lat="45.9234" lon="6.63413">
        <ele>650</ele>
        <time>2021-03-30T11:42:05.051Z</time>
      </trkpt>
      <trkpt lat="45.92348" lon="6.63403">
        <ele>650</ele>
        <time>2021-03-30T11:42:09.039Z</time>
      </trkpt>
      <trkpt lat="45.92365" lon="6.63364">
        <ele>652</ele>
        <time>2021-03-30T11:42:31.971Z</time>
      </trkpt>
      <trkpt lat="45.92373" lon="6.63354">
        <ele>652</ele>
        <time>2021-03-30T11:42:35.959Z</time>
      </trkpt>
      <trkpt lat="45.92382" lon="6.63349">
        <ele>651</ele>
        <time>2021-03-30T11:42:37.234Z</time>
      </trkpt>
      <trkpt lat="45.92394" lon="6.63347">
        <ele>649</ele>
        <time>2021-03-30T11:42:38.829Z</time>
      </trkpt>
      <trkpt lat="45.92422" lon="6.63348">
        <ele>644</ele>
        <time>2021-03-30T11:42:42.529Z</time>
      </trkpt>
      <trkpt lat="45.92452" lon="6.63342">
        <ele>642</ele>
        <time>2021-03-30T11:42:46.212Z</time>
      </trkpt>
      <trkpt lat="45.92481" lon="6.63329">
        <ele>640</ele>
        <time>2021-03-30T11:42:49.911Z</time>
      </trkpt>
      <trkpt lat="45.92513" lon="6.633">
        <ele>638</ele>
        <time>2021-03-30T11:42:55.023Z</time>
      </trkpt>
      <trkpt lat="45.92532" lon="6.63276">
        <ele>636</ele>
        <time>2021-03-30T11:42:58.364Z</time>
      </trkpt>
      <trkpt lat="45.92552" lon="6.6326">
        <ele>633</ele>
        <time>2021-03-30T11:43:01.387Z</time>
      </trkpt>
      <trkpt lat="45.92573" lon="6.6326">
        <ele>628</ele>
        <time>2021-03-30T11:43:04.161Z</time>
      </trkpt>
      <trkpt lat="45.927" lon="6.63309">
        <ele>616</ele>
        <time>2021-03-30T11:43:21.531Z</time>
      </trkpt>
      <trkpt lat="45.92742" lon="6.63318">
        <ele>615</ele>
        <time>2021-03-30T11:43:29.164Z</time>
      </trkpt>
      <trkpt lat="45.92749" lon="6.63317">
        <ele>615</ele>
        <time>2021-03-30T11:43:31.810Z</time>
      </trkpt>
      <trkpt lat="45.92769" lon="6.63308">
        <ele>612</ele>
        <time>2021-03-30T11:43:34.578Z</time>
      </trkpt>
      <trkpt lat="45.92786" lon="6.63292">
        <ele>610</ele>
        <time>2021-03-30T11:43:37.262Z</time>
      </trkpt>
      <trkpt lat="45.92803" lon="6.63264">
        <ele>608</ele>
        <time>2021-03-30T11:43:40.677Z</time>
      </trkpt>
      <trkpt lat="45.92813" lon="6.63227">
        <ele>609</ele>
        <time>2021-03-30T11:43:56.219Z</time>
      </trkpt>
      <trkpt lat="45.92818" lon="6.63185">
        <ele>610</ele>
        <time>2021-03-30T11:44:12.355Z</time>
      </trkpt>
      <trkpt lat="45.92829" lon="6.63164">
        <ele>609</ele>
        <time>2021-03-30T11:44:14.789Z</time>
      </trkpt>
      <trkpt lat="45.92834" lon="6.63161">
        <ele>608</ele>
        <time>2021-03-30T11:44:15.504Z</time>
      </trkpt>
      <trkpt lat="45.92848" lon="6.63162">
        <ele>606</ele>
        <time>2021-03-30T11:44:17.356Z</time>
      </trkpt>
      <trkpt lat="45.92877" lon="6.63196">
        <ele>599</ele>
        <time>2021-03-30T11:44:22.299Z</time>
      </trkpt>
      <trkpt lat="45.92884" lon="6.632">
        <ele>598</ele>
        <time>2021-03-30T11:44:23.294Z</time>
      </trkpt>
      <trkpt lat="45.92897" lon="6.63201">
        <ele>596</ele>
        <time>2021-03-30T11:44:25.013Z</time>
      </trkpt>
      <trkpt lat="45.92907" lon="6.63196">
        <ele>595</ele>
        <time>2021-03-30T11:44:26.412Z</time>
      </trkpt>
      <trkpt lat="45.92935" lon="6.63166">
        <ele>596</ele>
        <time>2021-03-30T11:44:44.218Z</time>
      </trkpt>
      <trkpt lat="45.9295" lon="6.63158">
        <ele>596</ele>
        <time>2021-03-30T11:44:50.237Z</time>
      </trkpt>
      <trkpt lat="45.93115" lon="6.63125">
        <ele>582</ele>
        <time>2021-03-30T11:45:12.242Z</time>
      </trkpt>
      <trkpt lat="45.93156" lon="6.63087">
        <ele>585</ele>
        <time>2021-03-30T11:45:46.942Z</time>
      </trkpt>
      <trkpt lat="45.93188" lon="6.63074">
        <ele>585</ele>
        <time>2021-03-30T11:45:59.451Z</time>
      </trkpt>
      <trkpt lat="45.9333" lon="6.63077">
        <ele>573</ele>
        <time>2021-03-30T11:46:18.210Z</time>
      </trkpt>
      <trkpt lat="45.9336" lon="6.63064">
        <ele>572</ele>
        <time>2021-03-30T11:46:23.357Z</time>
      </trkpt>
      <trkpt lat="45.93391" lon="6.63045">
        <ele>571</ele>
        <time>2021-03-30T11:46:29.024Z</time>
      </trkpt>
      <trkpt lat="45.93404" lon="6.63034">
        <ele>570</ele>
        <time>2021-03-30T11:46:30.854Z</time>
      </trkpt>
      <trkpt lat="45.93422" lon="6.63012">
        <ele>569</ele>
        <time>2021-03-30T11:46:34.360Z</time>
      </trkpt>
      <trkpt lat="45.93431" lon="6.63006">
        <ele>568</ele>
        <time>2021-03-30T11:46:35.670Z</time>
      </trkpt>
      <trkpt lat="45.93458" lon="6.62996">
        <ele>567</ele>
        <time>2021-03-30T11:46:40.071Z</time>
      </trkpt>
      <trkpt lat="45.93487" lon="6.63171">
        <ele>560</ele>
        <time>2021-03-30T11:46:56.550Z</time>
      </trkpt>
      <trkpt lat="45.93489" lon="6.63174">
        <ele>560</ele>
        <time>2021-03-30T11:46:57.637Z</time>
      </trkpt>
      <trkpt lat="45.93496" lon="6.63176">
        <ele>560</ele>
        <time>2021-03-30T11:47:00.322Z</time>
      </trkpt>
      <trkpt lat="45.936" lon="6.63139">
        <ele>558</ele>
        <time>2021-03-30T11:47:20.700Z</time>
      </trkpt>
      <trkpt lat="45.93601" lon="6.63141">
        <ele>558</ele>
        <time>2021-03-30T11:47:21.345Z</time>
      </trkpt>
      <trkpt lat="45.93609" lon="6.6314">
        <ele>558</ele>
        <time>2021-03-30T11:47:24.366Z</time>
      </trkpt>
      <trkpt lat="45.93612" lon="6.63134">
        <ele>558</ele>
        <time>2021-03-30T11:47:26.299Z</time>
      </trkpt>
      <trkpt lat="45.93619" lon="6.63129">
        <ele>558</ele>
        <time>2021-03-30T11:47:29.239Z</time>
      </trkpt>
      <trkpt lat="45.9364" lon="6.63122">
        <ele>557</ele>
        <time>2021-03-30T11:47:32.321Z</time>
      </trkpt>
      <trkpt lat="45.93645" lon="6.63116">
        <ele>557</ele>
        <time>2021-03-30T11:47:34.771Z</time>
      </trkpt>
      <trkpt lat="45.93655" lon="6.63112">
        <ele>557</ele>
        <time>2021-03-30T11:47:38.676Z</time>
      </trkpt>
      <trkpt lat="45.94025" lon="6.62983">
        <ele>551</ele>
        <time>2021-03-30T11:48:53.691Z</time>
      </trkpt>
      <trkpt lat="45.94049" lon="6.6298">
        <ele>551</ele>
        <time>2021-03-30T11:49:02.754Z</time>
      </trkpt>
      <trkpt lat="45.94185" lon="6.62984">
        <ele>546</ele>
        <time>2021-03-30T11:49:24.040Z</time>
      </trkpt>
      <trkpt lat="45.94192" lon="6.62986">
        <ele>546</ele>
        <time>2021-03-30T11:49:26.725Z</time>
      </trkpt>
      <trkpt lat="45.94201" lon="6.62995">
        <ele>546</ele>
        <time>2021-03-30T11:49:30.848Z</time>
      </trkpt>
      <trkpt lat="45.9421" lon="6.62994">
        <ele>545</ele>
        <time>2021-03-30T11:49:32.041Z</time>
      </trkpt>
      <trkpt lat="45.94216" lon="6.62986">
        <ele>545</ele>
        <time>2021-03-30T11:49:35.118Z</time>
      </trkpt>
      <trkpt lat="45.94263" lon="6.62983">
        <ele>543</ele>
        <time>2021-03-30T11:49:42.087Z</time>
      </trkpt>
      <trkpt lat="45.94744" lon="6.62987">
        <ele>535</ele>
        <time>2021-03-30T11:51:15.854Z</time>
      </trkpt>
      <trkpt lat="45.94905" lon="6.6299">
        <ele>535</ele>
        <time>2021-03-30T11:52:16.423Z</time>
      </trkpt>
      <trkpt lat="45.94934" lon="6.62993">
        <ele>535</ele>
        <time>2021-03-30T11:52:27.360Z</time>
      </trkpt>
      <trkpt lat="45.94964" lon="6.6299">
        <ele>535</ele>
        <time>2021-03-30T11:52:38.672Z</time>
      </trkpt>
      <trkpt lat="45.94969" lon="6.62993">
        <ele>535</ele>
        <time>2021-03-30T11:52:40.710Z</time>
      </trkpt>
      <trkpt lat="45.94978" lon="6.62989">
        <ele>535</ele>
        <time>2021-03-30T11:52:44.253Z</time>
      </trkpt>
      <trkpt lat="45.9499" lon="6.62989">
        <ele>535</ele>
        <time>2021-03-30T11:52:48.767Z</time>
      </trkpt>
      <trkpt lat="45.95081" lon="6.62998">
        <ele>534</ele>
        <time>2021-03-30T11:53:07.871Z</time>
      </trkpt>
      <trkpt lat="45.95119" lon="6.62998">
        <ele>533</ele>
        <time>2021-03-30T11:53:14.495Z</time>
      </trkpt>
      <trkpt lat="45.95191" lon="6.6299">
        <ele>532</ele>
        <time>2021-03-30T11:53:29.068Z</time>
      </trkpt>
      <trkpt lat="45.95208" lon="6.62996">
        <ele>531</ele>
        <time>2021-03-30T11:53:31.351Z</time>
      </trkpt>
      <trkpt lat="45.95213" lon="6.62994">
        <ele>531</ele>
        <time>2021-03-30T11:53:33.304Z</time>
      </trkpt>
      <trkpt lat="45.9531" lon="6.62997">
        <ele>531</ele>
        <time>2021-03-30T11:54:09.800Z</time>
      </trkpt>
      <trkpt lat="45.95579" lon="6.62998">
        <ele>528</ele>
        <time>2021-03-30T11:55:05.999Z</time>
      </trkpt>
      <trkpt lat="45.95734" lon="6.63005">
        <ele>531</ele>
        <time>2021-03-30T11:56:16.897Z</time>
      </trkpt>
      <trkpt lat="45.95751" lon="6.63009">
        <ele>531</ele>
        <time>2021-03-30T11:56:23.377Z</time>
      </trkpt>
      <trkpt lat="45.95768" lon="6.63009">
        <ele>531</ele>
        <time>2021-03-30T11:56:29.772Z</time>
      </trkpt>
      <trkpt lat="45.95791" lon="6.63002">
        <ele>531</ele>
        <time>2021-03-30T11:56:38.615Z</time>
      </trkpt>
      <trkpt lat="45.95798" lon="6.63002">
        <ele>531</ele>
        <time>2021-03-30T11:56:41.248Z</time>
      </trkpt>
      <trkpt lat="45.95809" lon="6.63006">
        <ele>531</ele>
        <time>2021-03-30T11:56:45.516Z</time>
      </trkpt>
      <trkpt lat="45.95817" lon="6.63004">
        <ele>531</ele>
        <time>2021-03-30T11:56:48.571Z</time>
      </trkpt>
      <trkpt lat="45.95843" lon="6.63011">
        <ele>531</ele>
        <time>2021-03-30T11:56:58.521Z</time>
      </trkpt>
      <trkpt lat="45.95949" lon="6.63006">
        <ele>531</ele>
        <time>2021-03-30T11:57:38.416Z</time>
      </trkpt>
      <trkpt lat="45.95982" lon="6.63018">
        <ele>531</ele>
        <time>2021-03-30T11:57:51.221Z</time>
      </trkpt>
      <trkpt lat="45.96033" lon="6.63054">
        <ele>530</ele>
        <time>2021-03-30T11:58:02.165Z</time>
      </trkpt>
      <trkpt lat="45.96051" lon="6.63061">
        <ele>531</ele>
        <time>2021-03-30T11:58:14.728Z</time>
      </trkpt>
      <trkpt lat="45.96077" lon="6.63061">
        <ele>531</ele>
        <time>2021-03-30T11:58:24.509Z</time>
      </trkpt>
      <trkpt lat="45.96101" lon="6.63057">
        <ele>530</ele>
        <time>2021-03-30T11:58:28.125Z</time>
      </trkpt>
      <trkpt lat="45.9612" lon="6.63061">
        <ele>530</ele>
        <time>2021-03-30T11:58:35.349Z</time>
      </trkpt>
      <trkpt lat="45.96127" lon="6.63072">
        <ele>530</ele>
        <time>2021-03-30T11:58:39.248Z</time>
      </trkpt>
      <trkpt lat="45.96137" lon="6.63073">
        <ele>530</ele>
        <time>2021-03-30T11:58:43.019Z</time>
      </trkpt>
      <trkpt lat="45.96145" lon="6.63066">
        <ele>530</ele>
        <time>2021-03-30T11:58:46.541Z</time>
      </trkpt>
      <trkpt lat="45.96148" lon="6.63055">
        <ele>530</ele>
        <time>2021-03-30T11:58:49.631Z</time>
      </trkpt>
      <trkpt lat="45.96212" lon="6.63002">
        <ele>530</ele>
        <time>2021-03-30T11:59:17.410Z</time>
      </trkpt>
      <trkpt lat="45.96234" lon="6.62992">
        <ele>530</ele>
        <time>2021-03-30T11:59:26.089Z</time>
      </trkpt>
      <trkpt lat="45.96265" lon="6.62986">
        <ele>531</ele>
        <time>2021-03-30T11:59:42.728Z</time>
      </trkpt>
      <trkpt lat="45.96354" lon="6.62987">
        <ele>529</ele>
        <time>2021-03-30T11:59:58.923Z</time>
      </trkpt>
      <trkpt lat="45.96381" lon="6.62991">
        <ele>528</ele>
        <time>2021-03-30T12:00:03.167Z</time>
      </trkpt>
      <trkpt lat="45.96395" lon="6.62996">
        <ele>528</ele>
        <time>2021-03-30T12:00:08.593Z</time>
      </trkpt>
      <trkpt lat="45.96422" lon="6.63009">
        <ele>527</ele>
        <time>2021-03-30T12:00:13.121Z</time>
      </trkpt>
      <trkpt lat="45.96447" lon="6.63035">
        <ele>527</ele>
        <time>2021-03-30T12:00:24.726Z</time>
      </trkpt>
      <trkpt lat="45.96452" lon="6.63042">
        <ele>527</ele>
        <time>2021-03-30T12:00:27.350Z</time>
      </trkpt>
      <trkpt lat="45.96455" lon="6.63054">
        <ele>527</ele>
        <time>2021-03-30T12:00:30.685Z</time>
      </trkpt>
      <trkpt lat="45.96467" lon="6.63065">
        <ele>527</ele>
        <time>2021-03-30T12:00:36.037Z</time>
      </trkpt>
      <trkpt lat="45.96479" lon="6.63063">
        <ele>527</ele>
        <time>2021-03-30T12:00:40.581Z</time>
      </trkpt>
      <trkpt lat="45.96488" lon="6.63047">
        <ele>527</ele>
        <time>2021-03-30T12:00:45.963Z</time>
      </trkpt>
      <trkpt lat="45.96494" lon="6.63042">
        <ele>527</ele>
        <time>2021-03-30T12:00:48.571Z</time>
      </trkpt>
      <trkpt lat="45.96525" lon="6.63026">
        <ele>527</ele>
        <time>2021-03-30T12:01:00.960Z</time>
      </trkpt>
      <trkpt lat="45.96595" lon="6.63011">
        <ele>526</ele>
        <time>2021-03-30T12:01:15.191Z</time>
      </trkpt>
      <trkpt lat="45.96634" lon="6.63008">
        <ele>526</ele>
        <time>2021-03-30T12:01:29.883Z</time>
      </trkpt>
      <trkpt lat="45.97784" lon="6.63022">
        <ele>523</ele>
        <time>2021-03-30T12:08:25.867Z</time>
      </trkpt>
      <trkpt lat="45.97865" lon="6.63027">
        <ele>524</ele>
        <time>2021-03-30T12:09:00.249Z</time>
      </trkpt>
      <trkpt lat="45.98025" lon="6.63053">
        <ele>522</ele>
        <time>2021-03-30T12:09:33.339Z</time>
      </trkpt>
      <trkpt lat="45.98641" lon="6.63193">
        <ele>525</ele>
        <time>2021-03-30T12:13:38.744Z</time>
      </trkpt>
      <trkpt lat="45.98685" lon="6.63197">
        <ele>525</ele>
        <time>2021-03-30T12:13:55.329Z</time>
      </trkpt>
      <trkpt lat="45.98725" lon="6.63204">
        <ele>525</ele>
        <time>2021-03-30T12:14:10.486Z</time>
      </trkpt>
      <trkpt lat="45.98796" lon="6.63196">
        <ele>525</ele>
        <time>2021-03-30T12:14:37.276Z</time>
      </trkpt>
      <trkpt lat="45.98846" lon="6.63186">
        <ele>524</ele>
        <time>2021-03-30T12:14:46.749Z</time>
      </trkpt>
      <trkpt lat="45.989" lon="6.63169">
        <ele>523</ele>
        <time>2021-03-30T12:14:57.336Z</time>
      </trkpt>
      <trkpt lat="45.99287" lon="6.63097">
        <ele>520</ele>
        <time>2021-03-30T12:16:22.730Z</time>
      </trkpt>
      <trkpt lat="46.00444" lon="6.62934">
        <ele>512</ele>
        <time>2021-03-30T12:22:58.327Z</time>
      </trkpt>
      <trkpt lat="46.00533" lon="6.62918">
        <ele>511</ele>
        <time>2021-03-30T12:23:17.065Z</time>
      </trkpt>
      <trkpt lat="46.00588" lon="6.62902">
        <ele>510</ele>
        <time>2021-03-30T12:23:27.847Z</time>
      </trkpt>
      <trkpt lat="46.00645" lon="6.62878">
        <ele>510</ele>
        <time>2021-03-30T12:23:50.187Z</time>
      </trkpt>
      <trkpt lat="46.00829" lon="6.62787">
        <ele>512</ele>
        <time>2021-03-30T12:25:10.979Z</time>
      </trkpt>
      <trkpt lat="46.00888" lon="6.62751">
        <ele>512</ele>
        <time>2021-03-30T12:25:35.084Z</time>
      </trkpt>
      <trkpt lat="46.00975" lon="6.62684">
        <ele>514</ele>
        <time>2021-03-30T12:26:20.661Z</time>
      </trkpt>
      <trkpt lat="46.01011" lon="6.62662">
        <ele>514</ele>
        <time>2021-03-30T12:26:35.372Z</time>
      </trkpt>
      <trkpt lat="46.01023" lon="6.62657">
        <ele>514</ele>
        <time>2021-03-30T12:26:40.071Z</time>
      </trkpt>
      <trkpt lat="46.01046" lon="6.62653">
        <ele>513</ele>
        <time>2021-03-30T12:26:43.483Z</time>
      </trkpt>
      <trkpt lat="46.01175" lon="6.62648">
        <ele>514</ele>
        <time>2021-03-30T12:27:35.735Z</time>
      </trkpt>
      <trkpt lat="46.01213" lon="6.6264">
        <ele>515</ele>
        <time>2021-03-30T12:27:54.706Z</time>
      </trkpt>
      <trkpt lat="46.01292" lon="6.62607">
        <ele>518</ele>
        <time>2021-03-30T12:28:41.171Z</time>
      </trkpt>
      <trkpt lat="46.01375" lon="6.62556">
        <ele>517</ele>
        <time>2021-03-30T12:29:00.041Z</time>
      </trkpt>
      <trkpt lat="46.01377" lon="6.6256">
        <ele>518</ele>
        <time>2021-03-30T12:29:05.008Z</time>
      </trkpt>
      <trkpt lat="46.01385" lon="6.62565">
        <ele>520</ele>
        <time>2021-03-30T12:29:17.662Z</time>
      </trkpt>
      <trkpt lat="46.01389" lon="6.62565">
        <ele>520</ele>
        <time>2021-03-30T12:29:19.167Z</time>
      </trkpt>
      <trkpt lat="46.01398" lon="6.62553">
        <ele>519</ele>
        <time>2021-03-30T12:29:20.787Z</time>
      </trkpt>
      <trkpt lat="46.01398" lon="6.62547">
        <ele>518</ele>
        <time>2021-03-30T12:29:21.337Z</time>
      </trkpt>
      <trkpt lat="46.0141" lon="6.62535">
        <ele>516</ele>
        <time>2021-03-30T12:29:23.267Z</time>
      </trkpt>
      <trkpt lat="46.01537" lon="6.62448">
        <ele>514</ele>
        <time>2021-03-30T12:29:51.515Z</time>
      </trkpt>
      <trkpt lat="46.01563" lon="6.62433">
        <ele>512</ele>
        <time>2021-03-30T12:29:55.214Z</time>
      </trkpt>
      <trkpt lat="46.01593" lon="6.62404">
        <ele>509</ele>
        <time>2021-03-30T12:29:59.987Z</time>
      </trkpt>
      <trkpt lat="46.01725" lon="6.62303">
        <ele>509</ele>
        <time>2021-03-30T12:30:56.216Z</time>
      </trkpt>
      <trkpt lat="46.01801" lon="6.62264">
        <ele>507</ele>
        <time>2021-03-30T12:31:10.519Z</time>
      </trkpt>
      <trkpt lat="46.01842" lon="6.62253">
        <ele>508</ele>
        <time>2021-03-30T12:31:30.623Z</time>
      </trkpt>
      <trkpt lat="46.01872" lon="6.62238">
        <ele>510</ele>
        <time>2021-03-30T12:31:53.453Z</time>
      </trkpt>
      <trkpt lat="46.01918" lon="6.62201">
        <ele>511</ele>
        <time>2021-03-30T12:32:17.443Z</time>
      </trkpt>
      <trkpt lat="46.02025" lon="6.62131">
        <ele>514</ele>
        <time>2021-03-30T12:33:15.144Z</time>
      </trkpt>
      <trkpt lat="46.02061" lon="6.62115">
        <ele>515</ele>
        <time>2021-03-30T12:33:33.868Z</time>
      </trkpt>
      <trkpt lat="46.02089" lon="6.62108">
        <ele>515</ele>
        <time>2021-03-30T12:33:44.559Z</time>
      </trkpt>
      <trkpt lat="46.02204" lon="6.62069">
        <ele>511</ele>
        <time>2021-03-30T12:34:03.588Z</time>
      </trkpt>
      <trkpt lat="46.02276" lon="6.62035">
        <ele>514</ele>
        <time>2021-03-30T12:34:48.309Z</time>
      </trkpt>
      <trkpt lat="46.02283" lon="6.62039">
        <ele>515</ele>
        <time>2021-03-30T12:34:59.135Z</time>
      </trkpt>
      <trkpt lat="46.02288" lon="6.62034">
        <ele>515</ele>
        <time>2021-03-30T12:35:01.425Z</time>
      </trkpt>
      <trkpt lat="46.02288" lon="6.6203">
        <ele>515</ele>
        <time>2021-03-30T12:35:02.470Z</time>
      </trkpt>
      <trkpt lat="46.02325" lon="6.62024">
        <ele>516</ele>
        <time>2021-03-30T12:35:21.046Z</time>
      </trkpt>
      <trkpt lat="46.02407" lon="6.62003">
        <ele>515</ele>
        <time>2021-03-30T12:35:38.253Z</time>
      </trkpt>
      <trkpt lat="46.02447" lon="6.61989">
        <ele>515</ele>
        <time>2021-03-30T12:35:53.738Z</time>
      </trkpt>
      <trkpt lat="46.02485" lon="6.6197">
        <ele>515</ele>
        <time>2021-03-30T12:36:08.869Z</time>
      </trkpt>
      <trkpt lat="46.02497" lon="6.61961">
        <ele>514</ele>
        <time>2021-03-30T12:36:10.656Z</time>
      </trkpt>
      <trkpt lat="46.02632" lon="6.61913">
        <ele>513</ele>
        <time>2021-03-30T12:36:57.772Z</time>
      </trkpt>
      <trkpt lat="46.02659" lon="6.619">
        <ele>513</ele>
        <time>2021-03-30T12:37:08.481Z</time>
      </trkpt>
      <trkpt lat="46.02685" lon="6.6188">
        <ele>514</ele>
        <time>2021-03-30T12:37:24.568Z</time>
      </trkpt>
      <trkpt lat="46.02788" lon="6.61778">
        <ele>507</ele>
        <time>2021-03-30T12:37:41.025Z</time>
      </trkpt>
      <trkpt lat="46.02804" lon="6.61765">
        <ele>506</ele>
        <time>2021-03-30T12:37:43.475Z</time>
      </trkpt>
      <trkpt lat="46.02821" lon="6.61757">
        <ele>505</ele>
        <time>2021-03-30T12:37:45.831Z</time>
      </trkpt>
      <trkpt lat="46.02969" lon="6.61738">
        <ele>503</ele>
        <time>2021-03-30T12:38:15.963Z</time>
      </trkpt>
      <trkpt lat="46.03003" lon="6.61739">
        <ele>502</ele>
        <time>2021-03-30T12:38:21.698Z</time>
      </trkpt>
      <trkpt lat="46.0304" lon="6.61748">
        <ele>503</ele>
        <time>2021-03-30T12:38:40.372Z</time>
      </trkpt>
      <trkpt lat="46.03182" lon="6.61793">
        <ele>508</ele>
        <time>2021-03-30T12:40:00.215Z</time>
      </trkpt>
      <trkpt lat="46.03364" lon="6.61846">
        <ele>508</ele>
        <time>2021-03-30T12:41:10.063Z</time>
      </trkpt>
      <trkpt lat="46.03488" lon="6.61865">
        <ele>512</ele>
        <time>2021-03-30T12:42:16.489Z</time>
      </trkpt>
      <trkpt lat="46.03535" lon="6.61864">
        <ele>514</ele>
        <time>2021-03-30T12:42:45.463Z</time>
      </trkpt>
      <trkpt lat="46.03557" lon="6.61859">
        <ele>514</ele>
        <time>2021-03-30T12:42:53.841Z</time>
      </trkpt>
      <trkpt lat="46.03591" lon="6.61844">
        <ele>513</ele>
        <time>2021-03-30T12:42:59.920Z</time>
      </trkpt>
      <trkpt lat="46.03611" lon="6.61832">
        <ele>515</ele>
        <time>2021-03-30T12:43:19.636Z</time>
      </trkpt>
      <trkpt lat="46.03646" lon="6.61802">
        <ele>517</ele>
        <time>2021-03-30T12:43:46.269Z</time>
      </trkpt>
      <trkpt lat="46.03679" lon="6.6176">
        <ele>511</ele>
        <time>2021-03-30T12:43:52.086Z</time>
      </trkpt>
      <trkpt lat="46.03762" lon="6.61632">
        <ele>503</ele>
        <time>2021-03-30T12:44:06.897Z</time>
      </trkpt>
      <trkpt lat="46.03809" lon="6.61553">
        <ele>501</ele>
        <time>2021-03-30T12:44:19.302Z</time>
      </trkpt>
      <trkpt lat="46.03834" lon="6.61489">
        <ele>498</ele>
        <time>2021-03-30T12:44:25.859Z</time>
      </trkpt>
      <trkpt lat="46.03854" lon="6.61413">
        <ele>496</ele>
        <time>2021-03-30T12:44:34.803Z</time>
      </trkpt>
      <trkpt lat="46.03865" lon="6.61382">
        <ele>497</ele>
        <time>2021-03-30T12:44:49.443Z</time>
      </trkpt>
      <trkpt lat="46.03875" lon="6.61372">
        <ele>498</ele>
        <time>2021-03-30T12:44:59.586Z</time>
      </trkpt>
      <trkpt lat="46.03877" lon="6.61367">
        <ele>498</ele>
        <time>2021-03-30T12:45:01.093Z</time>
      </trkpt>
      <trkpt lat="46.03877" lon="6.61357">
        <ele>498</ele>
        <time>2021-03-30T12:45:03.705Z</time>
      </trkpt>
      <trkpt lat="46.03871" lon="6.61344">
        <ele>499</ele>
        <time>2021-03-30T12:45:13.564Z</time>
      </trkpt>
      <trkpt lat="46.03868" lon="6.61318">
        <ele>499</ele>
        <time>2021-03-30T12:45:20.446Z</time>
      </trkpt>
      <trkpt lat="46.0387" lon="6.61278">
        <ele>499</ele>
        <time>2021-03-30T12:45:30.918Z</time>
      </trkpt>
      <trkpt lat="46.03915" lon="6.60952">
        <ele>497</ele>
        <time>2021-03-30T12:46:20.741Z</time>
      </trkpt>
      <trkpt lat="46.03929" lon="6.60885">
        <ele>498</ele>
        <time>2021-03-30T12:46:43.258Z</time>
      </trkpt>
      <trkpt lat="46.03942" lon="6.60852">
        <ele>499</ele>
        <time>2021-03-30T12:46:58.449Z</time>
      </trkpt>
      <trkpt lat="46.03974" lon="6.6081">
        <ele>500</ele>
        <time>2021-03-30T12:47:19.103Z</time>
      </trkpt>
      <trkpt lat="46.03996" lon="6.60793">
        <ele>500</ele>
        <time>2021-03-30T12:47:28.495Z</time>
      </trkpt>
      <trkpt lat="46.04021" lon="6.60781">
        <ele>502</ele>
        <time>2021-03-30T12:47:49.369Z</time>
      </trkpt>
      <trkpt lat="46.04049" lon="6.60778">
        <ele>505</ele>
        <time>2021-03-30T12:48:18.799Z</time>
      </trkpt>
      <trkpt lat="46.04187" lon="6.60789">
        <ele>521</ele>
        <time>2021-03-30T12:50:58.541Z</time>
      </trkpt>
      <trkpt lat="46.04213" lon="6.60787">
        <ele>521</ele>
        <time>2021-03-30T12:51:08.335Z</time>
      </trkpt>
      <trkpt lat="46.04261" lon="6.60777">
        <ele>520</ele>
        <time>2021-03-30T12:51:17.351Z</time>
      </trkpt>
      <trkpt lat="46.04286" lon="6.60767">
        <ele>519</ele>
        <time>2021-03-30T12:51:21.341Z</time>
      </trkpt>
      <trkpt lat="46.04328" lon="6.60742">
        <ele>515</ele>
        <time>2021-03-30T12:51:27.344Z</time>
      </trkpt>
      <trkpt lat="46.04352" lon="6.60723">
        <ele>516</ele>
        <time>2021-03-30T12:51:42.822Z</time>
      </trkpt>
      <trkpt lat="46.04383" lon="6.60692">
        <ele>510</ele>
        <time>2021-03-30T12:51:47.807Z</time>
      </trkpt>
      <trkpt lat="46.04417" lon="6.60655">
        <ele>499</ele>
        <time>2021-03-30T12:51:53.435Z</time>
      </trkpt>
      <trkpt lat="46.04465" lon="6.60594">
        <ele>499</ele>
        <time>2021-03-30T12:52:17.512Z</time>
      </trkpt>
      <trkpt lat="46.04495" lon="6.60547">
        <ele>498</ele>
        <time>2021-03-30T12:52:25.568Z</time>
      </trkpt>
      <trkpt lat="46.04876" lon="6.59889">
        <ele>499</ele>
        <time>2021-03-30T12:56:12.796Z</time>
      </trkpt>
      <trkpt lat="46.04928" lon="6.59789">
        <ele>498</ele>
        <time>2021-03-30T12:56:30.825Z</time>
      </trkpt>
      <trkpt lat="46.04969" lon="6.59684">
        <ele>500</ele>
        <time>2021-03-30T12:57:11.103Z</time>
      </trkpt>
      <trkpt lat="46.04988" lon="6.59627">
        <ele>500</ele>
        <time>2021-03-30T12:57:27.612Z</time>
      </trkpt>
      <trkpt lat="46.0501" lon="6.59544">
        <ele>501</ele>
        <time>2021-03-30T12:57:54.854Z</time>
      </trkpt>
      <trkpt lat="46.05034" lon="6.59424">
        <ele>507</ele>
        <time>2021-03-30T12:59:00.080Z</time>
      </trkpt>
      <trkpt lat="46.05072" lon="6.59192">
        <ele>503</ele>
        <time>2021-03-30T12:59:29.609Z</time>
      </trkpt>
      <trkpt lat="46.05083" lon="6.59108">
        <ele>503</ele>
        <time>2021-03-30T12:59:51.926Z</time>
      </trkpt>
      <trkpt lat="46.05107" lon="6.58834">
        <ele>512</ele>
        <time>2021-03-30T13:01:55.532Z</time>
      </trkpt>
      <trkpt lat="46.05112" lon="6.5874">
        <ele>508</ele>
        <time>2021-03-30T13:02:03.796Z</time>
      </trkpt>
      <trkpt lat="46.0511" lon="6.58606">
        <ele>502</ele>
        <time>2021-03-30T13:02:15.239Z</time>
      </trkpt>
      <trkpt lat="46.05115" lon="6.58558">
        <ele>503</ele>
        <time>2021-03-30T13:02:32.644Z</time>
      </trkpt>
      <trkpt lat="46.05124" lon="6.58514">
        <ele>505</ele>
        <time>2021-03-30T13:02:55.504Z</time>
      </trkpt>
      <trkpt lat="46.05152" lon="6.58433">
        <ele>500</ele>
        <time>2021-03-30T13:03:03.800Z</time>
      </trkpt>
      <trkpt lat="46.05178" lon="6.58383">
        <ele>497</ele>
        <time>2021-03-30T13:03:09.527Z</time>
      </trkpt>
      <trkpt lat="46.05208" lon="6.58342">
        <ele>492</ele>
        <time>2021-03-30T13:03:14.989Z</time>
      </trkpt>
      <trkpt lat="46.05236" lon="6.58313">
        <ele>491</ele>
        <time>2021-03-30T13:03:20.829Z</time>
      </trkpt>
      <trkpt lat="46.05386" lon="6.58183">
        <ele>491</ele>
        <time>2021-03-30T13:04:26.674Z</time>
      </trkpt>
      <trkpt lat="46.05415" lon="6.58161">
        <ele>490</ele>
        <time>2021-03-30T13:04:32.137Z</time>
      </trkpt>
      <trkpt lat="46.05444" lon="6.58146">
        <ele>489</ele>
        <time>2021-03-30T13:04:37.171Z</time>
      </trkpt>
      <trkpt lat="46.05477" lon="6.58136">
        <ele>487</ele>
        <time>2021-03-30T13:04:41.493Z</time>
      </trkpt>
      <trkpt lat="46.05654" lon="6.58111">
        <ele>493</ele>
        <time>2021-03-30T13:06:18.313Z</time>
      </trkpt>
      <trkpt lat="46.05684" lon="6.58098">
        <ele>490</ele>
        <time>2021-03-30T13:06:22.451Z</time>
      </trkpt>
      <trkpt lat="46.05701" lon="6.58081">
        <ele>487</ele>
        <time>2021-03-30T13:06:25.184Z</time>
      </trkpt>
      <trkpt lat="46.05714" lon="6.58051">
        <ele>486</ele>
        <time>2021-03-30T13:06:28.881Z</time>
      </trkpt>
      <trkpt lat="46.05731" lon="6.58044">
        <ele>486.2</ele>
      </trkpt>
      <trkpt lat="46.05735" lon="6.58032">
        <ele>486.3</ele>
      </trkpt>
      <trkpt lat="46.05748" lon="6.5803">
        <ele>486.3</ele>
      </trkpt>
      <trkpt lat="46.05768" lon="6.58045">
        <ele>486.7</ele>
      </trkpt>
      <trkpt lat="46.05775" lon="6.58051">
        <ele>486.9</ele>
      </trkpt>
      <trkpt lat="46.05774" lon="6.5806">
        <ele>486.7</ele>
      </trkpt>
      <trkpt lat="46.05775" lon="6.58069">
        <ele>486.7</ele>
      </trkpt>
      <trkpt lat="46.05779" lon="6.58075">
        <ele>486.8</ele>
      </trkpt>
      <trkpt lat="46.05785" lon="6.58077">
        <ele>487.2</ele>
      </trkpt>
      <trkpt lat="46.05791" lon="6.58075">
        <ele>487.5</ele>
      </trkpt>
      <trkpt lat="46.05795" lon="6.5807">
        <ele>487.8</ele>
      </trkpt>
      <trkpt lat="46.05797" lon="6.58064">
        <ele>487.9</ele>
      </trkpt>
      <trkpt lat="46.05866" lon="6.58053">
        <ele>489.5</ele>
      </trkpt>
      <trkpt lat="46.05995" lon="6.58035">
        <ele>488.1</ele>
      </trkpt>
      <trkpt lat="46.06022" lon="6.58033">
        <ele>488.1</ele>
      </trkpt>
      <trkpt lat="46.06051" lon="6.58029">
        <ele>488.2</ele>
      </trkpt>
      <trkpt lat="46.06045" lon="6.57937">
        <ele>487.2</ele>
      </trkpt>
      <trkpt lat="46.06026" lon="6.57939">
        <ele>487.6</ele>
      </trkpt>
      <trkpt lat="46.06019" lon="6.57863">
        <ele>486.4</ele>
      </trkpt>
      <trkpt lat="46.05999" lon="6.57538">
        <ele>481.5</ele>
      </trkpt>
      <trkpt lat="46.06004" lon="6.57533">
        <ele>481.6</ele>
      </trkpt>
      <trkpt lat="46.06005" lon="6.5753">
        <ele>481.6</ele>
      </trkpt>
      <trkpt lat="46.06004" lon="6.57522">
        <ele>481.4</ele>
      </trkpt>
      <trkpt lat="46.06" lon="6.57518">
        <ele>481.2</ele>
      </trkpt>
      <trkpt lat="46.05995" lon="6.57519">
        <ele>481.2</ele>
      </trkpt>
      <trkpt lat="46.0599" lon="6.57514">
        <ele>481.2</ele>
      </trkpt>
      <trkpt lat="46.05933" lon="6.57419">
        <ele>482.6</ele>
      </trkpt>
      <trkpt lat="46.05893" lon="6.57347">
        <ele>483</ele>
      </trkpt>
      <trkpt lat="46.05889" lon="6.57337">
        <ele>483</ele>
      </trkpt>
      <trkpt lat="46.05882" lon="6.57295">
        <ele>482.5</ele>
      </trkpt>
      <trkpt lat="46.05871" lon="6.57265">
        <ele>482.3</ele>
      </trkpt>
      <trkpt lat="46.05875" lon="6.57252">
        <ele>482</ele>
        <time>2021-03-30T13:10:01.857Z</time>
      </trkpt>
      <trkpt lat="46.05878" lon="6.57229">
        <ele>482</ele>
        <time>2021-03-30T13:10:07.966Z</time>
      </trkpt>
      <trkpt lat="46.05877" lon="6.57215">
        <ele>482</ele>
        <time>2021-03-30T13:10:11.640Z</time>
      </trkpt>
      <trkpt lat="46.0587" lon="6.57203">
        <ele>482</ele>
        <time>2021-03-30T13:10:15.732Z</time>
      </trkpt>
      <trkpt lat="46.05859" lon="6.57192">
        <ele>482</ele>
        <time>2021-03-30T13:10:20.769Z</time>
      </trkpt>
      <trkpt lat="46.05854" lon="6.5719">
        <ele>482</ele>
        <time>2021-03-30T13:10:22.721Z</time>
      </trkpt>
      <trkpt lat="46.0584" lon="6.57191">
        <ele>482</ele>
        <time>2021-03-30T13:10:27.994Z</time>
      </trkpt>
      <trkpt lat="46.05827" lon="6.57204">
        <ele>483</ele>
        <time>2021-03-30T13:10:39.387Z</time>
      </trkpt>
      <trkpt lat="46.05775" lon="6.57206">
        <ele>484</ele>
        <time>2021-03-30T13:11:03.136Z</time>
      </trkpt>
      <trkpt lat="46.05678" lon="6.57124">
        <ele>484</ele>
        <time>2021-03-30T13:11:45.440Z</time>
      </trkpt>
      <trkpt lat="46.05649" lon="6.57076">
        <ele>484</ele>
        <time>2021-03-30T13:12:02.053Z</time>
      </trkpt>
      <trkpt lat="46.05641" lon="6.57051">
        <ele>483</ele>
        <time>2021-03-30T13:12:04.647Z</time>
      </trkpt>
      <trkpt lat="46.05635" lon="6.57">
        <ele>483</ele>
        <time>2021-03-30T13:12:18.150Z</time>
      </trkpt>
      <trkpt lat="46.05641" lon="6.56912">
        <ele>483</ele>
        <time>2021-03-30T13:12:41.232Z</time>
      </trkpt>
      <trkpt lat="46.05652" lon="6.56818">
        <ele>482</ele>
        <time>2021-03-30T13:12:54.371Z</time>
      </trkpt>
      <trkpt lat="46.05651" lon="6.56779">
        <ele>482</ele>
        <time>2021-03-30T13:13:04.558Z</time>
      </trkpt>
      <trkpt lat="46.05644" lon="6.56735">
        <ele>482</ele>
        <time>2021-03-30T13:13:16.342Z</time>
      </trkpt>
      <trkpt lat="46.05615" lon="6.56639">
        <ele>482</ele>
        <time>2021-03-30T13:13:43.674Z</time>
      </trkpt>
      <trkpt lat="46.05604" lon="6.56581">
        <ele>481</ele>
        <time>2021-03-30T13:13:51.139Z</time>
      </trkpt>
      <trkpt lat="46.05605" lon="6.56566">
        <ele>482</ele>
        <time>2021-03-30T13:14:00.951Z</time>
      </trkpt>
      <trkpt lat="46.05599" lon="6.56557">
        <ele>482</ele>
        <time>2021-03-30T13:14:04.209Z</time>
      </trkpt>
      <trkpt lat="46.05595" lon="6.56555">
        <ele>482</ele>
        <time>2021-03-30T13:14:05.801Z</time>
      </trkpt>
      <trkpt lat="46.05574" lon="6.5651">
        <ele>483</ele>
        <time>2021-03-30T13:14:24.511Z</time>
      </trkpt>
      <trkpt lat="46.05567" lon="6.56486">
        <ele>484</ele>
        <time>2021-03-30T13:14:36.826Z</time>
      </trkpt>
      <trkpt lat="46.0555" lon="6.56365">
        <ele>484</ele>
        <time>2021-03-30T13:15:09.054Z</time>
      </trkpt>
      <trkpt lat="46.05548" lon="6.56331">
        <ele>485</ele>
        <time>2021-03-30T13:15:23.581Z</time>
      </trkpt>
      <trkpt lat="46.0555" lon="6.56298">
        <ele>486</ele>
        <time>2021-03-30T13:15:37.956Z</time>
      </trkpt>
      <trkpt lat="46.05549" lon="6.56245">
        <ele>488</ele>
        <time>2021-03-30T13:16:02.868Z</time>
      </trkpt>
      <trkpt lat="46.05555" lon="6.56233">
        <ele>488</ele>
        <time>2021-03-30T13:16:06.729Z</time>
      </trkpt>
      <trkpt lat="46.05554" lon="6.56219">
        <ele>488</ele>
        <time>2021-03-30T13:16:10.403Z</time>
      </trkpt>
      <trkpt lat="46.0555" lon="6.56211">
        <ele>488</ele>
        <time>2021-03-30T13:16:12.977Z</time>
      </trkpt>
      <trkpt lat="46.05543" lon="6.56206">
        <ele>488</ele>
        <time>2021-03-30T13:16:15.916Z</time>
      </trkpt>
      <trkpt lat="46.05538" lon="6.56206">
        <ele>488</ele>
        <time>2021-03-30T13:16:17.797Z</time>
      </trkpt>
      <trkpt lat="46.0553" lon="6.56211">
        <ele>488</ele>
        <time>2021-03-30T13:16:21.077Z</time>
      </trkpt>
      <trkpt lat="46.05494" lon="6.56137">
        <ele>488</ele>
        <time>2021-03-30T13:16:44.669Z</time>
      </trkpt>
      <trkpt lat="46.05456" lon="6.5601">
        <ele>488</ele>
        <time>2021-03-30T13:17:20.772Z</time>
      </trkpt>
      <trkpt lat="46.0544" lon="6.5601">
        <ele>489</ele>
        <time>2021-03-30T13:17:32.235Z</time>
      </trkpt>
      <trkpt lat="46.05456" lon="6.5601">
        <ele>488</ele>
        <time>2021-03-30T13:17:34.235Z</time>
      </trkpt>
      <trkpt lat="46.05437" lon="6.55939">
        <ele>490</ele>
        <time>2021-03-30T13:18:04.651Z</time>
      </trkpt>
      <trkpt lat="46.05412" lon="6.55859">
        <ele>490</ele>
        <time>2021-03-30T13:18:27.555Z</time>
      </trkpt>
      <trkpt lat="46.05392" lon="6.55808">
        <ele>492</ele>
        <time>2021-03-30T13:18:54.155Z</time>
      </trkpt>
      <trkpt lat="46.05303" lon="6.55622">
        <ele>497</ele>
        <time>2021-03-30T13:20:17.471Z</time>
      </trkpt>
      <trkpt lat="46.05299" lon="6.55597">
        <ele>497</ele>
        <time>2021-03-30T13:20:24.169Z</time>
      </trkpt>
      <trkpt lat="46.05297" lon="6.55517">
        <ele>501</ele>
        <time>2021-03-30T13:21:06.865Z</time>
      </trkpt>
      <trkpt lat="46.0531" lon="6.55438">
        <ele>501</ele>
        <time>2021-03-30T13:21:28.061Z</time>
      </trkpt>
      <trkpt lat="46.05308" lon="6.55396">
        <ele>501</ele>
        <time>2021-03-30T13:21:39.051Z</time>
      </trkpt>
      <trkpt lat="46.053" lon="6.55334">
        <ele>503</ele>
        <time>2021-03-30T13:22:07.049Z</time>
      </trkpt>
      <trkpt lat="46.05301" lon="6.55296">
        <ele>503</ele>
        <time>2021-03-30T13:22:16.976Z</time>
      </trkpt>
      <trkpt lat="46.05305" lon="6.55263">
        <ele>503</ele>
        <time>2021-03-30T13:22:25.721Z</time>
      </trkpt>
      <trkpt lat="46.05303" lon="6.55225">
        <ele>504</ele>
        <time>2021-03-30T13:22:40.941Z</time>
      </trkpt>
      <trkpt lat="46.05295" lon="6.55173">
        <ele>505</ele>
        <time>2021-03-30T13:22:59.427Z</time>
      </trkpt>
      <trkpt lat="46.05269" lon="6.55122">
        <ele>504</ele>
        <time>2021-03-30T13:23:07.391Z</time>
      </trkpt>
      <trkpt lat="46.05255" lon="6.55048">
        <ele>503</ele>
        <time>2021-03-30T13:23:17.501Z</time>
      </trkpt>
      <trkpt lat="46.0525" lon="6.54971">
        <ele>502</ele>
        <time>2021-03-30T13:23:27.714Z</time>
      </trkpt>
      <trkpt lat="46.05225" lon="6.54899">
        <ele>506</ele>
        <time>2021-03-30T13:24:10.521Z</time>
      </trkpt>
      <trkpt lat="46.05222" lon="6.54857">
        <ele>508</ele>
        <time>2021-03-30T13:24:32.413Z</time>
      </trkpt>
      <trkpt lat="46.05224" lon="6.54805">
        <ele>509</ele>
        <time>2021-03-30T13:24:50.624Z</time>
      </trkpt>
      <trkpt lat="46.05203" lon="6.54666">
        <ele>514</ele>
        <time>2021-03-30T13:25:55.837Z</time>
      </trkpt>
      <trkpt lat="46.05206" lon="6.54633">
        <ele>515</ele>
        <time>2021-03-30T13:26:10.236Z</time>
      </trkpt>
      <trkpt lat="46.05212" lon="6.5461">
        <ele>514</ele>
        <time>2021-03-30T13:26:12.433Z</time>
      </trkpt>
      <trkpt lat="46.05263" lon="6.54539">
        <ele>514</ele>
        <time>2021-03-30T13:26:39.109Z</time>
      </trkpt>
      <trkpt lat="46.05274" lon="6.54509">
        <ele>516</ele>
        <time>2021-03-30T13:26:59.195Z</time>
      </trkpt>
      <trkpt lat="46.05274" lon="6.54475">
        <ele>518</ele>
        <time>2021-03-30T13:27:19.293Z</time>
      </trkpt>
      <trkpt lat="46.05261" lon="6.54432">
        <ele>523</ele>
        <time>2021-03-30T13:28:06.521Z</time>
      </trkpt>
      <trkpt lat="46.05257" lon="6.54394">
        <ele>525</ele>
        <time>2021-03-30T13:28:27.500Z</time>
      </trkpt>
      <trkpt lat="46.05277" lon="6.54293">
        <ele>522</ele>
        <time>2021-03-30T13:28:38.434Z</time>
      </trkpt>
      <trkpt lat="46.05274" lon="6.54247">
        <ele>525</ele>
        <time>2021-03-30T13:29:07.949Z</time>
      </trkpt>
      <trkpt lat="46.05256" lon="6.54214">
        <ele>528</ele>
        <time>2021-03-30T13:29:37.299Z</time>
      </trkpt>
      <trkpt lat="46.05219" lon="6.54185">
        <ele>539</ele>
        <time>2021-03-30T13:30:38.412Z</time>
      </trkpt>
      <trkpt lat="46.05207" lon="6.54156">
        <ele>543</ele>
        <time>2021-03-30T13:31:12.410Z</time>
      </trkpt>
      <trkpt lat="46.05212" lon="6.54118">
        <ele>544</ele>
        <time>2021-03-30T13:31:27.738Z</time>
      </trkpt>
      <trkpt lat="46.05232" lon="6.54089">
        <ele>540</ele>
        <time>2021-03-30T13:31:31.486Z</time>
      </trkpt>
      <trkpt lat="46.05272" lon="6.54074">
        <ele>533</ele>
        <time>2021-03-30T13:31:36.945Z</time>
      </trkpt>
      <trkpt lat="46.0529" lon="6.54057">
        <ele>531</ele>
        <time>2021-03-30T13:31:39.788Z</time>
      </trkpt>
      <trkpt lat="46.05297" lon="6.5403">
        <ele>533</ele>
        <time>2021-03-30T13:31:59.353Z</time>
      </trkpt>
      <trkpt lat="46.0531" lon="6.53928">
        <ele>540</ele>
        <time>2021-03-30T13:33:07.927Z</time>
      </trkpt>
      <trkpt lat="46.05329" lon="6.53889">
        <ele>540</ele>
        <time>2021-03-30T13:33:20.366Z</time>
      </trkpt>
      <trkpt lat="46.05353" lon="6.53856">
        <ele>539</ele>
        <time>2021-03-30T13:33:25.917Z</time>
      </trkpt>
      <trkpt lat="46.05366" lon="6.5382">
        <ele>539</ele>
        <time>2021-03-30T13:33:36.512Z</time>
      </trkpt>
      <trkpt lat="46.05368" lon="6.53795">
        <ele>541</ele>
        <time>2021-03-30T13:33:56.411Z</time>
      </trkpt>
      <trkpt lat="46.05365" lon="6.53738">
        <ele>548</ele>
        <time>2021-03-30T13:34:53.971Z</time>
      </trkpt>
      <trkpt lat="46.05371" lon="6.53709">
        <ele>551</ele>
        <time>2021-03-30T13:35:24.442Z</time>
      </trkpt>
      <trkpt lat="46.05414" lon="6.53671">
        <ele>549</ele>
        <time>2021-03-30T13:35:32.118Z</time>
      </trkpt>
      <trkpt lat="46.05429" lon="6.53649">
        <ele>550</ele>
        <time>2021-03-30T13:35:45.900Z</time>
      </trkpt>
      <trkpt lat="46.05444" lon="6.53613">
        <ele>553</ele>
        <time>2021-03-30T13:36:15.249Z</time>
      </trkpt>
      <trkpt lat="46.05471" lon="6.5352">
        <ele>556</ele>
        <time>2021-03-30T13:36:58.589Z</time>
      </trkpt>
      <trkpt lat="46.05475" lon="6.53473">
        <ele>558</ele>
        <time>2021-03-30T13:37:21.860Z</time>
      </trkpt>
      <trkpt lat="46.05468" lon="6.53381">
        <ele>563</ele>
        <time>2021-03-30T13:38:13.535Z</time>
      </trkpt>
      <trkpt lat="46.0547" lon="6.53325">
        <ele>564</ele>
        <time>2021-03-30T13:38:32.679Z</time>
      </trkpt>
      <trkpt lat="46.055" lon="6.53178">
        <ele>574</ele>
        <time>2021-03-30T13:40:10.992Z</time>
      </trkpt>
      <trkpt lat="46.05539" lon="6.53094">
        <ele>576</ele>
        <time>2021-03-30T13:40:46.702Z</time>
      </trkpt>
      <trkpt lat="46.05558" lon="6.53027">
        <ele>577</ele>
        <time>2021-03-30T13:41:09.810Z</time>
      </trkpt>
      <trkpt lat="46.05563" lon="6.52939">
        <ele>579</ele>
        <time>2021-03-30T13:41:42.690Z</time>
      </trkpt>
      <trkpt lat="46.05535" lon="6.52802">
        <ele>580</ele>
        <time>2021-03-30T13:42:23.768Z</time>
      </trkpt>
      <trkpt lat="46.05526" lon="6.52787">
        <ele>580</ele>
        <time>2021-03-30T13:42:28.945Z</time>
      </trkpt>
      <trkpt lat="46.05514" lon="6.52775">
        <ele>581</ele>
        <time>2021-03-30T13:42:39.874Z</time>
      </trkpt>
      <trkpt lat="46.05499" lon="6.52772">
        <ele>583</ele>
        <time>2021-03-30T13:43:01.422Z</time>
      </trkpt>
      <trkpt lat="46.05484" lon="6.52776">
        <ele>585</ele>
        <time>2021-03-30T13:43:22.835Z</time>
      </trkpt>
      <trkpt lat="46.05396" lon="6.5282">
        <ele>598</ele>
        <time>2021-03-30T13:45:37.986Z</time>
      </trkpt>
      <trkpt lat="46.05388" lon="6.52828">
        <ele>599</ele>
        <time>2021-03-30T13:45:47.768Z</time>
      </trkpt>
      <trkpt lat="46.0537" lon="6.52867">
        <ele>603</ele>
        <time>2021-03-30T13:46:28.781Z</time>
      </trkpt>
      <trkpt lat="46.05364" lon="6.52876">
        <ele>603</ele>
        <time>2021-03-30T13:46:32.039Z</time>
      </trkpt>
      <trkpt lat="46.05357" lon="6.52881">
        <ele>604</ele>
        <time>2021-03-30T13:46:42.549Z</time>
      </trkpt>
      <trkpt lat="46.05321" lon="6.52887">
        <ele>611</ele>
        <time>2021-03-30T13:47:35.131Z</time>
      </trkpt>
      <trkpt lat="46.05301" lon="6.52902">
        <ele>616</ele>
        <time>2021-03-30T13:48:07.845Z</time>
      </trkpt>
      <trkpt lat="46.05294" lon="6.52918">
        <ele>617</ele>
        <time>2021-03-30T13:48:18.267Z</time>
      </trkpt>
      <trkpt lat="46.0529" lon="6.52936">
        <ele>617</ele>
        <time>2021-03-30T13:48:23.201Z</time>
      </trkpt>
      <trkpt lat="46.05292" lon="6.53014">
        <ele>614</ele>
        <time>2021-03-30T13:48:30.369Z</time>
      </trkpt>
      <trkpt lat="46.05288" lon="6.53032">
        <ele>615</ele>
        <time>2021-03-30T13:48:40.787Z</time>
      </trkpt>
      <trkpt lat="46.05174" lon="6.53234">
        <ele>634</ele>
        <time>2021-03-30T13:51:46.887Z</time>
      </trkpt>
      <trkpt lat="46.05134" lon="6.53291">
        <ele>642</ele>
        <time>2021-03-30T13:53:08.513Z</time>
      </trkpt>
      <trkpt lat="46.05097" lon="6.53381">
        <ele>643</ele>
        <time>2021-03-30T13:53:39.765Z</time>
      </trkpt>
      <trkpt lat="46.05088" lon="6.53391">
        <ele>644</ele>
        <time>2021-03-30T13:53:49.718Z</time>
      </trkpt>
      <trkpt lat="46.05065" lon="6.53389">
        <ele>651</ele>
        <time>2021-03-30T13:54:23.150Z</time>
      </trkpt>
      <trkpt lat="46.05051" lon="6.53382">
        <ele>655</ele>
        <time>2021-03-30T13:54:44.652Z</time>
      </trkpt>
      <trkpt lat="46.05024" lon="6.53356">
        <ele>663</ele>
        <time>2021-03-30T13:55:31.771Z</time>
      </trkpt>
      <trkpt lat="46.05016" lon="6.53353">
        <ele>665</ele>
        <time>2021-03-30T13:55:43.765Z</time>
      </trkpt>
      <trkpt lat="46.05007" lon="6.53353">
        <ele>667</ele>
        <time>2021-03-30T13:55:56.823Z</time>
      </trkpt>
      <trkpt lat="46.05" lon="6.53357">
        <ele>669</ele>
        <time>2021-03-30T13:56:07.749Z</time>
      </trkpt>
      <trkpt lat="46.04992" lon="6.53369">
        <ele>672</ele>
        <time>2021-03-30T13:56:24.505Z</time>
      </trkpt>
      <trkpt lat="46.0499" lon="6.53385">
        <ele>673</ele>
        <time>2021-03-30T13:56:34.441Z</time>
      </trkpt>
      <trkpt lat="46.04992" lon="6.534">
        <ele>673</ele>
        <time>2021-03-30T13:56:38.429Z</time>
      </trkpt>
      <trkpt lat="46.0501" lon="6.53469">
        <ele>664</ele>
        <time>2021-03-30T13:56:45.187Z</time>
      </trkpt>
      <trkpt lat="46.05003" lon="6.53499">
        <ele>665</ele>
        <time>2021-03-30T13:56:59.224Z</time>
      </trkpt>
      <trkpt lat="46.04997" lon="6.53512">
        <ele>667</ele>
        <time>2021-03-30T13:57:14.945Z</time>
      </trkpt>
      <trkpt lat="46.04985" lon="6.53525">
        <ele>670</ele>
        <time>2021-03-30T13:57:36.729Z</time>
      </trkpt>
      <trkpt lat="46.04943" lon="6.53542">
        <ele>684</ele>
        <time>2021-03-30T13:58:40.027Z</time>
      </trkpt>
      <trkpt lat="46.04936" lon="6.5355">
        <ele>686</ele>
        <time>2021-03-30T13:58:52.990Z</time>
      </trkpt>
      <trkpt lat="46.04931" lon="6.53569">
        <ele>685</ele>
        <time>2021-03-30T13:58:54.853Z</time>
      </trkpt>
      <trkpt lat="46.04931" lon="6.5358">
        <ele>683</ele>
        <time>2021-03-30T13:58:55.862Z</time>
      </trkpt>
      <trkpt lat="46.04939" lon="6.53606">
        <ele>678</ele>
        <time>2021-03-30T13:58:58.469Z</time>
      </trkpt>
      <trkpt lat="46.04943" lon="6.53631">
        <ele>675</ele>
        <time>2021-03-30T13:59:00.821Z</time>
      </trkpt>
      <trkpt lat="46.04941" lon="6.5365">
        <ele>674</ele>
        <time>2021-03-30T13:59:02.583Z</time>
      </trkpt>
      <trkpt lat="46.04859" lon="6.53871">
        <ele>692</ele>
        <time>2021-03-30T14:01:58.716Z</time>
      </trkpt>
      <trkpt lat="46.04847" lon="6.53891">
        <ele>693</ele>
        <time>2021-03-30T14:02:11.152Z</time>
      </trkpt>
      <trkpt lat="46.04826" lon="6.53912">
        <ele>696</ele>
        <time>2021-03-30T14:02:41.249Z</time>
      </trkpt>
      <trkpt lat="46.04793" lon="6.53966">
        <ele>699</ele>
        <time>2021-03-30T14:03:16.417Z</time>
      </trkpt>
      <trkpt lat="46.04774" lon="6.53984">
        <ele>704</ele>
        <time>2021-03-30T14:03:49.410Z</time>
      </trkpt>
      <trkpt lat="46.04761" lon="6.54003">
        <ele>707</ele>
        <time>2021-03-30T14:04:16.278Z</time>
      </trkpt>
      <trkpt lat="46.04746" lon="6.54037">
        <ele>709</ele>
        <time>2021-03-30T14:04:37.690Z</time>
      </trkpt>
      <trkpt lat="46.04723" lon="6.54067">
        <ele>714</ele>
        <time>2021-03-30T14:05:22.705Z</time>
      </trkpt>
      <trkpt lat="46.04718" lon="6.54077">
        <ele>715</ele>
        <time>2021-03-30T14:05:32.723Z</time>
      </trkpt>
      <trkpt lat="46.04717" lon="6.54096">
        <ele>714</ele>
        <time>2021-03-30T14:05:34.470Z</time>
      </trkpt>
      <trkpt lat="46.0473" lon="6.54149">
        <ele>710</ele>
        <time>2021-03-30T14:05:39.624Z</time>
      </trkpt>
      <trkpt lat="46.04732" lon="6.54169">
        <ele>710</ele>
        <time>2021-03-30T14:05:44.899Z</time>
      </trkpt>
      <trkpt lat="46.04729" lon="6.5419">
        <ele>711</ele>
        <time>2021-03-30T14:05:55.930Z</time>
      </trkpt>
      <trkpt lat="46.04722" lon="6.54213">
        <ele>713</ele>
        <time>2021-03-30T14:06:15.841Z</time>
      </trkpt>
      <trkpt lat="46.04693" lon="6.5427">
        <ele>715</ele>
        <time>2021-03-30T14:06:45.292Z</time>
      </trkpt>
      <trkpt lat="46.04684" lon="6.54282">
        <ele>716</ele>
        <time>2021-03-30T14:06:55.460Z</time>
      </trkpt>
      <trkpt lat="46.04483" lon="6.54412">
        <ele>738</ele>
        <time>2021-03-30T14:10:30.678Z</time>
      </trkpt>
      <trkpt lat="46.04392" lon="6.54523">
        <ele>752</ele>
        <time>2021-03-30T14:12:51.157Z</time>
      </trkpt>
      <trkpt lat="46.04376" lon="6.54526">
        <ele>755</ele>
        <time>2021-03-30T14:13:14.568Z</time>
      </trkpt>
      <trkpt lat="46.04334" lon="6.54499">
        <ele>770</ele>
        <time>2021-03-30T14:14:21.299Z</time>
      </trkpt>
      <trkpt lat="46.04322" lon="6.54496">
        <ele>775</ele>
        <time>2021-03-30T14:14:38.970Z</time>
      </trkpt>
      <trkpt lat="46.04312" lon="6.545">
        <ele>778</ele>
        <time>2021-03-30T14:14:54.029Z</time>
      </trkpt>
      <trkpt lat="46.043" lon="6.5451">
        <ele>779</ele>
        <time>2021-03-30T14:15:04.694Z</time>
      </trkpt>
      <trkpt lat="46.04294" lon="6.5452">
        <ele>779</ele>
        <time>2021-03-30T14:15:08.145Z</time>
      </trkpt>
      <trkpt lat="46.04287" lon="6.54575">
        <ele>766</ele>
        <time>2021-03-30T14:15:13.272Z</time>
      </trkpt>
      <trkpt lat="46.04282" lon="6.54586">
        <ele>764</ele>
        <time>2021-03-30T14:15:14.477Z</time>
      </trkpt>
      <trkpt lat="46.04268" lon="6.54601">
        <ele>764</ele>
        <time>2021-03-30T14:15:21.041Z</time>
      </trkpt>
      <trkpt lat="46.04246" lon="6.54606">
        <ele>769</ele>
        <time>2021-03-30T14:15:53.356Z</time>
      </trkpt>
      <trkpt lat="46.04205" lon="6.54592">
        <ele>782</ele>
        <time>2021-03-30T14:16:54.493Z</time>
      </trkpt>
      <trkpt lat="46.04195" lon="6.54596">
        <ele>783</ele>
        <time>2021-03-30T14:17:04.297Z</time>
      </trkpt>
      <trkpt lat="46.04146" lon="6.54658">
        <ele>779</ele>
        <time>2021-03-30T14:17:12.521Z</time>
      </trkpt>
      <trkpt lat="46.04107" lon="6.54658">
        <ele>792</ele>
        <time>2021-03-30T14:18:09.107Z</time>
      </trkpt>
      <trkpt lat="46.04064" lon="6.54705">
        <ele>793</ele>
        <time>2021-03-30T14:18:33.561Z</time>
      </trkpt>
      <trkpt lat="46.04014" lon="6.54736">
        <ele>808</ele>
        <time>2021-03-30T14:19:52.542Z</time>
      </trkpt>
      <trkpt lat="46.03993" lon="6.54778">
        <ele>806</ele>
        <time>2021-03-30T14:19:57.285Z</time>
      </trkpt>
      <trkpt lat="46.03979" lon="6.5483">
        <ele>798</ele>
        <time>2021-03-30T14:20:02.399Z</time>
      </trkpt>
      <trkpt lat="46.0395" lon="6.54865">
        <ele>801</ele>
        <time>2021-03-30T14:20:33.195Z</time>
      </trkpt>
      <trkpt lat="46.03874" lon="6.54922">
        <ele>814</ele>
        <time>2021-03-30T14:22:37.516Z</time>
      </trkpt>
      <trkpt lat="46.03824" lon="6.54983">
        <ele>810</ele>
        <time>2021-03-30T14:22:45.797Z</time>
      </trkpt>
      <trkpt lat="46.03763" lon="6.55022">
        <ele>823</ele>
        <time>2021-03-30T14:24:22.630Z</time>
      </trkpt>
      <trkpt lat="46.03737" lon="6.55057">
        <ele>818</ele>
        <time>2021-03-30T14:24:27.331Z</time>
      </trkpt>
      <trkpt lat="46.03663" lon="6.55066">
        <ele>842</ele>
        <time>2021-03-30T14:26:15.082Z</time>
      </trkpt>
      <trkpt lat="46.0361" lon="6.55119">
        <ele>836</ele>
        <time>2021-03-30T14:26:23.604Z</time>
      </trkpt>
      <trkpt lat="46.03552" lon="6.55135">
        <ele>857</ele>
        <time>2021-03-30T14:27:49.288Z</time>
      </trkpt>
      <trkpt lat="46.03545" lon="6.55139">
        <ele>860</ele>
        <time>2021-03-30T14:28:00.215Z</time>
      </trkpt>
      <trkpt lat="46.03537" lon="6.55149">
        <ele>862</ele>
        <time>2021-03-30T14:28:15.583Z</time>
      </trkpt>
      <trkpt lat="46.03534" lon="6.55159">
        <ele>861</ele>
        <time>2021-03-30T14:28:16.582Z</time>
      </trkpt>
      <trkpt lat="46.0353" lon="6.55212">
        <ele>847</ele>
        <time>2021-03-30T14:28:21.471Z</time>
      </trkpt>
      <trkpt lat="46.03504" lon="6.55251">
        <ele>854</ele>
        <time>2021-03-30T14:29:15.935Z</time>
      </trkpt>
      <trkpt lat="46.03485" lon="6.55299">
        <ele>853</ele>
        <time>2021-03-30T14:29:22.640Z</time>
      </trkpt>
      <trkpt lat="46.03452" lon="6.5534">
        <ele>861</ele>
        <time>2021-03-30T14:30:25.871Z</time>
      </trkpt>
      <trkpt lat="46.03431" lon="6.55389">
        <ele>862</ele>
        <time>2021-03-30T14:30:45.378Z</time>
      </trkpt>
      <trkpt lat="46.03388" lon="6.55449">
        <ele>864</ele>
        <time>2021-03-30T14:31:17.828Z</time>
      </trkpt>
      <trkpt lat="46.03342" lon="6.555">
        <ele>864</ele>
        <time>2021-03-30T14:31:39.664Z</time>
      </trkpt>
      <trkpt lat="46.03285" lon="6.55538">
        <ele>881</ele>
        <time>2021-03-30T14:33:10.796Z</time>
      </trkpt>
      <trkpt lat="46.03243" lon="6.55596">
        <ele>875</ele>
        <time>2021-03-30T14:33:18.482Z</time>
      </trkpt>
      <trkpt lat="46.03213" lon="6.55618">
        <ele>877</ele>
        <time>2021-03-30T14:33:42.080Z</time>
      </trkpt>
      <trkpt lat="46.02983" lon="6.557">
        <ele>902</ele>
        <time>2021-03-30T14:37:47.017Z</time>
      </trkpt>
      <trkpt lat="46.02928" lon="6.55698">
        <ele>915</ele>
        <time>2021-03-30T14:39:06.844Z</time>
      </trkpt>
      <trkpt lat="46.02814" lon="6.55755">
        <ele>918</ele>
        <time>2021-03-30T14:40:05.622Z</time>
      </trkpt>
      <trkpt lat="46.02798" lon="6.55772">
        <ele>920</ele>
        <time>2021-03-30T14:40:25.184Z</time>
      </trkpt>
      <trkpt lat="46.02777" lon="6.55819">
        <ele>920</ele>
        <time>2021-03-30T14:40:39.782Z</time>
      </trkpt>
      <trkpt lat="46.0277" lon="6.55827">
        <ele>919</ele>
        <time>2021-03-30T14:40:40.962Z</time>
      </trkpt>
      <trkpt lat="46.02752" lon="6.55835">
        <ele>919</ele>
        <time>2021-03-30T14:40:48.048Z</time>
      </trkpt>
      <trkpt lat="46.02734" lon="6.55831">
        <ele>918</ele>
        <time>2021-03-30T14:40:50.468Z</time>
      </trkpt>
      <trkpt lat="46.02607" lon="6.55766">
        <ele>922</ele>
        <time>2021-03-30T14:42:00.096Z</time>
      </trkpt>
      <trkpt lat="46.02587" lon="6.55751">
        <ele>921</ele>
        <time>2021-03-30T14:42:03.381Z</time>
      </trkpt>
      <trkpt lat="46.02556" lon="6.55717">
        <ele>920</ele>
        <time>2021-03-30T14:42:10.222Z</time>
      </trkpt>
      <trkpt lat="46.02528" lon="6.55671">
        <ele>919</ele>
        <time>2021-03-30T14:42:17.858Z</time>
      </trkpt>
      <trkpt lat="46.02494" lon="6.55602">
        <ele>926</ele>
        <time>2021-03-30T14:43:28.513Z</time>
      </trkpt>
      <trkpt lat="46.02476" lon="6.55578">
        <ele>930</ele>
        <time>2021-03-30T14:44:04.104Z</time>
      </trkpt>
      <trkpt lat="46.02394" lon="6.55484">
        <ele>936</ele>
        <time>2021-03-30T14:45:16.478Z</time>
      </trkpt>
      <trkpt lat="46.02371" lon="6.55447">
        <ele>938</ele>
        <time>2021-03-30T14:45:40.413Z</time>
      </trkpt>
      <trkpt lat="46.02288" lon="6.55335">
        <ele>945</ele>
        <time>2021-03-30T14:47:01.348Z</time>
      </trkpt>
      <trkpt lat="46.02225" lon="6.55322">
        <ele>933</ele>
        <time>2021-03-30T14:47:09.755Z</time>
      </trkpt>
      <trkpt lat="46.02116" lon="6.55136">
        <ele>934</ele>
        <time>2021-03-30T14:48:16.972Z</time>
      </trkpt>
      <trkpt lat="46.02054" lon="6.54966">
        <ele>947</ele>
        <time>2021-03-30T14:50:24.301Z</time>
      </trkpt>
      <trkpt lat="46.02048" lon="6.54929">
        <ele>953</ele>
        <time>2021-03-30T14:51:02.582Z</time>
      </trkpt>
      <trkpt lat="46.02045" lon="6.5489">
        <ele>957</ele>
        <time>2021-03-30T14:51:42.117Z</time>
      </trkpt>
      <trkpt lat="46.02004" lon="6.54735">
        <ele>961</ele>
        <time>2021-03-30T14:52:45.655Z</time>
      </trkpt>
      <trkpt lat="46.02005" lon="6.5467">
        <ele>966</ele>
        <time>2021-03-30T14:53:34.986Z</time>
      </trkpt>
      <trkpt lat="46.01916" lon="6.5443">
        <ele>977</ele>
        <time>2021-03-30T14:55:46.334Z</time>
      </trkpt>
      <trkpt lat="46.01877" lon="6.54396">
        <ele>977</ele>
        <time>2021-03-30T14:56:03.483Z</time>
      </trkpt>
      <trkpt lat="46.01865" lon="6.5437">
        <ele>976</ele>
        <time>2021-03-30T14:56:06.590Z</time>
      </trkpt>
      <trkpt lat="46.0186" lon="6.54309">
        <ele>977</ele>
        <time>2021-03-30T14:56:27.023Z</time>
      </trkpt>
      <trkpt lat="46.01843" lon="6.54282">
        <ele>974</ele>
        <time>2021-03-30T14:56:30.366Z</time>
      </trkpt>
      <trkpt lat="46.01791" lon="6.54229">
        <ele>973</ele>
        <time>2021-03-30T14:56:42.929Z</time>
      </trkpt>
      <trkpt lat="46.01773" lon="6.54184">
        <ele>969</ele>
        <time>2021-03-30T14:56:47.692Z</time>
      </trkpt>
      <trkpt lat="46.01723" lon="6.54096">
        <ele>964</ele>
        <time>2021-03-30T14:56:57.495Z</time>
      </trkpt>
      <trkpt lat="46.01655" lon="6.54035">
        <ele>962</ele>
        <time>2021-03-30T14:57:11.671Z</time>
      </trkpt>
      <trkpt lat="46.01466" lon="6.53877">
        <ele>969</ele>
        <time>2021-03-30T14:59:08.014Z</time>
      </trkpt>
      <trkpt lat="46.01296" lon="6.53773">
        <ele>970</ele>
        <time>2021-03-30T15:00:21.120Z</time>
      </trkpt>
      <trkpt lat="46.01222" lon="6.53745">
        <ele>973</ele>
        <time>2021-03-30T15:01:06.032Z</time>
      </trkpt>
      <trkpt lat="46.01204" lon="6.53719">
        <ele>974</ele>
        <time>2021-03-30T15:01:21.000Z</time>
      </trkpt>
      <trkpt lat="46.01153" lon="6.53527">
        <ele>981</ele>
        <time>2021-03-30T15:02:54.313Z</time>
      </trkpt>
      <trkpt lat="46.01146" lon="6.53488">
        <ele>982</ele>
        <time>2021-03-30T15:03:09.959Z</time>
      </trkpt>
      <trkpt lat="46.01144" lon="6.5343">
        <ele>986</ele>
        <time>2021-03-30T15:03:49.099Z</time>
      </trkpt>
      <trkpt lat="46.01147" lon="6.53419">
        <ele>986</ele>
        <time>2021-03-30T15:03:52.187Z</time>
      </trkpt>
      <trkpt lat="46.01156" lon="6.53408">
        <ele>989</ele>
        <time>2021-03-30T15:04:09.315Z</time>
      </trkpt>
      <trkpt lat="46.01165" lon="6.53406">
        <ele>990</ele>
        <time>2021-03-30T15:04:19.165Z</time>
      </trkpt>
      <trkpt lat="46.01171" lon="6.53408">
        <ele>990</ele>
        <time>2021-03-30T15:04:21.482Z</time>
      </trkpt>
      <trkpt lat="46.01224" lon="6.53447">
        <ele>996</ele>
        <time>2021-03-30T15:05:20.167Z</time>
      </trkpt>
      <trkpt lat="46.01248" lon="6.53467">
        <ele>996</ele>
        <time>2021-03-30T15:05:30.598Z</time>
      </trkpt>
      <trkpt lat="46.01287" lon="6.53516">
        <ele>995</ele>
        <time>2021-03-30T15:05:40.368Z</time>
      </trkpt>
      <trkpt lat="46.01318" lon="6.53547">
        <ele>994</ele>
        <time>2021-03-30T15:05:46.934Z</time>
      </trkpt>
      <trkpt lat="46.01331" lon="6.53552">
        <ele>995</ele>
        <time>2021-03-30T15:05:57.462Z</time>
      </trkpt>
      <trkpt lat="46.01341" lon="6.53548">
        <ele>998</ele>
        <time>2021-03-30T15:06:12.521Z</time>
      </trkpt>
      <trkpt lat="46.01344" lon="6.53543">
        <ele>1000</ele>
        <time>2021-03-30T15:06:19.179Z</time>
      </trkpt>
      <trkpt lat="46.01345" lon="6.53521">
        <ele>1007</ele>
        <time>2021-03-30T15:06:41.395Z</time>
      </trkpt>
      <trkpt lat="46.01328" lon="6.53492">
        <ele>1011</ele>
        <time>2021-03-30T15:07:19.636Z</time>
      </trkpt>
      <trkpt lat="46.01317" lon="6.53479">
        <ele>1011</ele>
        <time>2021-03-30T15:07:24.989Z</time>
      </trkpt>
      <trkpt lat="46.01283" lon="6.53448">
        <ele>1009</ele>
        <time>2021-03-30T15:07:30.578Z</time>
      </trkpt>
      <trkpt lat="46.01276" lon="6.53438">
        <ele>1009</ele>
        <time>2021-03-30T15:07:34.287Z</time>
      </trkpt>
      <trkpt lat="46.01244" lon="6.53359">
        <ele>1018</ele>
        <time>2021-03-30T15:09:06.444Z</time>
      </trkpt>
      <trkpt lat="46.01222" lon="6.53285">
        <ele>1024</ele>
        <time>2021-03-30T15:10:05.336Z</time>
      </trkpt>
      <trkpt lat="46.01214" lon="6.53266">
        <ele>1025</ele>
        <time>2021-03-30T15:10:16.576Z</time>
      </trkpt>
      <trkpt lat="46.01176" lon="6.53213">
        <ele>1027</ele>
        <time>2021-03-30T15:10:47.018Z</time>
      </trkpt>
      <trkpt lat="46.01164" lon="6.532">
        <ele>1026</ele>
        <time>2021-03-30T15:10:48.837Z</time>
      </trkpt>
      <trkpt lat="46.01154" lon="6.5318">
        <ele>1027</ele>
        <time>2021-03-30T15:11:00.752Z</time>
      </trkpt>
      <trkpt lat="46.01131" lon="6.53072">
        <ele>1050</ele>
        <time>2021-03-30T15:12:54.585Z</time>
      </trkpt>
      <trkpt lat="46.01125" lon="6.53063">
        <ele>1050</ele>
        <time>2021-03-30T15:12:57.844Z</time>
      </trkpt>
      <trkpt lat="46.01109" lon="6.53049">
        <ele>1048</ele>
        <time>2021-03-30T15:13:00.318Z</time>
      </trkpt>
      <trkpt lat="46.01097" lon="6.53014">
        <ele>1052</ele>
        <time>2021-03-30T15:13:39.651Z</time>
      </trkpt>
      <trkpt lat="46.0109" lon="6.53004">
        <ele>1052</ele>
        <time>2021-03-30T15:13:43.360Z</time>
      </trkpt>
      <trkpt lat="46.01061" lon="6.52985">
        <ele>1046</ele>
        <time>2021-03-30T15:13:47.569Z</time>
      </trkpt>
      <trkpt lat="46.01057" lon="6.52978">
        <ele>1046</ele>
        <time>2021-03-30T15:13:49.937Z</time>
      </trkpt>
      <trkpt lat="46.01056" lon="6.5297">
        <ele>1047</ele>
        <time>2021-03-30T15:13:58.128Z</time>
      </trkpt>
      <trkpt lat="46.0106" lon="6.52956">
        <ele>1050</ele>
        <time>2021-03-30T15:14:13.383Z</time>
      </trkpt>
      <trkpt lat="46.01065" lon="6.52953">
        <ele>1052</ele>
        <time>2021-03-30T15:14:21.243Z</time>
      </trkpt>
      <trkpt lat="46.01069" lon="6.52954">
        <ele>1053</ele>
        <time>2021-03-30T15:14:27.133Z</time>
      </trkpt>
      <trkpt lat="46.01095" lon="6.52977">
        <ele>1059</ele>
        <time>2021-03-30T15:15:11.409Z</time>
      </trkpt>
      <trkpt lat="46.01109" lon="6.52977">
        <ele>1063</ele>
        <time>2021-03-30T15:15:31.722Z</time>
      </trkpt>
      <trkpt lat="46.01121" lon="6.52983">
        <ele>1066</ele>
        <time>2021-03-30T15:15:50.153Z</time>
      </trkpt>
      <trkpt lat="46.01137" lon="6.53008">
        <ele>1067</ele>
        <time>2021-03-30T15:16:04.665Z</time>
      </trkpt>
      <trkpt lat="46.01158" lon="6.53027">
        <ele>1069</ele>
        <time>2021-03-30T15:16:25.076Z</time>
      </trkpt>
      <trkpt lat="46.01167" lon="6.53067">
        <ele>1064</ele>
        <time>2021-03-30T15:16:28.933Z</time>
      </trkpt>
      <trkpt lat="46.01173" lon="6.53079">
        <ele>1063</ele>
        <time>2021-03-30T15:16:30.289Z</time>
      </trkpt>
      <trkpt lat="46.01228" lon="6.53112">
        <ele>1069</ele>
        <time>2021-03-30T15:17:28.975Z</time>
      </trkpt>
      <trkpt lat="46.01247" lon="6.5312">
        <ele>1071</ele>
        <time>2021-03-30T15:17:48.537Z</time>
      </trkpt>
      <trkpt lat="46.0128" lon="6.53125">
        <ele>1077</ele>
        <time>2021-03-30T15:18:36.682Z</time>
      </trkpt>
      <trkpt lat="46.01333" lon="6.53149">
        <ele>1083</ele>
        <time>2021-03-30T15:19:35.622Z</time>
      </trkpt>
      <trkpt lat="46.01425" lon="6.53205">
        <ele>1090</ele>
        <time>2021-03-30T15:20:51.275Z</time>
      </trkpt>
      <trkpt lat="46.01433" lon="6.53207">
        <ele>1093</ele>
        <time>2021-03-30T15:21:03.056Z</time>
      </trkpt>
      <trkpt lat="46.01442" lon="6.53204">
        <ele>1097</ele>
        <time>2021-03-30T15:21:16.460Z</time>
      </trkpt>
      <trkpt lat="46.01447" lon="6.53193">
        <ele>1102</ele>
        <time>2021-03-30T15:21:29.707Z</time>
      </trkpt>
      <trkpt lat="46.01446" lon="6.53185">
        <ele>1104</ele>
        <time>2021-03-30T15:21:37.898Z</time>
      </trkpt>
      <trkpt lat="46.01442" lon="6.53176">
        <ele>1104</ele>
        <time>2021-03-30T15:21:40.689Z</time>
      </trkpt>
      <trkpt lat="46.01396" lon="6.53142">
        <ele>1100</ele>
        <time>2021-03-30T15:21:47.519Z</time>
      </trkpt>
      <trkpt lat="46.01363" lon="6.53093">
        <ele>1106</ele>
        <time>2021-03-30T15:22:50.094Z</time>
      </trkpt>
      <trkpt lat="46.01347" lon="6.53062">
        <ele>1114</ele>
        <time>2021-03-30T15:23:29.013Z</time>
      </trkpt>
      <trkpt lat="46.01334" lon="6.53046">
        <ele>1116</ele>
        <time>2021-03-30T15:23:49.052Z</time>
      </trkpt>
      <trkpt lat="46.01309" lon="6.53032">
        <ele>1115</ele>
        <time>2021-03-30T15:23:53.228Z</time>
      </trkpt>
      <trkpt lat="46.01286" lon="6.53025">
        <ele>1112</ele>
        <time>2021-03-30T15:23:56.333Z</time>
      </trkpt>
      <trkpt lat="46.01264" lon="6.52976">
        <ele>1119</ele>
        <time>2021-03-30T15:24:55.129Z</time>
      </trkpt>
      <trkpt lat="46.01241" lon="6.52946">
        <ele>1118</ele>
        <time>2021-03-30T15:25:00.211Z</time>
      </trkpt>
      <trkpt lat="46.01233" lon="6.5293">
        <ele>1119</ele>
        <time>2021-03-30T15:25:10.818Z</time>
      </trkpt>
      <trkpt lat="46.01222" lon="6.52902">
        <ele>1121</ele>
        <time>2021-03-30T15:25:30.648Z</time>
      </trkpt>
      <trkpt lat="46.01214" lon="6.52857">
        <ele>1126</ele>
        <time>2021-03-30T15:26:17.456Z</time>
      </trkpt>
      <trkpt lat="46.01201" lon="6.52804">
        <ele>1131</ele>
        <time>2021-03-30T15:27:10.031Z</time>
      </trkpt>
      <trkpt lat="46.01162" lon="6.52686">
        <ele>1143</ele>
        <time>2021-03-30T15:29:19.443Z</time>
      </trkpt>
      <trkpt lat="46.0115" lon="6.52656">
        <ele>1147</ele>
        <time>2021-03-30T15:29:54.329Z</time>
      </trkpt>
      <trkpt lat="46.01132" lon="6.5263">
        <ele>1147</ele>
        <time>2021-03-30T15:30:03.920Z</time>
      </trkpt>
      <trkpt lat="46.01115" lon="6.52595">
        <ele>1149</ele>
        <time>2021-03-30T15:30:25.946Z</time>
      </trkpt>
      <trkpt lat="46.01106" lon="6.52583">
        <ele>1149</ele>
        <time>2021-03-30T15:30:30.560Z</time>
      </trkpt>
      <trkpt lat="46.01092" lon="6.52574">
        <ele>1145</ele>
        <time>2021-03-30T15:30:32.585Z</time>
      </trkpt>
      <trkpt lat="46.01085" lon="6.52562">
        <ele>1145</ele>
        <time>2021-03-30T15:30:36.679Z</time>
      </trkpt>
      <trkpt lat="46.01083" lon="6.52543">
        <ele>1150</ele>
        <time>2021-03-30T15:30:56.044Z</time>
      </trkpt>
      <trkpt lat="46.01093" lon="6.52477">
        <ele>1172</ele>
        <time>2021-03-30T15:32:04.117Z</time>
      </trkpt>
      <trkpt lat="46.01088" lon="6.52461">
        <ele>1174</ele>
        <time>2021-03-30T15:32:21.798Z</time>
      </trkpt>
      <trkpt lat="46.01068" lon="6.52444">
        <ele>1170</ele>
        <time>2021-03-30T15:32:24.866Z</time>
      </trkpt>
      <trkpt lat="46.01061" lon="6.52428">
        <ele>1172</ele>
        <time>2021-03-30T15:32:43.921Z</time>
      </trkpt>
      <trkpt lat="46.01055" lon="6.52386">
        <ele>1181</ele>
        <time>2021-03-30T15:33:27.131Z</time>
      </trkpt>
      <trkpt lat="46.01048" lon="6.52375">
        <ele>1181</ele>
        <time>2021-03-30T15:33:31.029Z</time>
      </trkpt>
      <trkpt lat="46.0101" lon="6.52348">
        <ele>1173</ele>
        <time>2021-03-30T15:33:36.626Z</time>
      </trkpt>
      <trkpt lat="46.01004" lon="6.52338">
        <ele>1173</ele>
        <time>2021-03-30T15:33:40.079Z</time>
      </trkpt>
      <trkpt lat="46.01002" lon="6.52285">
        <ele>1184</ele>
        <time>2021-03-30T15:34:33.567Z</time>
      </trkpt>
      <trkpt lat="46.00998" lon="6.52267">
        <ele>1186</ele>
        <time>2021-03-30T15:34:52.612Z</time>
      </trkpt>
      <trkpt lat="46.00949" lon="6.52205">
        <ele>1188</ele>
        <time>2021-03-30T15:35:26.733Z</time>
      </trkpt>
      <trkpt lat="46.00913" lon="6.52149">
        <ele>1197</ele>
        <time>2021-03-30T15:36:43.629Z</time>
      </trkpt>
      <trkpt lat="46.00881" lon="6.52129">
        <ele>1194</ele>
        <time>2021-03-30T15:36:48.237Z</time>
      </trkpt>
      <trkpt lat="46.00838" lon="6.52069">
        <ele>1202</ele>
        <time>2021-03-30T15:38:15.120Z</time>
      </trkpt>
      <trkpt lat="46.00808" lon="6.52001">
        <ele>1217</ele>
        <time>2021-03-30T15:39:36.303Z</time>
      </trkpt>
      <trkpt lat="46.00772" lon="6.5197">
        <ele>1213</ele>
        <time>2021-03-30T15:39:41.844Z</time>
      </trkpt>
      <trkpt lat="46.00748" lon="6.51931">
        <ele>1216</ele>
        <time>2021-03-30T15:40:12.189Z</time>
      </trkpt>
      <trkpt lat="46.00726" lon="6.51907">
        <ele>1217</ele>
        <time>2021-03-30T15:40:27.729Z</time>
      </trkpt>
      <trkpt lat="46.0067" lon="6.51824">
        <ele>1216</ele>
        <time>2021-03-30T15:40:44.241Z</time>
      </trkpt>
      <trkpt lat="46.00662" lon="6.51808">
        <ele>1216</ele>
        <time>2021-03-30T15:40:49.392Z</time>
      </trkpt>
      <trkpt lat="46.00656" lon="6.51765">
        <ele>1221</ele>
        <time>2021-03-30T15:41:33.592Z</time>
      </trkpt>
      <trkpt lat="46.00643" lon="6.51745">
        <ele>1223</ele>
        <time>2021-03-30T15:41:53.181Z</time>
      </trkpt>
      <trkpt lat="46.00606" lon="6.51711">
        <ele>1227</ele>
        <time>2021-03-30T15:42:32.703Z</time>
      </trkpt>
      <trkpt lat="46.00597" lon="6.51708">
        <ele>1227</ele>
        <time>2021-03-30T15:42:36.178Z</time>
      </trkpt>
      <trkpt lat="46.00568" lon="6.5171">
        <ele>1223</ele>
        <time>2021-03-30T15:42:40.013Z</time>
      </trkpt>
      <trkpt lat="46.00546" lon="6.51702">
        <ele>1222</ele>
        <time>2021-03-30T15:42:43.326Z</time>
      </trkpt>
      <trkpt lat="46.00527" lon="6.51689">
        <ele>1222</ele>
        <time>2021-03-30T15:42:51.240Z</time>
      </trkpt>
      <trkpt lat="46.00513" lon="6.51661">
        <ele>1225</ele>
        <time>2021-03-30T15:43:22.308Z</time>
      </trkpt>
      <trkpt lat="46.00495" lon="6.51605">
        <ele>1229</ele>
        <time>2021-03-30T15:44:01.675Z</time>
      </trkpt>
      <trkpt lat="46.00488" lon="6.51547">
        <ele>1235</ele>
        <time>2021-03-30T15:45:01.004Z</time>
      </trkpt>
      <trkpt lat="46.00487" lon="6.51465">
        <ele>1247</ele>
        <time>2021-03-30T15:46:23.658Z</time>
      </trkpt>
      <trkpt lat="46.00483" lon="6.51421">
        <ele>1252</ele>
        <time>2021-03-30T15:47:08.380Z</time>
      </trkpt>
      <trkpt lat="46.00477" lon="6.51409">
        <ele>1253</ele>
        <time>2021-03-30T15:47:18.175Z</time>
      </trkpt>
      <trkpt lat="46.00455" lon="6.5139">
        <ele>1253</ele>
        <time>2021-03-30T15:47:27.826Z</time>
      </trkpt>
      <trkpt lat="46.00406" lon="6.51339">
        <ele>1256</ele>
        <time>2021-03-30T15:48:07.497Z</time>
      </trkpt>
      <trkpt lat="46.00367" lon="6.51318">
        <ele>1252</ele>
        <time>2021-03-30T15:48:12.997Z</time>
      </trkpt>
      <trkpt lat="46.00357" lon="6.51309">
        <ele>1251</ele>
        <time>2021-03-30T15:48:14.555Z</time>
      </trkpt>
      <trkpt lat="46.00351" lon="6.51294">
        <ele>1253</ele>
        <time>2021-03-30T15:48:32.000Z</time>
      </trkpt>
      <trkpt lat="46.00341" lon="6.51236">
        <ele>1264</ele>
        <time>2021-03-30T15:49:32.228Z</time>
      </trkpt>
      <trkpt lat="46.0033" lon="6.51211">
        <ele>1267</ele>
        <time>2021-03-30T15:50:02.054Z</time>
      </trkpt>
      <trkpt lat="46.0029" lon="6.51132">
        <ele>1274</ele>
        <time>2021-03-30T15:51:10.540Z</time>
      </trkpt>
      <trkpt lat="46.00217" lon="6.51026">
        <ele>1281</ele>
        <time>2021-03-30T15:52:27.578Z</time>
      </trkpt>
      <trkpt lat="46.00202" lon="6.50997">
        <ele>1284</ele>
        <time>2021-03-30T15:52:57.892Z</time>
      </trkpt>
      <trkpt lat="46.00186" lon="6.50955">
        <ele>1286</ele>
        <time>2021-03-30T15:53:21.330Z</time>
      </trkpt>
      <trkpt lat="46.00175" lon="6.50915">
        <ele>1290</ele>
        <time>2021-03-30T15:54:04.689Z</time>
      </trkpt>
      <trkpt lat="46.00157" lon="6.50883">
        <ele>1290</ele>
        <time>2021-03-30T15:54:15.448Z</time>
      </trkpt>
      <trkpt lat="46.00154" lon="6.50868">
        <ele>1291</ele>
        <time>2021-03-30T15:54:25.308Z</time>
      </trkpt>
      <trkpt lat="46.00155" lon="6.50858">
        <ele>1293</ele>
        <time>2021-03-30T15:54:35.491Z</time>
      </trkpt>
      <trkpt lat="46.00161" lon="6.5085">
        <ele>1297</ele>
        <time>2021-03-30T15:54:47.357Z</time>
      </trkpt>
      <trkpt lat="46.00172" lon="6.50851">
        <ele>1300</ele>
        <time>2021-03-30T15:55:03.349Z</time>
      </trkpt>
      <trkpt lat="46.00177" lon="6.50859">
        <ele>1300</ele>
        <time>2021-03-30T15:55:06.161Z</time>
      </trkpt>
      <trkpt lat="46.00186" lon="6.50888">
        <ele>1297</ele>
        <time>2021-03-30T15:55:09.075Z</time>
      </trkpt>
      <trkpt lat="46.00197" lon="6.50905">
        <ele>1297</ele>
        <time>2021-03-30T15:55:15.146Z</time>
      </trkpt>
      <trkpt lat="46.00216" lon="6.50924">
        <ele>1298</ele>
        <time>2021-03-30T15:55:29.553Z</time>
      </trkpt>
      <trkpt lat="46.00241" lon="6.50938">
        <ele>1301</ele>
        <time>2021-03-30T15:55:59.215Z</time>
      </trkpt>
      <trkpt lat="46.00256" lon="6.50951">
        <ele>1302</ele>
        <time>2021-03-30T15:56:11.294Z</time>
      </trkpt>
      <trkpt lat="46.00286" lon="6.50988">
        <ele>1303</ele>
        <time>2021-03-30T15:56:30.640Z</time>
      </trkpt>
      <trkpt lat="46.00295" lon="6.50993">
        <ele>1304</ele>
        <time>2021-03-30T15:56:40.426Z</time>
      </trkpt>
      <trkpt lat="46.00305" lon="6.50988">
        <ele>1307</ele>
        <time>2021-03-30T15:56:55.785Z</time>
      </trkpt>
      <trkpt lat="46.00309" lon="6.5097">
        <ele>1310</ele>
        <time>2021-03-30T15:57:14.833Z</time>
      </trkpt>
      <trkpt lat="46.00305" lon="6.50958">
        <ele>1311</ele>
        <time>2021-03-30T15:57:24.658Z</time>
      </trkpt>
      <trkpt lat="46.00267" lon="6.50921">
        <ele>1309</ele>
        <time>2021-03-30T15:57:31.386Z</time>
      </trkpt>
      <trkpt lat="46.00245" lon="6.50888">
        <ele>1310</ele>
        <time>2021-03-30T15:57:48.179Z</time>
      </trkpt>
      <trkpt lat="46.00235" lon="6.50865">
        <ele>1312</ele>
        <time>2021-03-30T15:58:07.784Z</time>
      </trkpt>
      <trkpt lat="46.0023" lon="6.50805">
        <ele>1322</ele>
        <time>2021-03-30T15:59:08.690Z</time>
      </trkpt>
      <trkpt lat="46.00191" lon="6.50741">
        <ele>1326</ele>
        <time>2021-03-30T15:59:52.671Z</time>
      </trkpt>
      <trkpt lat="46.00168" lon="6.5071">
        <ele>1324</ele>
        <time>2021-03-30T15:59:56.578Z</time>
      </trkpt>
      <trkpt lat="46.00161" lon="6.50687">
        <ele>1324</ele>
        <time>2021-03-30T16:00:03.139Z</time>
      </trkpt>
      <trkpt lat="46.00156" lon="6.50653">
        <ele>1324</ele>
        <time>2021-03-30T16:00:12.221Z</time>
      </trkpt>
      <trkpt lat="46.00167" lon="6.50609">
        <ele>1329</ele>
        <time>2021-03-30T16:00:59.352Z</time>
      </trkpt>
      <trkpt lat="46.00232" lon="6.50409">
        <ele>1349</ele>
        <time>2021-03-30T16:04:32.533Z</time>
      </trkpt>
      <trkpt lat="46.00262" lon="6.5034">
        <ele>1360</ele>
        <time>2021-03-30T16:05:54.575Z</time>
      </trkpt>
      <trkpt lat="46.00275" lon="6.50292">
        <ele>1365</ele>
        <time>2021-03-30T16:06:46.499Z</time>
      </trkpt>
      <trkpt lat="46.00281" lon="6.50246">
        <ele>1367</ele>
        <time>2021-03-30T16:07:09.629Z</time>
      </trkpt>
      <trkpt lat="46.00282" lon="6.50209">
        <ele>1370</ele>
        <time>2021-03-30T16:07:39.658Z</time>
      </trkpt>
      <trkpt lat="46.00277" lon="6.50177">
        <ele>1370</ele>
        <time>2021-03-30T16:07:48.228Z</time>
      </trkpt>
      <trkpt lat="46.0025" lon="6.50076">
        <ele>1377</ele>
        <time>2021-03-30T16:08:57.144Z</time>
      </trkpt>
      <trkpt lat="46.00237" lon="6.50037">
        <ele>1383</ele>
        <time>2021-03-30T16:09:40.742Z</time>
      </trkpt>
      <trkpt lat="46.00227" lon="6.50015">
        <ele>1384</ele>
        <time>2021-03-30T16:09:53.141Z</time>
      </trkpt>
      <trkpt lat="46.00213" lon="6.49995">
        <ele>1381</ele>
        <time>2021-03-30T16:09:55.746Z</time>
      </trkpt>
      <trkpt lat="46.00209" lon="6.49985">
        <ele>1381</ele>
        <time>2021-03-30T16:09:58.761Z</time>
      </trkpt>
      <trkpt lat="46.00202" lon="6.49915">
        <ele>1393</ele>
        <time>2021-03-30T16:11:10.039Z</time>
      </trkpt>
      <trkpt lat="46.00194" lon="6.49871">
        <ele>1396</ele>
        <time>2021-03-30T16:11:39.497Z</time>
      </trkpt>
      <trkpt lat="46.00168" lon="6.49801">
        <ele>1399</ele>
        <time>2021-03-30T16:12:16.844Z</time>
      </trkpt>
      <trkpt lat="46.00053" lon="6.49579">
        <ele>1405</ele>
        <time>2021-03-30T16:13:58.150Z</time>
      </trkpt>
      <trkpt lat="46.00035" lon="6.49532">
        <ele>1407</ele>
        <time>2021-03-30T16:14:23.272Z</time>
      </trkpt>
      <trkpt lat="46.00033" lon="6.49514">
        <ele>1411</ele>
        <time>2021-03-30T16:14:41.645Z</time>
      </trkpt>
      <trkpt lat="46.00041" lon="6.49491">
        <ele>1419</ele>
        <time>2021-03-30T16:15:07.570Z</time>
      </trkpt>
      <trkpt lat="46.00051" lon="6.49404">
        <ele>1440</ele>
        <time>2021-03-30T16:16:36.450Z</time>
      </trkpt>
      <trkpt lat="46.00052" lon="6.4937">
        <ele>1444</ele>
        <time>2021-03-30T16:17:10.749Z</time>
      </trkpt>
      <trkpt lat="46.00057" lon="6.49329">
        <ele>1452</ele>
        <time>2021-03-30T16:17:52.705Z</time>
      </trkpt>
      <trkpt lat="46.00055" lon="6.49303">
        <ele>1456</ele>
        <time>2021-03-30T16:18:19.070Z</time>
      </trkpt>
      <trkpt lat="46.00048" lon="6.49289">
        <ele>1455</ele>
        <time>2021-03-30T16:18:20.653Z</time>
      </trkpt>
      <trkpt lat="46.00001" lon="6.49233">
        <ele>1452</ele>
        <time>2021-03-30T16:18:29.164Z</time>
      </trkpt>
      <trkpt lat="45.99965" lon="6.49219">
        <ele>1446</ele>
        <time>2021-03-30T16:18:34.090Z</time>
      </trkpt>
      <trkpt lat="45.99956" lon="6.49204">
        <ele>1451</ele>
        <time>2021-03-30T16:18:54.067Z</time>
      </trkpt>
      <trkpt lat="45.99947" lon="6.49181">
        <ele>1459</ele>
        <time>2021-03-30T16:19:20.674Z</time>
      </trkpt>
      <trkpt lat="45.99907" lon="6.49112">
        <ele>1472</ele>
        <time>2021-03-30T16:20:51.256Z</time>
      </trkpt>
      <trkpt lat="45.99893" lon="6.4908">
        <ele>1478</ele>
        <time>2021-03-30T16:21:29.373Z</time>
      </trkpt>
      <trkpt lat="45.9988" lon="6.49059">
        <ele>1478</ele>
        <time>2021-03-30T16:21:36.724Z</time>
      </trkpt>
      <trkpt lat="45.99851" lon="6.49026">
        <ele>1473</ele>
        <time>2021-03-30T16:21:41.607Z</time>
      </trkpt>
      <trkpt lat="45.99816" lon="6.48977">
        <ele>1470</ele>
        <time>2021-03-30T16:21:47.758Z</time>
      </trkpt>
      <trkpt lat="45.99805" lon="6.48955">
        <ele>1472</ele>
        <time>2021-03-30T16:22:07.365Z</time>
      </trkpt>
      <trkpt lat="45.99784" lon="6.48878">
        <ele>1482</ele>
        <time>2021-03-30T16:23:30.744Z</time>
      </trkpt>
      <trkpt lat="45.9978" lon="6.48843">
        <ele>1490</ele>
        <time>2021-03-30T16:24:06.496Z</time>
      </trkpt>
      <trkpt lat="45.99767" lon="6.4878">
        <ele>1497</ele>
        <time>2021-03-30T16:25:12.739Z</time>
      </trkpt>
      <trkpt lat="45.99766" lon="6.48744">
        <ele>1504</ele>
        <time>2021-03-30T16:25:49.054Z</time>
      </trkpt>
      <trkpt lat="45.9976" lon="6.48681">
        <ele>1505</ele>
        <time>2021-03-30T16:26:10.019Z</time>
      </trkpt>
      <trkpt lat="45.99761" lon="6.48648">
        <ele>1509</ele>
        <time>2021-03-30T16:26:43.313Z</time>
      </trkpt>
      <trkpt lat="45.99766" lon="6.48606">
        <ele>1519</ele>
        <time>2021-03-30T16:27:26.264Z</time>
      </trkpt>
    </trkseg>
  </trk>
</gpx>